<?xml version="1.0" encoding="UTF-8" standalone="no" ?>
<gpx xmlns="http://www.topografix.com/GPX/1/1" xmlns:xsi="http://www.w3.org/2001/XMLSchema-instance" xsi:schemaLocation="http://www.topografix.com/GPX/1/1 http://www.topografix.com/GPX/1/1/gpx.xsd" version="1.1" creator="VisuGPX - https://www.visugpx.com">
  <metadata>
    <name>140614ROBChristopheVinsSignore</name>
    <desc><![CDATA[Sortie écourtée à cause de la pluie]]></desc>
  </metadata>
  <trk>
    <name><![CDATA[140614ROBChristopheVinsSignore]]></name>
    <trkseg>
      <trkpt lat="43.41582" lon="6.07044">
        <ele>218.96960449219</ele>
        <time>2014-06-14T12:08:26Z</time>
      </trkpt>
      <trkpt lat="43.41582" lon="6.07044">
        <ele>218.96960449219</ele>
        <time>2014-06-14T12:08:27Z</time>
      </trkpt>
      <trkpt lat="43.41583" lon="6.07045">
        <ele>218.9970703125</ele>
        <time>2014-06-14T12:08:30Z</time>
      </trkpt>
      <trkpt lat="43.41583" lon="6.07046">
        <ele>218.9970703125</ele>
        <time>2014-06-14T12:08:31Z</time>
      </trkpt>
      <trkpt lat="43.41584" lon="6.07049">
        <ele>219</ele>
        <time>2014-06-14T12:08:33Z</time>
      </trkpt>
      <trkpt lat="43.41585" lon="6.07059">
        <ele>218.88793945312</ele>
        <time>2014-06-14T12:08:37Z</time>
      </trkpt>
      <trkpt lat="43.41585" lon="6.07066">
        <ele>218.6356048584</ele>
        <time>2014-06-14T12:08:40Z</time>
      </trkpt>
      <trkpt lat="43.41586" lon="6.0707">
        <ele>218.47940063477</ele>
        <time>2014-06-14T12:08:42Z</time>
      </trkpt>
      <trkpt lat="43.41589" lon="6.07092">
        <ele>218</ele>
        <time>2014-06-14T12:08:50Z</time>
      </trkpt>
      <trkpt lat="43.41591" lon="6.07105">
        <ele>218</ele>
        <time>2014-06-14T12:08:55Z</time>
      </trkpt>
      <trkpt lat="43.4159" lon="6.07111">
        <ele>218</ele>
        <time>2014-06-14T12:08:57Z</time>
      </trkpt>
      <trkpt lat="43.41588" lon="6.07112">
        <ele>218</ele>
        <time>2014-06-14T12:08:59Z</time>
      </trkpt>
      <trkpt lat="43.41577" lon="6.07115">
        <ele>217.77734375</ele>
        <time>2014-06-14T12:09:04Z</time>
      </trkpt>
      <trkpt lat="43.41561" lon="6.07118">
        <ele>217.20056152344</ele>
        <time>2014-06-14T12:09:09Z</time>
      </trkpt>
      <trkpt lat="43.41553" lon="6.07115">
        <ele>217</ele>
        <time>2014-06-14T12:09:13Z</time>
      </trkpt>
      <trkpt lat="43.41551" lon="6.07107">
        <ele>217</ele>
        <time>2014-06-14T12:09:17Z</time>
      </trkpt>
      <trkpt lat="43.41549" lon="6.07097">
        <ele>217</ele>
        <time>2014-06-14T12:09:20Z</time>
      </trkpt>
      <trkpt lat="43.41545" lon="6.07078">
        <ele>217.18756103516</ele>
        <time>2014-06-14T12:09:26Z</time>
      </trkpt>
      <trkpt lat="43.41542" lon="6.07077">
        <ele>217.23907470703</ele>
        <time>2014-06-14T12:09:27Z</time>
      </trkpt>
      <trkpt lat="43.41532" lon="6.07077">
        <ele>217.2356262207</ele>
        <time>2014-06-14T12:09:30Z</time>
      </trkpt>
      <trkpt lat="43.4152" lon="6.0708">
        <ele>216.86549377441</ele>
        <time>2014-06-14T12:09:33Z</time>
      </trkpt>
      <trkpt lat="43.41513" lon="6.07082">
        <ele>216.54277038574</ele>
        <time>2014-06-14T12:09:35Z</time>
      </trkpt>
      <trkpt lat="43.41506" lon="6.07084">
        <ele>216.20928955078</ele>
        <time>2014-06-14T12:09:37Z</time>
      </trkpt>
      <trkpt lat="43.41489" lon="6.07079">
        <ele>215.78746032715</ele>
        <time>2014-06-14T12:09:42Z</time>
      </trkpt>
      <trkpt lat="43.41471" lon="6.07075">
        <ele>215.30944824219</ele>
        <time>2014-06-14T12:09:48Z</time>
      </trkpt>
      <trkpt lat="43.41465" lon="6.07073">
        <ele>215.35408020019</ele>
        <time>2014-06-14T12:09:52Z</time>
      </trkpt>
      <trkpt lat="43.41463" lon="6.07074">
        <ele>215.33520507812</ele>
        <time>2014-06-14T12:09:53Z</time>
      </trkpt>
      <trkpt lat="43.4146" lon="6.07077">
        <ele>215.22189331055</ele>
        <time>2014-06-14T12:09:55Z</time>
      </trkpt>
      <trkpt lat="43.41458" lon="6.07084">
        <ele>215</ele>
        <time>2014-06-14T12:09:57Z</time>
      </trkpt>
      <trkpt lat="43.41453" lon="6.07095">
        <ele>215</ele>
        <time>2014-06-14T12:10:00Z</time>
      </trkpt>
      <trkpt lat="43.41445" lon="6.07116">
        <ele>215</ele>
        <time>2014-06-14T12:10:05Z</time>
      </trkpt>
      <trkpt lat="43.41437" lon="6.07139">
        <ele>214.73736572266</ele>
        <time>2014-06-14T12:10:08Z</time>
      </trkpt>
      <trkpt lat="43.41436" lon="6.07144">
        <ele>214.68243408203</ele>
        <time>2014-06-14T12:10:11Z</time>
      </trkpt>
      <trkpt lat="43.41432" lon="6.07152">
        <ele>214.54510498047</ele>
        <time>2014-06-14T12:10:13Z</time>
      </trkpt>
      <trkpt lat="43.41426" lon="6.07169">
        <ele>214.32537841797</ele>
        <time>2014-06-14T12:10:17Z</time>
      </trkpt>
      <trkpt lat="43.414" lon="6.07255">
        <ele>213.39154052734</ele>
        <time>2014-06-14T12:10:34Z</time>
      </trkpt>
      <trkpt lat="43.41377" lon="6.07331">
        <ele>213</ele>
        <time>2014-06-14T12:10:48Z</time>
      </trkpt>
      <trkpt lat="43.41367" lon="6.0738">
        <ele>213</ele>
        <time>2014-06-14T12:10:56Z</time>
      </trkpt>
      <trkpt lat="43.41357" lon="6.0743">
        <ele>213</ele>
        <time>2014-06-14T12:11:04Z</time>
      </trkpt>
      <trkpt lat="43.41345" lon="6.07492">
        <ele>212.60102844238</ele>
        <time>2014-06-14T12:11:13Z</time>
      </trkpt>
      <trkpt lat="43.41331" lon="6.07555">
        <ele>212</ele>
        <time>2014-06-14T12:11:22Z</time>
      </trkpt>
      <trkpt lat="43.41323" lon="6.07583">
        <ele>211.00347900391</ele>
        <time>2014-06-14T12:11:26Z</time>
      </trkpt>
      <trkpt lat="43.41319" lon="6.07598">
        <ele>211</ele>
        <time>2014-06-14T12:11:28Z</time>
      </trkpt>
      <trkpt lat="43.41315" lon="6.07611">
        <ele>210.99240112305</ele>
        <time>2014-06-14T12:11:30Z</time>
      </trkpt>
      <trkpt lat="43.41298" lon="6.07665">
        <ele>209.75862121582</ele>
        <time>2014-06-14T12:11:38Z</time>
      </trkpt>
      <trkpt lat="43.4129" lon="6.07712">
        <ele>208.64530944824</ele>
        <time>2014-06-14T12:11:45Z</time>
      </trkpt>
      <trkpt lat="43.4129" lon="6.07719">
        <ele>208.50563049316</ele>
        <time>2014-06-14T12:11:46Z</time>
      </trkpt>
      <trkpt lat="43.41295" lon="6.07763">
        <ele>208</ele>
        <time>2014-06-14T12:11:52Z</time>
      </trkpt>
      <trkpt lat="43.41309" lon="6.07817">
        <ele>207.49327087402</ele>
        <time>2014-06-14T12:12:00Z</time>
      </trkpt>
      <trkpt lat="43.41313" lon="6.0783">
        <ele>207.07588195801</ele>
        <time>2014-06-14T12:12:02Z</time>
      </trkpt>
      <trkpt lat="43.41317" lon="6.07843">
        <ele>206.85928344727</ele>
        <time>2014-06-14T12:12:04Z</time>
      </trkpt>
      <trkpt lat="43.41318" lon="6.07849">
        <ele>206.73725891113</ele>
        <time>2014-06-14T12:12:05Z</time>
      </trkpt>
      <trkpt lat="43.4133" lon="6.07889">
        <ele>205.11126708984</ele>
        <time>2014-06-14T12:12:12Z</time>
      </trkpt>
      <trkpt lat="43.41331" lon="6.07899">
        <ele>205.06665039062</ele>
        <time>2014-06-14T12:12:14Z</time>
      </trkpt>
      <trkpt lat="43.41331" lon="6.07909">
        <ele>205.08038330078</ele>
        <time>2014-06-14T12:12:16Z</time>
      </trkpt>
      <trkpt lat="43.41331" lon="6.07918">
        <ele>205.04867553711</ele>
        <time>2014-06-14T12:12:18Z</time>
      </trkpt>
      <trkpt lat="43.41333" lon="6.07921">
        <ele>204.82955932617</ele>
        <time>2014-06-14T12:12:19Z</time>
      </trkpt>
      <trkpt lat="43.41371" lon="6.07955">
        <ele>204.7470703125</ele>
        <time>2014-06-14T12:12:28Z</time>
      </trkpt>
      <trkpt lat="43.41375" lon="6.07961">
        <ele>204.69641113281</ele>
        <time>2014-06-14T12:12:29Z</time>
      </trkpt>
      <trkpt lat="43.41391" lon="6.07985">
        <ele>204.58578491211</ele>
        <time>2014-06-14T12:12:33Z</time>
      </trkpt>
      <trkpt lat="43.41402" lon="6.08004">
        <ele>204.38343811035</ele>
        <time>2014-06-14T12:12:36Z</time>
      </trkpt>
      <trkpt lat="43.41454" lon="6.08095">
        <ele>204.09506225586</ele>
        <time>2014-06-14T12:12:51Z</time>
      </trkpt>
      <trkpt lat="43.41462" lon="6.08106">
        <ele>204.29862976074</ele>
        <time>2014-06-14T12:12:53Z</time>
      </trkpt>
      <trkpt lat="43.41487" lon="6.08146">
        <ele>204.04528808594</ele>
        <time>2014-06-14T12:13:00Z</time>
      </trkpt>
      <trkpt lat="43.415" lon="6.0817">
        <ele>204.89401245117</ele>
        <time>2014-06-14T12:13:05Z</time>
      </trkpt>
      <trkpt lat="43.41515" lon="6.08201">
        <ele>204.96690368652</ele>
        <time>2014-06-14T12:13:10Z</time>
      </trkpt>
      <trkpt lat="43.41536" lon="6.0824">
        <ele>206.42518615723</ele>
        <time>2014-06-14T12:13:16Z</time>
      </trkpt>
      <trkpt lat="43.41549" lon="6.08276">
        <ele>207.07118225098</ele>
        <time>2014-06-14T12:13:21Z</time>
      </trkpt>
      <trkpt lat="43.4155" lon="6.08282">
        <ele>207.154296875</ele>
        <time>2014-06-14T12:13:22Z</time>
      </trkpt>
      <trkpt lat="43.41558" lon="6.08325">
        <ele>207.62686157227</ele>
        <time>2014-06-14T12:13:28Z</time>
      </trkpt>
      <trkpt lat="43.41563" lon="6.08354">
        <ele>207.80767822266</ele>
        <time>2014-06-14T12:13:33Z</time>
      </trkpt>
      <trkpt lat="43.41566" lon="6.08375">
        <ele>207.94152832031</ele>
        <time>2014-06-14T12:13:37Z</time>
      </trkpt>
      <trkpt lat="43.41568" lon="6.08387">
        <ele>207.89318847656</ele>
        <time>2014-06-14T12:13:39Z</time>
      </trkpt>
      <trkpt lat="43.41573" lon="6.08403">
        <ele>208.02406311035</ele>
        <time>2014-06-14T12:13:42Z</time>
      </trkpt>
      <trkpt lat="43.41575" lon="6.08415">
        <ele>208.10017395019</ele>
        <time>2014-06-14T12:13:44Z</time>
      </trkpt>
      <trkpt lat="43.41578" lon="6.08434">
        <ele>207.94879150391</ele>
        <time>2014-06-14T12:13:47Z</time>
      </trkpt>
      <trkpt lat="43.41581" lon="6.08465">
        <ele>207.80456542969</ele>
        <time>2014-06-14T12:13:52Z</time>
      </trkpt>
      <trkpt lat="43.41588" lon="6.08511">
        <ele>206.95108032227</ele>
        <time>2014-06-14T12:13:59Z</time>
      </trkpt>
      <trkpt lat="43.41603" lon="6.08582">
        <ele>206.46621704102</ele>
        <time>2014-06-14T12:14:10Z</time>
      </trkpt>
      <trkpt lat="43.41604" lon="6.08589">
        <ele>206.27224731445</ele>
        <time>2014-06-14T12:14:11Z</time>
      </trkpt>
      <trkpt lat="43.41611" lon="6.08639">
        <ele>205.06460571289</ele>
        <time>2014-06-14T12:14:18Z</time>
      </trkpt>
      <trkpt lat="43.41623" lon="6.08671">
        <ele>205.64624023438</ele>
        <time>2014-06-14T12:14:23Z</time>
      </trkpt>
      <trkpt lat="43.41625" lon="6.08677">
        <ele>206.03076171875</ele>
        <time>2014-06-14T12:14:24Z</time>
      </trkpt>
      <trkpt lat="43.41634" lon="6.08694">
        <ele>207.29418945312</ele>
        <time>2014-06-14T12:14:27Z</time>
      </trkpt>
      <trkpt lat="43.41642" lon="6.08707">
        <ele>208.04214477539</ele>
        <time>2014-06-14T12:14:30Z</time>
      </trkpt>
      <trkpt lat="43.41655" lon="6.0873">
        <ele>208.45672607422</ele>
        <time>2014-06-14T12:14:35Z</time>
      </trkpt>
      <trkpt lat="43.41657" lon="6.08735">
        <ele>208.23529052734</ele>
        <time>2014-06-14T12:14:36Z</time>
      </trkpt>
      <trkpt lat="43.41667" lon="6.08755">
        <ele>207.70176696777</ele>
        <time>2014-06-14T12:14:40Z</time>
      </trkpt>
      <trkpt lat="43.41689" lon="6.08802">
        <ele>206.33374023438</ele>
        <time>2014-06-14T12:14:49Z</time>
      </trkpt>
      <trkpt lat="43.41722" lon="6.08862">
        <ele>206.89292907715</ele>
        <time>2014-06-14T12:15:00Z</time>
      </trkpt>
      <trkpt lat="43.41732" lon="6.0889">
        <ele>206.35668945312</ele>
        <time>2014-06-14T12:15:04Z</time>
      </trkpt>
      <trkpt lat="43.41735" lon="6.08912">
        <ele>206.79614257812</ele>
        <time>2014-06-14T12:15:07Z</time>
      </trkpt>
      <trkpt lat="43.41734" lon="6.08962">
        <ele>206.42184448242</ele>
        <time>2014-06-14T12:15:14Z</time>
      </trkpt>
      <trkpt lat="43.41728" lon="6.09001">
        <ele>205.64672851562</ele>
        <time>2014-06-14T12:15:20Z</time>
      </trkpt>
      <trkpt lat="43.41724" lon="6.09025">
        <ele>205.19354248047</ele>
        <time>2014-06-14T12:15:24Z</time>
      </trkpt>
      <trkpt lat="43.41723" lon="6.09043">
        <ele>205.09024047852</ele>
        <time>2014-06-14T12:15:27Z</time>
      </trkpt>
      <trkpt lat="43.41723" lon="6.09072">
        <ele>205.04663085938</ele>
        <time>2014-06-14T12:15:32Z</time>
      </trkpt>
      <trkpt lat="43.41723" lon="6.09084">
        <ele>205.04663085938</ele>
        <time>2014-06-14T12:15:34Z</time>
      </trkpt>
      <trkpt lat="43.41722" lon="6.09116">
        <ele>204.94337463379</ele>
        <time>2014-06-14T12:15:39Z</time>
      </trkpt>
      <trkpt lat="43.41722" lon="6.09154">
        <ele>205.02424621582</ele>
        <time>2014-06-14T12:15:45Z</time>
      </trkpt>
      <trkpt lat="43.41722" lon="6.09179">
        <ele>204.48973083496</ele>
        <time>2014-06-14T12:15:49Z</time>
      </trkpt>
      <trkpt lat="43.41723" lon="6.09239">
        <ele>204.71536254883</ele>
        <time>2014-06-14T12:15:58Z</time>
      </trkpt>
      <trkpt lat="43.41725" lon="6.09296">
        <ele>205.27593994141</ele>
        <time>2014-06-14T12:16:07Z</time>
      </trkpt>
      <trkpt lat="43.41719" lon="6.09308">
        <ele>204.23742675781</ele>
        <time>2014-06-14T12:16:10Z</time>
      </trkpt>
      <trkpt lat="43.41703" lon="6.09309">
        <ele>201.39888000488</ele>
        <time>2014-06-14T12:16:14Z</time>
      </trkpt>
      <trkpt lat="43.41699" lon="6.0931">
        <ele>200.73785400391</ele>
        <time>2014-06-14T12:16:15Z</time>
      </trkpt>
      <trkpt lat="43.41654" lon="6.09318">
        <ele>200</ele>
        <time>2014-06-14T12:16:26Z</time>
      </trkpt>
      <trkpt lat="43.41628" lon="6.09324">
        <ele>205.35424804688</ele>
        <time>2014-06-14T12:16:32Z</time>
      </trkpt>
      <trkpt lat="43.416" lon="6.09332">
        <ele>217.86811828613</ele>
        <time>2014-06-14T12:16:40Z</time>
      </trkpt>
      <trkpt lat="43.41596" lon="6.0933">
        <ele>219.57028198242</ele>
        <time>2014-06-14T12:16:42Z</time>
      </trkpt>
      <trkpt lat="43.41595" lon="6.09326">
        <ele>220.05569458008</ele>
        <time>2014-06-14T12:16:43Z</time>
      </trkpt>
      <trkpt lat="43.41591" lon="6.09307">
        <ele>221.96179199219</ele>
        <time>2014-06-14T12:16:48Z</time>
      </trkpt>
      <trkpt lat="43.4159" lon="6.09304">
        <ele>222.32972717285</ele>
        <time>2014-06-14T12:16:49Z</time>
      </trkpt>
      <trkpt lat="43.4159" lon="6.09286">
        <ele>222.34436035156</ele>
        <time>2014-06-14T12:16:54Z</time>
      </trkpt>
      <trkpt lat="43.41592" lon="6.09276">
        <ele>221.78205871582</ele>
        <time>2014-06-14T12:16:57Z</time>
      </trkpt>
      <trkpt lat="43.41595" lon="6.09266">
        <ele>221.0129699707</ele>
        <time>2014-06-14T12:17:00Z</time>
      </trkpt>
      <trkpt lat="43.41593" lon="6.09246">
        <ele>222.10461425781</ele>
        <time>2014-06-14T12:17:06Z</time>
      </trkpt>
      <trkpt lat="43.41591" lon="6.09244">
        <ele>222.85992431641</ele>
        <time>2014-06-14T12:17:08Z</time>
      </trkpt>
      <trkpt lat="43.41586" lon="6.09247">
        <ele>225.12585449219</ele>
        <time>2014-06-14T12:17:12Z</time>
      </trkpt>
      <trkpt lat="43.41584" lon="6.09249">
        <ele>225.73010253906</ele>
        <time>2014-06-14T12:17:13Z</time>
      </trkpt>
      <trkpt lat="43.41581" lon="6.09253">
        <ele>226.48669433594</ele>
        <time>2014-06-14T12:17:16Z</time>
      </trkpt>
      <trkpt lat="43.41582" lon="6.09257">
        <ele>226.15525817871</ele>
        <time>2014-06-14T12:17:18Z</time>
      </trkpt>
      <trkpt lat="43.41581" lon="6.09262">
        <ele>226.28909301758</ele>
        <time>2014-06-14T12:17:20Z</time>
      </trkpt>
      <trkpt lat="43.41575" lon="6.09267">
        <ele>227.60441589356</ele>
        <time>2014-06-14T12:17:24Z</time>
      </trkpt>
      <trkpt lat="43.41574" lon="6.09267">
        <ele>228.02264404297</ele>
        <time>2014-06-14T12:17:25Z</time>
      </trkpt>
      <trkpt lat="43.41573" lon="6.09267">
        <ele>228.23068237305</ele>
        <time>2014-06-14T12:17:26Z</time>
      </trkpt>
      <trkpt lat="43.41571" lon="6.09268">
        <ele>228.62448120117</ele>
        <time>2014-06-14T12:17:30Z</time>
      </trkpt>
      <trkpt lat="43.41571" lon="6.09268">
        <ele>228.62448120117</ele>
        <time>2014-06-14T12:17:36Z</time>
      </trkpt>
      <trkpt lat="43.41571" lon="6.09268">
        <ele>228.72773742676</ele>
        <time>2014-06-14T12:17:39Z</time>
      </trkpt>
      <trkpt lat="43.41567" lon="6.09269">
        <ele>229.76907348633</ele>
        <time>2014-06-14T12:17:43Z</time>
      </trkpt>
      <trkpt lat="43.41566" lon="6.0927">
        <ele>230.18132019043</ele>
        <time>2014-06-14T12:17:46Z</time>
      </trkpt>
      <trkpt lat="43.41566" lon="6.09275">
        <ele>230.00509643555</ele>
        <time>2014-06-14T12:17:58Z</time>
      </trkpt>
      <trkpt lat="43.41566" lon="6.09278">
        <ele>229.97061157227</ele>
        <time>2014-06-14T12:18:02Z</time>
      </trkpt>
      <trkpt lat="43.41566" lon="6.09278">
        <ele>230.0791015625</ele>
        <time>2014-06-14T12:18:09Z</time>
      </trkpt>
      <trkpt lat="43.41565" lon="6.09279">
        <ele>230.18701171875</ele>
        <time>2014-06-14T12:18:10Z</time>
      </trkpt>
      <trkpt lat="43.41565" lon="6.09281">
        <ele>230.40673828125</ele>
        <time>2014-06-14T12:18:12Z</time>
      </trkpt>
      <trkpt lat="43.41562" lon="6.09285">
        <ele>231.06591796875</ele>
        <time>2014-06-14T12:18:15Z</time>
      </trkpt>
      <trkpt lat="43.41561" lon="6.09287">
        <ele>231.3955078125</ele>
        <time>2014-06-14T12:18:16Z</time>
      </trkpt>
      <trkpt lat="43.41559" lon="6.09291">
        <ele>232.0546875</ele>
        <time>2014-06-14T12:18:19Z</time>
      </trkpt>
      <trkpt lat="43.41559" lon="6.09292">
        <ele>232.0546875</ele>
        <time>2014-06-14T12:18:23Z</time>
      </trkpt>
      <trkpt lat="43.41558" lon="6.09293">
        <ele>232.16455078125</ele>
        <time>2014-06-14T12:18:24Z</time>
      </trkpt>
      <trkpt lat="43.41558" lon="6.09293">
        <ele>232.16455078125</ele>
        <time>2014-06-14T12:18:25Z</time>
      </trkpt>
      <trkpt lat="43.41558" lon="6.09296">
        <ele>232.16455078125</ele>
        <time>2014-06-14T12:18:28Z</time>
      </trkpt>
      <trkpt lat="43.41558" lon="6.09299">
        <ele>232.38427734375</ele>
        <time>2014-06-14T12:18:34Z</time>
      </trkpt>
      <trkpt lat="43.41555" lon="6.09303">
        <ele>233.13415527344</ele>
        <time>2014-06-14T12:18:41Z</time>
      </trkpt>
      <trkpt lat="43.41554" lon="6.09307">
        <ele>233.47465515137</ele>
        <time>2014-06-14T12:18:48Z</time>
      </trkpt>
      <trkpt lat="43.41552" lon="6.09312">
        <ele>234.14070129394</ele>
        <time>2014-06-14T12:18:59Z</time>
      </trkpt>
      <trkpt lat="43.41548" lon="6.09325">
        <ele>235.66677856445</ele>
        <time>2014-06-14T12:19:05Z</time>
      </trkpt>
      <trkpt lat="43.41541" lon="6.09336">
        <ele>237.32543945312</ele>
        <time>2014-06-14T12:19:10Z</time>
      </trkpt>
      <trkpt lat="43.41539" lon="6.09346">
        <ele>237.29206848144</ele>
        <time>2014-06-14T12:19:14Z</time>
      </trkpt>
      <trkpt lat="43.41539" lon="6.09349">
        <ele>236.83454895019</ele>
        <time>2014-06-14T12:19:15Z</time>
      </trkpt>
      <trkpt lat="43.41538" lon="6.09363">
        <ele>236.1637878418</ele>
        <time>2014-06-14T12:19:21Z</time>
      </trkpt>
      <trkpt lat="43.41538" lon="6.09367">
        <ele>235.98536682129</ele>
        <time>2014-06-14T12:19:23Z</time>
      </trkpt>
      <trkpt lat="43.41539" lon="6.09374">
        <ele>235.26000976562</ele>
        <time>2014-06-14T12:19:26Z</time>
      </trkpt>
      <trkpt lat="43.41539" lon="6.09385">
        <ele>234.89561462402</ele>
        <time>2014-06-14T12:19:31Z</time>
      </trkpt>
      <trkpt lat="43.4154" lon="6.09388">
        <ele>234.26968383789</ele>
        <time>2014-06-14T12:19:32Z</time>
      </trkpt>
      <trkpt lat="43.4154" lon="6.09393">
        <ele>234.04754638672</ele>
        <time>2014-06-14T12:19:33Z</time>
      </trkpt>
      <trkpt lat="43.41539" lon="6.09408">
        <ele>232.97048950195</ele>
        <time>2014-06-14T12:19:36Z</time>
      </trkpt>
      <trkpt lat="43.41541" lon="6.09415">
        <ele>231.68766784668</ele>
        <time>2014-06-14T12:19:38Z</time>
      </trkpt>
      <trkpt lat="43.41541" lon="6.09418">
        <ele>231.39852905273</ele>
        <time>2014-06-14T12:19:39Z</time>
      </trkpt>
      <trkpt lat="43.4154" lon="6.09421">
        <ele>231.19253540039</ele>
        <time>2014-06-14T12:19:40Z</time>
      </trkpt>
      <trkpt lat="43.4154" lon="6.09424">
        <ele>230.99684143066</ele>
        <time>2014-06-14T12:19:41Z</time>
      </trkpt>
      <trkpt lat="43.41537" lon="6.09436">
        <ele>230.88870239258</ele>
        <time>2014-06-14T12:19:46Z</time>
      </trkpt>
      <trkpt lat="43.41538" lon="6.09438">
        <ele>230.34796142578</ele>
        <time>2014-06-14T12:19:51Z</time>
      </trkpt>
      <trkpt lat="43.41537" lon="6.09439">
        <ele>230.52819824219</ele>
        <time>2014-06-14T12:19:54Z</time>
      </trkpt>
      <trkpt lat="43.41536" lon="6.09442">
        <ele>230.85264587402</ele>
        <time>2014-06-14T12:19:57Z</time>
      </trkpt>
      <trkpt lat="43.41533" lon="6.09445">
        <ele>231.59017944336</ele>
        <time>2014-06-14T12:20:01Z</time>
      </trkpt>
      <trkpt lat="43.41533" lon="6.09445">
        <ele>231.88887023926</ele>
        <time>2014-06-14T12:20:03Z</time>
      </trkpt>
      <trkpt lat="43.41533" lon="6.09445">
        <ele>231.88887023926</ele>
        <time>2014-06-14T12:20:05Z</time>
      </trkpt>
      <trkpt lat="43.41531" lon="6.09448">
        <ele>232.38325500488</ele>
        <time>2014-06-14T12:20:10Z</time>
      </trkpt>
      <trkpt lat="43.4153" lon="6.09452">
        <ele>232.42788696289</ele>
        <time>2014-06-14T12:20:12Z</time>
      </trkpt>
      <trkpt lat="43.41531" lon="6.09458">
        <ele>231.80990600586</ele>
        <time>2014-06-14T12:20:15Z</time>
      </trkpt>
      <trkpt lat="43.41534" lon="6.09466">
        <ele>229.77743530273</ele>
        <time>2014-06-14T12:20:18Z</time>
      </trkpt>
      <trkpt lat="43.41535" lon="6.0947">
        <ele>229.10108947754</ele>
        <time>2014-06-14T12:20:20Z</time>
      </trkpt>
      <trkpt lat="43.41533" lon="6.09471">
        <ele>229.68817138672</ele>
        <time>2014-06-14T12:20:21Z</time>
      </trkpt>
      <trkpt lat="43.41529" lon="6.09474">
        <ele>231.04342651367</ele>
        <time>2014-06-14T12:20:23Z</time>
      </trkpt>
      <trkpt lat="43.41523" lon="6.09479">
        <ele>232.53993225098</ele>
        <time>2014-06-14T12:20:27Z</time>
      </trkpt>
      <trkpt lat="43.41522" lon="6.0948">
        <ele>232.83688354492</ele>
        <time>2014-06-14T12:20:29Z</time>
      </trkpt>
      <trkpt lat="43.41522" lon="6.09482">
        <ele>232.68267822266</ele>
        <time>2014-06-14T12:20:35Z</time>
      </trkpt>
      <trkpt lat="43.41519" lon="6.09488">
        <ele>233.11518859863</ele>
        <time>2014-06-14T12:20:42Z</time>
      </trkpt>
      <trkpt lat="43.41516" lon="6.09491">
        <ele>233.51701354981</ele>
        <time>2014-06-14T12:20:51Z</time>
      </trkpt>
      <trkpt lat="43.41508" lon="6.09502">
        <ele>235.18139648438</ele>
        <time>2014-06-14T12:20:58Z</time>
      </trkpt>
      <trkpt lat="43.41507" lon="6.0951">
        <ele>234.75909423828</ele>
        <time>2014-06-14T12:21:01Z</time>
      </trkpt>
      <trkpt lat="43.41504" lon="6.09526">
        <ele>233.79092407227</ele>
        <time>2014-06-14T12:21:06Z</time>
      </trkpt>
      <trkpt lat="43.41504" lon="6.09538">
        <ele>232.80242919922</ele>
        <time>2014-06-14T12:21:10Z</time>
      </trkpt>
      <trkpt lat="43.41498" lon="6.09547">
        <ele>233.26635742188</ele>
        <time>2014-06-14T12:21:15Z</time>
      </trkpt>
      <trkpt lat="43.41495" lon="6.09554">
        <ele>233.25274658203</ele>
        <time>2014-06-14T12:21:18Z</time>
      </trkpt>
      <trkpt lat="43.41494" lon="6.09557">
        <ele>233.22402954102</ele>
        <time>2014-06-14T12:21:20Z</time>
      </trkpt>
      <trkpt lat="43.41492" lon="6.09559">
        <ele>233.30642700195</ele>
        <time>2014-06-14T12:21:21Z</time>
      </trkpt>
      <trkpt lat="43.41492" lon="6.0956">
        <ele>233.13134765625</ele>
        <time>2014-06-14T12:21:22Z</time>
      </trkpt>
      <trkpt lat="43.4149" lon="6.09565">
        <ele>233.12619018555</ele>
        <time>2014-06-14T12:21:24Z</time>
      </trkpt>
      <trkpt lat="43.41488" lon="6.09573">
        <ele>232.79144287109</ele>
        <time>2014-06-14T12:21:28Z</time>
      </trkpt>
      <trkpt lat="43.41488" lon="6.09574">
        <ele>232.72964477539</ele>
        <time>2014-06-14T12:21:29Z</time>
      </trkpt>
      <trkpt lat="43.41488" lon="6.09574">
        <ele>232.70390319824</ele>
        <time>2014-06-14T12:21:30Z</time>
      </trkpt>
      <trkpt lat="43.41488" lon="6.09574">
        <ele>232.70390319824</ele>
        <time>2014-06-14T12:21:32Z</time>
      </trkpt>
      <trkpt lat="43.41487" lon="6.09576">
        <ele>232.63696289062</ele>
        <time>2014-06-14T12:21:33Z</time>
      </trkpt>
      <trkpt lat="43.41485" lon="6.0958">
        <ele>232.61120605469</ele>
        <time>2014-06-14T12:21:37Z</time>
      </trkpt>
      <trkpt lat="43.41484" lon="6.09582">
        <ele>232.62664794922</ele>
        <time>2014-06-14T12:21:39Z</time>
      </trkpt>
      <trkpt lat="43.41483" lon="6.09588">
        <ele>232.12197875977</ele>
        <time>2014-06-14T12:21:44Z</time>
      </trkpt>
      <trkpt lat="43.41483" lon="6.09588">
        <ele>232.09622192383</ele>
        <time>2014-06-14T12:21:49Z</time>
      </trkpt>
      <trkpt lat="43.41483" lon="6.09588">
        <ele>232.09622192383</ele>
        <time>2014-06-14T12:21:50Z</time>
      </trkpt>
      <trkpt lat="43.41483" lon="6.09588">
        <ele>232.09622192383</ele>
        <time>2014-06-14T12:21:57Z</time>
      </trkpt>
      <trkpt lat="43.41483" lon="6.0959">
        <ele>232.10137939453</ele>
        <time>2014-06-14T12:21:59Z</time>
      </trkpt>
      <trkpt lat="43.41477" lon="6.09601">
        <ele>232.09622192383</ele>
        <time>2014-06-14T12:22:06Z</time>
      </trkpt>
      <trkpt lat="43.41475" lon="6.09602">
        <ele>232.50305175781</ele>
        <time>2014-06-14T12:22:08Z</time>
      </trkpt>
      <trkpt lat="43.41473" lon="6.09614">
        <ele>231.55101013184</ele>
        <time>2014-06-14T12:22:12Z</time>
      </trkpt>
      <trkpt lat="43.41478" lon="6.09637">
        <ele>228.8318939209</ele>
        <time>2014-06-14T12:22:17Z</time>
      </trkpt>
      <trkpt lat="43.41478" lon="6.09639">
        <ele>228.85935974121</ele>
        <time>2014-06-14T12:22:18Z</time>
      </trkpt>
      <trkpt lat="43.41477" lon="6.09642">
        <ele>228.69825744629</ele>
        <time>2014-06-14T12:22:19Z</time>
      </trkpt>
      <trkpt lat="43.41476" lon="6.09645">
        <ele>228.6416015625</ele>
        <time>2014-06-14T12:22:20Z</time>
      </trkpt>
      <trkpt lat="43.41476" lon="6.09646">
        <ele>228.44076538086</ele>
        <time>2014-06-14T12:22:21Z</time>
      </trkpt>
      <trkpt lat="43.41476" lon="6.09653">
        <ele>227.72494506836</ele>
        <time>2014-06-14T12:22:23Z</time>
      </trkpt>
      <trkpt lat="43.41476" lon="6.09659">
        <ele>226.90097045898</ele>
        <time>2014-06-14T12:22:25Z</time>
      </trkpt>
      <trkpt lat="43.41477" lon="6.09661">
        <ele>226.607421875</ele>
        <time>2014-06-14T12:22:26Z</time>
      </trkpt>
      <trkpt lat="43.41478" lon="6.09664">
        <ele>226.04608154297</ele>
        <time>2014-06-14T12:22:27Z</time>
      </trkpt>
      <trkpt lat="43.41477" lon="6.09669">
        <ele>225.70469665527</ele>
        <time>2014-06-14T12:22:29Z</time>
      </trkpt>
      <trkpt lat="43.41473" lon="6.09672">
        <ele>226.24732971191</ele>
        <time>2014-06-14T12:22:32Z</time>
      </trkpt>
      <trkpt lat="43.41468" lon="6.09675">
        <ele>227.02719116211</ele>
        <time>2014-06-14T12:22:34Z</time>
      </trkpt>
      <trkpt lat="43.4146" lon="6.0969">
        <ele>227.51986694336</ele>
        <time>2014-06-14T12:22:39Z</time>
      </trkpt>
      <trkpt lat="43.41459" lon="6.09694">
        <ele>227.34649658203</ele>
        <time>2014-06-14T12:22:40Z</time>
      </trkpt>
      <trkpt lat="43.41459" lon="6.09708">
        <ele>226.45001220703</ele>
        <time>2014-06-14T12:22:45Z</time>
      </trkpt>
      <trkpt lat="43.41455" lon="6.09728">
        <ele>225.64625549316</ele>
        <time>2014-06-14T12:22:51Z</time>
      </trkpt>
      <trkpt lat="43.41452" lon="6.09744">
        <ele>224.69009399414</ele>
        <time>2014-06-14T12:22:56Z</time>
      </trkpt>
      <trkpt lat="43.41445" lon="6.09761">
        <ele>224.29661560059</ele>
        <time>2014-06-14T12:23:02Z</time>
      </trkpt>
      <trkpt lat="43.41438" lon="6.09779">
        <ele>224.04412841797</ele>
        <time>2014-06-14T12:23:08Z</time>
      </trkpt>
      <trkpt lat="43.41438" lon="6.09791">
        <ele>223.63952636719</ele>
        <time>2014-06-14T12:23:11Z</time>
      </trkpt>
      <trkpt lat="43.41438" lon="6.098">
        <ele>223.14300537109</ele>
        <time>2014-06-14T12:23:13Z</time>
      </trkpt>
      <trkpt lat="43.41443" lon="6.09821">
        <ele>220.78948974609</ele>
        <time>2014-06-14T12:23:18Z</time>
      </trkpt>
      <trkpt lat="43.41446" lon="6.0985">
        <ele>219.86608886719</ele>
        <time>2014-06-14T12:23:23Z</time>
      </trkpt>
      <trkpt lat="43.41449" lon="6.09873">
        <ele>219.64636230469</ele>
        <time>2014-06-14T12:23:27Z</time>
      </trkpt>
      <trkpt lat="43.41451" lon="6.09877">
        <ele>219.56396484375</ele>
        <time>2014-06-14T12:23:28Z</time>
      </trkpt>
      <trkpt lat="43.41441" lon="6.09882">
        <ele>220.97503662109</ele>
        <time>2014-06-14T12:23:32Z</time>
      </trkpt>
      <trkpt lat="43.41438" lon="6.09886">
        <ele>222.21232604981</ele>
        <time>2014-06-14T12:23:34Z</time>
      </trkpt>
      <trkpt lat="43.41434" lon="6.09891">
        <ele>223.25596618652</ele>
        <time>2014-06-14T12:23:36Z</time>
      </trkpt>
      <trkpt lat="43.41433" lon="6.09897">
        <ele>223.71911621094</ele>
        <time>2014-06-14T12:23:38Z</time>
      </trkpt>
      <trkpt lat="43.41436" lon="6.09909">
        <ele>222.82551574707</ele>
        <time>2014-06-14T12:23:42Z</time>
      </trkpt>
      <trkpt lat="43.41436" lon="6.09913">
        <ele>222.86286926269</ele>
        <time>2014-06-14T12:23:43Z</time>
      </trkpt>
      <trkpt lat="43.41437" lon="6.09929">
        <ele>222.88722229004</ele>
        <time>2014-06-14T12:23:48Z</time>
      </trkpt>
      <trkpt lat="43.41438" lon="6.09936">
        <ele>222.51696777344</ele>
        <time>2014-06-14T12:23:50Z</time>
      </trkpt>
      <trkpt lat="43.41441" lon="6.09962">
        <ele>221.61936950684</ele>
        <time>2014-06-14T12:23:57Z</time>
      </trkpt>
      <trkpt lat="43.41444" lon="6.09975">
        <ele>220.35272216797</ele>
        <time>2014-06-14T12:24:01Z</time>
      </trkpt>
      <trkpt lat="43.41447" lon="6.09986">
        <ele>219.81115722656</ele>
        <time>2014-06-14T12:24:05Z</time>
      </trkpt>
      <trkpt lat="43.41452" lon="6.10005">
        <ele>219.52864074707</ele>
        <time>2014-06-14T12:24:10Z</time>
      </trkpt>
      <trkpt lat="43.41455" lon="6.10013">
        <ele>219.39805603027</ele>
        <time>2014-06-14T12:24:12Z</time>
      </trkpt>
      <trkpt lat="43.41464" lon="6.10029">
        <ele>219.35057067871</ele>
        <time>2014-06-14T12:24:15Z</time>
      </trkpt>
      <trkpt lat="43.41465" lon="6.10034">
        <ele>219.61717224121</ele>
        <time>2014-06-14T12:24:16Z</time>
      </trkpt>
      <trkpt lat="43.41467" lon="6.10041">
        <ele>219.69261169434</ele>
        <time>2014-06-14T12:24:18Z</time>
      </trkpt>
      <trkpt lat="43.41473" lon="6.10065">
        <ele>218.9580078125</ele>
        <time>2014-06-14T12:24:25Z</time>
      </trkpt>
      <trkpt lat="43.41481" lon="6.10081">
        <ele>218.69708251953</ele>
        <time>2014-06-14T12:24:30Z</time>
      </trkpt>
      <trkpt lat="43.4149" lon="6.101">
        <ele>218.55972290039</ele>
        <time>2014-06-14T12:24:36Z</time>
      </trkpt>
      <trkpt lat="43.41493" lon="6.10107">
        <ele>218.47529602051</ele>
        <time>2014-06-14T12:24:38Z</time>
      </trkpt>
      <trkpt lat="43.41494" lon="6.10111">
        <ele>218.40179443359</ele>
        <time>2014-06-14T12:24:39Z</time>
      </trkpt>
      <trkpt lat="43.41496" lon="6.10119">
        <ele>218.86932373047</ele>
        <time>2014-06-14T12:24:41Z</time>
      </trkpt>
      <trkpt lat="43.41504" lon="6.10143">
        <ele>220.09233093262</ele>
        <time>2014-06-14T12:24:46Z</time>
      </trkpt>
      <trkpt lat="43.41506" lon="6.1015">
        <ele>220.5061340332</ele>
        <time>2014-06-14T12:24:47Z</time>
      </trkpt>
      <trkpt lat="43.41511" lon="6.10169">
        <ele>221.23788452148</ele>
        <time>2014-06-14T12:24:51Z</time>
      </trkpt>
      <trkpt lat="43.41513" lon="6.10175">
        <ele>221.25505065918</ele>
        <time>2014-06-14T12:24:52Z</time>
      </trkpt>
      <trkpt lat="43.41514" lon="6.10183">
        <ele>221.66360473633</ele>
        <time>2014-06-14T12:24:53Z</time>
      </trkpt>
      <trkpt lat="43.41515" lon="6.1019">
        <ele>222.03096008301</ele>
        <time>2014-06-14T12:24:54Z</time>
      </trkpt>
      <trkpt lat="43.41517" lon="6.10196">
        <ele>222.07817077637</ele>
        <time>2014-06-14T12:24:55Z</time>
      </trkpt>
      <trkpt lat="43.41518" lon="6.10201">
        <ele>222.15403747559</ele>
        <time>2014-06-14T12:24:56Z</time>
      </trkpt>
      <trkpt lat="43.4152" lon="6.10205">
        <ele>222.21447753906</ele>
        <time>2014-06-14T12:24:57Z</time>
      </trkpt>
      <trkpt lat="43.41519" lon="6.1021">
        <ele>222.60395812988</ele>
        <time>2014-06-14T12:24:58Z</time>
      </trkpt>
      <trkpt lat="43.41518" lon="6.10231">
        <ele>224.54650878906</ele>
        <time>2014-06-14T12:25:05Z</time>
      </trkpt>
      <trkpt lat="43.4152" lon="6.10247">
        <ele>225.43009948731</ele>
        <time>2014-06-14T12:25:10Z</time>
      </trkpt>
      <trkpt lat="43.41521" lon="6.10264">
        <ele>225.92079162598</ele>
        <time>2014-06-14T12:25:15Z</time>
      </trkpt>
      <trkpt lat="43.41524" lon="6.10275">
        <ele>225.35115051269</ele>
        <time>2014-06-14T12:25:19Z</time>
      </trkpt>
      <trkpt lat="43.41525" lon="6.10277">
        <ele>225.01483154297</ele>
        <time>2014-06-14T12:25:20Z</time>
      </trkpt>
      <trkpt lat="43.4154" lon="6.10294">
        <ele>222.32734680176</ele>
        <time>2014-06-14T12:25:29Z</time>
      </trkpt>
      <trkpt lat="43.41549" lon="6.10309">
        <ele>220.93849182129</ele>
        <time>2014-06-14T12:25:35Z</time>
      </trkpt>
      <trkpt lat="43.41554" lon="6.10317">
        <ele>219.87626647949</ele>
        <time>2014-06-14T12:25:39Z</time>
      </trkpt>
      <trkpt lat="43.4156" lon="6.10326">
        <ele>219.49650573731</ele>
        <time>2014-06-14T12:25:43Z</time>
      </trkpt>
      <trkpt lat="43.41562" lon="6.10332">
        <ele>219.47911071777</ele>
        <time>2014-06-14T12:25:45Z</time>
      </trkpt>
      <trkpt lat="43.4157" lon="6.10342">
        <ele>219.62222290039</ele>
        <time>2014-06-14T12:25:50Z</time>
      </trkpt>
      <trkpt lat="43.41571" lon="6.10343">
        <ele>219.6091003418</ele>
        <time>2014-06-14T12:25:51Z</time>
      </trkpt>
      <trkpt lat="43.41573" lon="6.10346">
        <ele>219.4973449707</ele>
        <time>2014-06-14T12:25:56Z</time>
      </trkpt>
      <trkpt lat="43.41573" lon="6.10346">
        <ele>219.4973449707</ele>
        <time>2014-06-14T12:26:14Z</time>
      </trkpt>
      <trkpt lat="43.41573" lon="6.10346">
        <ele>219.50621032715</ele>
        <time>2014-06-14T12:26:48Z</time>
      </trkpt>
      <trkpt lat="43.41573" lon="6.10346">
        <ele>219.50621032715</ele>
        <time>2014-06-14T12:27:04Z</time>
      </trkpt>
      <trkpt lat="43.41576" lon="6.1035">
        <ele>219.43061828613</ele>
        <time>2014-06-14T12:27:06Z</time>
      </trkpt>
      <trkpt lat="43.41578" lon="6.10352">
        <ele>219.29008483887</ele>
        <time>2014-06-14T12:27:07Z</time>
      </trkpt>
      <trkpt lat="43.41583" lon="6.10359">
        <ele>218.9952545166</ele>
        <time>2014-06-14T12:27:09Z</time>
      </trkpt>
      <trkpt lat="43.41585" lon="6.10366">
        <ele>219.1798248291</ele>
        <time>2014-06-14T12:27:11Z</time>
      </trkpt>
      <trkpt lat="43.41588" lon="6.10374">
        <ele>219.53373718262</ele>
        <time>2014-06-14T12:27:14Z</time>
      </trkpt>
      <trkpt lat="43.41588" lon="6.10377">
        <ele>219.73252868652</ele>
        <time>2014-06-14T12:27:15Z</time>
      </trkpt>
      <trkpt lat="43.41589" lon="6.10382">
        <ele>219.97502136231</ele>
        <time>2014-06-14T12:27:17Z</time>
      </trkpt>
      <trkpt lat="43.41589" lon="6.10385">
        <ele>220.11454772949</ele>
        <time>2014-06-14T12:27:18Z</time>
      </trkpt>
      <trkpt lat="43.41589" lon="6.10387">
        <ele>220.23086547852</ele>
        <time>2014-06-14T12:27:19Z</time>
      </trkpt>
      <trkpt lat="43.41587" lon="6.10393">
        <ele>220.97892761231</ele>
        <time>2014-06-14T12:27:22Z</time>
      </trkpt>
      <trkpt lat="43.41587" lon="6.10398">
        <ele>221.46626281738</ele>
        <time>2014-06-14T12:27:25Z</time>
      </trkpt>
      <trkpt lat="43.41588" lon="6.10401">
        <ele>221.66848754883</ele>
        <time>2014-06-14T12:27:27Z</time>
      </trkpt>
      <trkpt lat="43.41587" lon="6.10404">
        <ele>222.05570983887</ele>
        <time>2014-06-14T12:27:30Z</time>
      </trkpt>
      <trkpt lat="43.41587" lon="6.10406">
        <ele>222.24600219727</ele>
        <time>2014-06-14T12:27:31Z</time>
      </trkpt>
      <trkpt lat="43.41588" lon="6.10412">
        <ele>222.75729370117</ele>
        <time>2014-06-14T12:27:35Z</time>
      </trkpt>
      <trkpt lat="43.41589" lon="6.10419">
        <ele>223.35774230957</ele>
        <time>2014-06-14T12:27:39Z</time>
      </trkpt>
      <trkpt lat="43.41589" lon="6.1043">
        <ele>224.736328125</ele>
        <time>2014-06-14T12:27:45Z</time>
      </trkpt>
      <trkpt lat="43.41587" lon="6.10438">
        <ele>226.01612854004</ele>
        <time>2014-06-14T12:27:49Z</time>
      </trkpt>
      <trkpt lat="43.41588" lon="6.1045">
        <ele>227.2018737793</ele>
        <time>2014-06-14T12:27:54Z</time>
      </trkpt>
      <trkpt lat="43.41594" lon="6.10465">
        <ele>226.76058959961</ele>
        <time>2014-06-14T12:27:59Z</time>
      </trkpt>
      <trkpt lat="43.41599" lon="6.10491">
        <ele>227.33421325684</ele>
        <time>2014-06-14T12:28:12Z</time>
      </trkpt>
      <trkpt lat="43.41603" lon="6.10502">
        <ele>226.84799194336</ele>
        <time>2014-06-14T12:28:17Z</time>
      </trkpt>
      <trkpt lat="43.41608" lon="6.1051">
        <ele>226.23724365234</ele>
        <time>2014-06-14T12:28:21Z</time>
      </trkpt>
      <trkpt lat="43.41611" lon="6.10515">
        <ele>225.67283630371</ele>
        <time>2014-06-14T12:28:24Z</time>
      </trkpt>
      <trkpt lat="43.41617" lon="6.10531">
        <ele>224.28161621094</ele>
        <time>2014-06-14T12:28:29Z</time>
      </trkpt>
      <trkpt lat="43.41622" lon="6.10541">
        <ele>222.00411987305</ele>
        <time>2014-06-14T12:28:32Z</time>
      </trkpt>
      <trkpt lat="43.41623" lon="6.10546">
        <ele>221.60571289062</ele>
        <time>2014-06-14T12:28:33Z</time>
      </trkpt>
      <trkpt lat="43.41624" lon="6.10558">
        <ele>221.31640625</ele>
        <time>2014-06-14T12:28:35Z</time>
      </trkpt>
      <trkpt lat="43.41626" lon="6.10569">
        <ele>220.4375</ele>
        <time>2014-06-14T12:28:37Z</time>
      </trkpt>
      <trkpt lat="43.41627" lon="6.10574">
        <ele>219.7783203125</ele>
        <time>2014-06-14T12:28:38Z</time>
      </trkpt>
      <trkpt lat="43.41629" lon="6.1058">
        <ele>218.6796875</ele>
        <time>2014-06-14T12:28:39Z</time>
      </trkpt>
      <trkpt lat="43.41631" lon="6.10585">
        <ele>217.361328125</ele>
        <time>2014-06-14T12:28:40Z</time>
      </trkpt>
      <trkpt lat="43.41632" lon="6.10591">
        <ele>216.7021484375</ele>
        <time>2014-06-14T12:28:41Z</time>
      </trkpt>
      <trkpt lat="43.41633" lon="6.10602">
        <ele>216.2626953125</ele>
        <time>2014-06-14T12:28:43Z</time>
      </trkpt>
      <trkpt lat="43.41633" lon="6.10613">
        <ele>216.22987365723</ele>
        <time>2014-06-14T12:28:45Z</time>
      </trkpt>
      <trkpt lat="43.41632" lon="6.10618">
        <ele>216.58547973633</ele>
        <time>2014-06-14T12:28:46Z</time>
      </trkpt>
      <trkpt lat="43.41632" lon="6.10623">
        <ele>216.92665100098</ele>
        <time>2014-06-14T12:28:47Z</time>
      </trkpt>
      <trkpt lat="43.41628" lon="6.10652">
        <ele>217.8962097168</ele>
        <time>2014-06-14T12:28:53Z</time>
      </trkpt>
      <trkpt lat="43.41627" lon="6.10662">
        <ele>217.95292663574</ele>
        <time>2014-06-14T12:28:55Z</time>
      </trkpt>
      <trkpt lat="43.41628" lon="6.10668">
        <ele>217.23199462891</ele>
        <time>2014-06-14T12:28:57Z</time>
      </trkpt>
      <trkpt lat="43.41629" lon="6.10674">
        <ele>215.9391784668</ele>
        <time>2014-06-14T12:28:59Z</time>
      </trkpt>
      <trkpt lat="43.41631" lon="6.1068">
        <ele>214.60388183594</ele>
        <time>2014-06-14T12:29:01Z</time>
      </trkpt>
      <trkpt lat="43.41632" lon="6.10687">
        <ele>213.30975341797</ele>
        <time>2014-06-14T12:29:03Z</time>
      </trkpt>
      <trkpt lat="43.41632" lon="6.10697">
        <ele>212.07165527344</ele>
        <time>2014-06-14T12:29:05Z</time>
      </trkpt>
      <trkpt lat="43.41633" lon="6.10718">
        <ele>210.56552124023</ele>
        <time>2014-06-14T12:29:09Z</time>
      </trkpt>
      <trkpt lat="43.41632" lon="6.1072">
        <ele>210.78610229492</ele>
        <time>2014-06-14T12:29:10Z</time>
      </trkpt>
      <trkpt lat="43.41635" lon="6.10726">
        <ele>208.79579162598</ele>
        <time>2014-06-14T12:29:13Z</time>
      </trkpt>
      <trkpt lat="43.41636" lon="6.10731">
        <ele>207.53436279297</ele>
        <time>2014-06-14T12:29:14Z</time>
      </trkpt>
      <trkpt lat="43.41635" lon="6.10734">
        <ele>207.80577087402</ele>
        <time>2014-06-14T12:29:15Z</time>
      </trkpt>
      <trkpt lat="43.41626" lon="6.10741">
        <ele>212.27671813965</ele>
        <time>2014-06-14T12:29:21Z</time>
      </trkpt>
      <trkpt lat="43.41624" lon="6.10742">
        <ele>213.48780822754</ele>
        <time>2014-06-14T12:29:22Z</time>
      </trkpt>
      <trkpt lat="43.41619" lon="6.10747">
        <ele>215.40533447266</ele>
        <time>2014-06-14T12:29:25Z</time>
      </trkpt>
      <trkpt lat="43.41618" lon="6.10749">
        <ele>215.92454528809</ele>
        <time>2014-06-14T12:29:26Z</time>
      </trkpt>
      <trkpt lat="43.41615" lon="6.10754">
        <ele>216.83502197266</ele>
        <time>2014-06-14T12:29:31Z</time>
      </trkpt>
      <trkpt lat="43.41609" lon="6.10761">
        <ele>218.56509399414</ele>
        <time>2014-06-14T12:29:36Z</time>
      </trkpt>
      <trkpt lat="43.41601" lon="6.10772">
        <ele>220.19984436035</ele>
        <time>2014-06-14T12:29:41Z</time>
      </trkpt>
      <trkpt lat="43.41589" lon="6.10786">
        <ele>223.79052734375</ele>
        <time>2014-06-14T12:29:48Z</time>
      </trkpt>
      <trkpt lat="43.41578" lon="6.10801">
        <ele>226.06089782715</ele>
        <time>2014-06-14T12:29:54Z</time>
      </trkpt>
      <trkpt lat="43.41576" lon="6.10803">
        <ele>226.40422058106</ele>
        <time>2014-06-14T12:29:55Z</time>
      </trkpt>
      <trkpt lat="43.41573" lon="6.10807">
        <ele>227.40817260742</ele>
        <time>2014-06-14T12:29:57Z</time>
      </trkpt>
      <trkpt lat="43.41561" lon="6.10812">
        <ele>231.13494873047</ele>
        <time>2014-06-14T12:30:02Z</time>
      </trkpt>
      <trkpt lat="43.41552" lon="6.10818">
        <ele>233.54637145996</ele>
        <time>2014-06-14T12:30:07Z</time>
      </trkpt>
      <trkpt lat="43.41546" lon="6.10833">
        <ele>233.20425415039</ele>
        <time>2014-06-14T12:30:13Z</time>
      </trkpt>
      <trkpt lat="43.41543" lon="6.10848">
        <ele>230.69714355469</ele>
        <time>2014-06-14T12:30:19Z</time>
      </trkpt>
      <trkpt lat="43.41539" lon="6.10864">
        <ele>228.12878417969</ele>
        <time>2014-06-14T12:30:24Z</time>
      </trkpt>
      <trkpt lat="43.41536" lon="6.1089">
        <ele>224.7013092041</ele>
        <time>2014-06-14T12:30:30Z</time>
      </trkpt>
      <trkpt lat="43.41533" lon="6.1091">
        <ele>221.1628112793</ele>
        <time>2014-06-14T12:30:36Z</time>
      </trkpt>
      <trkpt lat="43.41529" lon="6.10929">
        <ele>218.13510131836</ele>
        <time>2014-06-14T12:30:42Z</time>
      </trkpt>
      <trkpt lat="43.41529" lon="6.10939">
        <ele>214.78285217285</ele>
        <time>2014-06-14T12:30:45Z</time>
      </trkpt>
      <trkpt lat="43.41528" lon="6.10955">
        <ele>212.20933532715</ele>
        <time>2014-06-14T12:30:50Z</time>
      </trkpt>
      <trkpt lat="43.41521" lon="6.10976">
        <ele>211.79623413086</ele>
        <time>2014-06-14T12:30:58Z</time>
      </trkpt>
      <trkpt lat="43.41517" lon="6.1099">
        <ele>210.2619934082</ele>
        <time>2014-06-14T12:31:04Z</time>
      </trkpt>
      <trkpt lat="43.4151" lon="6.11003">
        <ele>210.04978942871</ele>
        <time>2014-06-14T12:31:09Z</time>
      </trkpt>
      <trkpt lat="43.41505" lon="6.11018">
        <ele>210.65104675293</ele>
        <time>2014-06-14T12:31:14Z</time>
      </trkpt>
      <trkpt lat="43.41498" lon="6.11036">
        <ele>210.80126953125</ele>
        <time>2014-06-14T12:31:20Z</time>
      </trkpt>
      <trkpt lat="43.41494" lon="6.1105">
        <ele>210.26774597168</ele>
        <time>2014-06-14T12:31:24Z</time>
      </trkpt>
      <trkpt lat="43.41492" lon="6.11054">
        <ele>210.11268615723</ele>
        <time>2014-06-14T12:31:25Z</time>
      </trkpt>
      <trkpt lat="43.41488" lon="6.11061">
        <ele>210.39892578125</ele>
        <time>2014-06-14T12:31:28Z</time>
      </trkpt>
      <trkpt lat="43.41484" lon="6.11065">
        <ele>210.69075012207</ele>
        <time>2014-06-14T12:31:30Z</time>
      </trkpt>
      <trkpt lat="43.41484" lon="6.1107">
        <ele>211.01690673828</ele>
        <time>2014-06-14T12:31:32Z</time>
      </trkpt>
      <trkpt lat="43.41484" lon="6.11071">
        <ele>211.13706970215</ele>
        <time>2014-06-14T12:31:37Z</time>
      </trkpt>
      <trkpt lat="43.41484" lon="6.11071">
        <ele>211.13706970215</ele>
        <time>2014-06-14T12:31:55Z</time>
      </trkpt>
      <trkpt lat="43.41484" lon="6.11071">
        <ele>211.13706970215</ele>
        <time>2014-06-14T12:32:01Z</time>
      </trkpt>
      <trkpt lat="43.41484" lon="6.11072">
        <ele>211.21946716309</ele>
        <time>2014-06-14T12:32:13Z</time>
      </trkpt>
      <trkpt lat="43.41477" lon="6.1108">
        <ele>211.77908325195</ele>
        <time>2014-06-14T12:32:18Z</time>
      </trkpt>
      <trkpt lat="43.41474" lon="6.11081">
        <ele>211.84088134766</ele>
        <time>2014-06-14T12:32:20Z</time>
      </trkpt>
      <trkpt lat="43.41468" lon="6.11082">
        <ele>211.93357849121</ele>
        <time>2014-06-14T12:32:23Z</time>
      </trkpt>
      <trkpt lat="43.41456" lon="6.11081">
        <ele>211.83744812012</ele>
        <time>2014-06-14T12:32:28Z</time>
      </trkpt>
      <trkpt lat="43.41448" lon="6.11081">
        <ele>211.79624938965</ele>
        <time>2014-06-14T12:32:31Z</time>
      </trkpt>
      <trkpt lat="43.41442" lon="6.11083">
        <ele>211.96447753906</ele>
        <time>2014-06-14T12:32:33Z</time>
      </trkpt>
      <trkpt lat="43.41431" lon="6.11082">
        <ele>211.91984558106</ele>
        <time>2014-06-14T12:32:38Z</time>
      </trkpt>
      <trkpt lat="43.41417" lon="6.11076">
        <ele>211.4666595459</ele>
        <time>2014-06-14T12:32:44Z</time>
      </trkpt>
      <trkpt lat="43.41406" lon="6.11081">
        <ele>211.83401489258</ele>
        <time>2014-06-14T12:32:48Z</time>
      </trkpt>
      <trkpt lat="43.41402" lon="6.11083">
        <ele>211.94387817383</ele>
        <time>2014-06-14T12:32:49Z</time>
      </trkpt>
      <trkpt lat="43.41389" lon="6.11084">
        <ele>212.00970458984</ele>
        <time>2014-06-14T12:32:53Z</time>
      </trkpt>
      <trkpt lat="43.41368" lon="6.11088">
        <ele>212.17620849609</ele>
        <time>2014-06-14T12:32:59Z</time>
      </trkpt>
      <trkpt lat="43.41351" lon="6.11092">
        <ele>212.31698608398</ele>
        <time>2014-06-14T12:33:04Z</time>
      </trkpt>
      <trkpt lat="43.41328" lon="6.11096">
        <ele>212.4577331543</ele>
        <time>2014-06-14T12:33:11Z</time>
      </trkpt>
      <trkpt lat="43.41307" lon="6.11099">
        <ele>212.57446289062</ele>
        <time>2014-06-14T12:33:18Z</time>
      </trkpt>
      <trkpt lat="43.41302" lon="6.11107">
        <ele>212.8405456543</ele>
        <time>2014-06-14T12:33:21Z</time>
      </trkpt>
      <trkpt lat="43.41302" lon="6.11111">
        <ele>212.99504089356</ele>
        <time>2014-06-14T12:33:23Z</time>
      </trkpt>
      <trkpt lat="43.41303" lon="6.11123">
        <ele>213.43792724609</ele>
        <time>2014-06-14T12:33:28Z</time>
      </trkpt>
      <trkpt lat="43.41298" lon="6.11156">
        <ele>215.23448181152</ele>
        <time>2014-06-14T12:33:39Z</time>
      </trkpt>
      <trkpt lat="43.41295" lon="6.11166">
        <ele>215.94515991211</ele>
        <time>2014-06-14T12:33:43Z</time>
      </trkpt>
      <trkpt lat="43.41293" lon="6.11179">
        <ele>216.44122314453</ele>
        <time>2014-06-14T12:33:48Z</time>
      </trkpt>
      <trkpt lat="43.41283" lon="6.11221">
        <ele>217.94325256348</ele>
        <time>2014-06-14T12:34:02Z</time>
      </trkpt>
      <trkpt lat="43.41281" lon="6.11236">
        <ele>218.97483825684</ele>
        <time>2014-06-14T12:34:07Z</time>
      </trkpt>
      <trkpt lat="43.41288" lon="6.11245">
        <ele>219.67178344727</ele>
        <time>2014-06-14T12:34:11Z</time>
      </trkpt>
      <trkpt lat="43.41299" lon="6.11263">
        <ele>220</ele>
        <time>2014-06-14T12:34:17Z</time>
      </trkpt>
      <trkpt lat="43.41305" lon="6.11282">
        <ele>220</ele>
        <time>2014-06-14T12:34:23Z</time>
      </trkpt>
      <trkpt lat="43.41309" lon="6.11291">
        <ele>220</ele>
        <time>2014-06-14T12:34:28Z</time>
      </trkpt>
      <trkpt lat="43.41315" lon="6.11299">
        <ele>220</ele>
        <time>2014-06-14T12:34:32Z</time>
      </trkpt>
      <trkpt lat="43.41318" lon="6.11303">
        <ele>220</ele>
        <time>2014-06-14T12:34:34Z</time>
      </trkpt>
      <trkpt lat="43.41328" lon="6.11309">
        <ele>220</ele>
        <time>2014-06-14T12:34:39Z</time>
      </trkpt>
      <trkpt lat="43.41339" lon="6.11313">
        <ele>220</ele>
        <time>2014-06-14T12:34:43Z</time>
      </trkpt>
      <trkpt lat="43.41356" lon="6.11319">
        <ele>220</ele>
        <time>2014-06-14T12:34:49Z</time>
      </trkpt>
      <trkpt lat="43.41372" lon="6.11324">
        <ele>220</ele>
        <time>2014-06-14T12:34:56Z</time>
      </trkpt>
      <trkpt lat="43.41375" lon="6.11325">
        <ele>220</ele>
        <time>2014-06-14T12:34:58Z</time>
      </trkpt>
      <trkpt lat="43.41381" lon="6.11328">
        <ele>220</ele>
        <time>2014-06-14T12:35:01Z</time>
      </trkpt>
      <trkpt lat="43.41381" lon="6.11329">
        <ele>220</ele>
        <time>2014-06-14T12:35:02Z</time>
      </trkpt>
      <trkpt lat="43.4138" lon="6.11339">
        <ele>220</ele>
        <time>2014-06-14T12:35:06Z</time>
      </trkpt>
      <trkpt lat="43.41378" lon="6.11345">
        <ele>220</ele>
        <time>2014-06-14T12:35:08Z</time>
      </trkpt>
      <trkpt lat="43.41378" lon="6.11347">
        <ele>220</ele>
        <time>2014-06-14T12:35:09Z</time>
      </trkpt>
      <trkpt lat="43.41378" lon="6.11356">
        <ele>220</ele>
        <time>2014-06-14T12:35:12Z</time>
      </trkpt>
      <trkpt lat="43.41376" lon="6.11361">
        <ele>220</ele>
        <time>2014-06-14T12:35:14Z</time>
      </trkpt>
      <trkpt lat="43.41371" lon="6.11382">
        <ele>220</ele>
        <time>2014-06-14T12:35:21Z</time>
      </trkpt>
      <trkpt lat="43.41364" lon="6.1141">
        <ele>220</ele>
        <time>2014-06-14T12:35:29Z</time>
      </trkpt>
      <trkpt lat="43.41359" lon="6.11437">
        <ele>220</ele>
        <time>2014-06-14T12:35:36Z</time>
      </trkpt>
      <trkpt lat="43.41359" lon="6.11462">
        <ele>220</ele>
        <time>2014-06-14T12:35:42Z</time>
      </trkpt>
      <trkpt lat="43.4136" lon="6.11476">
        <ele>220</ele>
        <time>2014-06-14T12:35:46Z</time>
      </trkpt>
      <trkpt lat="43.41362" lon="6.11487">
        <ele>220.02796936035</ele>
        <time>2014-06-14T12:35:49Z</time>
      </trkpt>
      <trkpt lat="43.41364" lon="6.11508">
        <ele>220.22875976562</ele>
        <time>2014-06-14T12:35:54Z</time>
      </trkpt>
      <trkpt lat="43.41365" lon="6.11517">
        <ele>220.25622558594</ele>
        <time>2014-06-14T12:35:57Z</time>
      </trkpt>
      <trkpt lat="43.41366" lon="6.11536">
        <ele>220.33862304688</ele>
        <time>2014-06-14T12:36:03Z</time>
      </trkpt>
      <trkpt lat="43.41365" lon="6.1154">
        <ele>220.28369140625</ele>
        <time>2014-06-14T12:36:04Z</time>
      </trkpt>
      <trkpt lat="43.41362" lon="6.11551">
        <ele>220.09143066406</ele>
        <time>2014-06-14T12:36:07Z</time>
      </trkpt>
      <trkpt lat="43.41352" lon="6.11556">
        <ele>220</ele>
        <time>2014-06-14T12:36:10Z</time>
      </trkpt>
      <trkpt lat="43.41349" lon="6.11558">
        <ele>220</ele>
        <time>2014-06-14T12:36:11Z</time>
      </trkpt>
      <trkpt lat="43.4133" lon="6.11563">
        <ele>220</ele>
        <time>2014-06-14T12:36:17Z</time>
      </trkpt>
      <trkpt lat="43.41315" lon="6.11568">
        <ele>220</ele>
        <time>2014-06-14T12:36:23Z</time>
      </trkpt>
      <trkpt lat="43.41301" lon="6.11579">
        <ele>220</ele>
        <time>2014-06-14T12:36:29Z</time>
      </trkpt>
      <trkpt lat="43.41285" lon="6.11596">
        <ele>220</ele>
        <time>2014-06-14T12:36:36Z</time>
      </trkpt>
      <trkpt lat="43.41262" lon="6.11621">
        <ele>220</ele>
        <time>2014-06-14T12:36:46Z</time>
      </trkpt>
      <trkpt lat="43.41244" lon="6.1164">
        <ele>220</ele>
        <time>2014-06-14T12:36:54Z</time>
      </trkpt>
      <trkpt lat="43.41226" lon="6.1166">
        <ele>220</ele>
        <time>2014-06-14T12:37:02Z</time>
      </trkpt>
      <trkpt lat="43.41213" lon="6.11678">
        <ele>220</ele>
        <time>2014-06-14T12:37:10Z</time>
      </trkpt>
      <trkpt lat="43.41216" lon="6.11685">
        <ele>220</ele>
        <time>2014-06-14T12:37:13Z</time>
      </trkpt>
      <trkpt lat="43.41219" lon="6.11688">
        <ele>220</ele>
        <time>2014-06-14T12:37:15Z</time>
      </trkpt>
      <trkpt lat="43.41242" lon="6.11709">
        <ele>220</ele>
        <time>2014-06-14T12:37:28Z</time>
      </trkpt>
      <trkpt lat="43.41246" lon="6.11714">
        <ele>220</ele>
        <time>2014-06-14T12:37:31Z</time>
      </trkpt>
      <trkpt lat="43.41256" lon="6.1173">
        <ele>220</ele>
        <time>2014-06-14T12:37:38Z</time>
      </trkpt>
      <trkpt lat="43.41262" lon="6.11743">
        <ele>220</ele>
        <time>2014-06-14T12:37:43Z</time>
      </trkpt>
      <trkpt lat="43.41268" lon="6.11756">
        <ele>220.07518005371</ele>
        <time>2014-06-14T12:37:48Z</time>
      </trkpt>
      <trkpt lat="43.41267" lon="6.11762">
        <ele>220.15632629394</ele>
        <time>2014-06-14T12:37:50Z</time>
      </trkpt>
      <trkpt lat="43.41266" lon="6.11772">
        <ele>220.33973693848</ele>
        <time>2014-06-14T12:37:54Z</time>
      </trkpt>
      <trkpt lat="43.41267" lon="6.11784">
        <ele>220.62628173828</ele>
        <time>2014-06-14T12:37:58Z</time>
      </trkpt>
      <trkpt lat="43.41266" lon="6.118">
        <ele>221.23739624023</ele>
        <time>2014-06-14T12:38:02Z</time>
      </trkpt>
      <trkpt lat="43.41263" lon="6.11829">
        <ele>221.52484130859</ele>
        <time>2014-06-14T12:38:07Z</time>
      </trkpt>
      <trkpt lat="43.41262" lon="6.11841">
        <ele>221.81497192383</ele>
        <time>2014-06-14T12:38:09Z</time>
      </trkpt>
      <trkpt lat="43.41261" lon="6.11857">
        <ele>222.44152832031</ele>
        <time>2014-06-14T12:38:12Z</time>
      </trkpt>
      <trkpt lat="43.41259" lon="6.11883">
        <ele>223.44747924805</ele>
        <time>2014-06-14T12:38:18Z</time>
      </trkpt>
      <trkpt lat="43.41257" lon="6.11912">
        <ele>224.32917785644</ele>
        <time>2014-06-14T12:38:25Z</time>
      </trkpt>
      <trkpt lat="43.41251" lon="6.11984">
        <ele>226.41000366211</ele>
        <time>2014-06-14T12:38:41Z</time>
      </trkpt>
      <trkpt lat="43.41249" lon="6.12012">
        <ele>227.60829162598</ele>
        <time>2014-06-14T12:38:47Z</time>
      </trkpt>
      <trkpt lat="43.41257" lon="6.12037">
        <ele>227.72587585449</ele>
        <time>2014-06-14T12:38:52Z</time>
      </trkpt>
      <trkpt lat="43.41259" lon="6.12042">
        <ele>227.69781494141</ele>
        <time>2014-06-14T12:38:53Z</time>
      </trkpt>
      <trkpt lat="43.41264" lon="6.12056">
        <ele>227.48298645019</ele>
        <time>2014-06-14T12:38:56Z</time>
      </trkpt>
      <trkpt lat="43.41267" lon="6.12065">
        <ele>227.55679321289</ele>
        <time>2014-06-14T12:38:58Z</time>
      </trkpt>
      <trkpt lat="43.41269" lon="6.12085">
        <ele>228.04431152344</ele>
        <time>2014-06-14T12:39:03Z</time>
      </trkpt>
      <trkpt lat="43.41269" lon="6.12089">
        <ele>228.10610961914</ele>
        <time>2014-06-14T12:39:04Z</time>
      </trkpt>
      <trkpt lat="43.41275" lon="6.12105">
        <ele>228.02886962891</ele>
        <time>2014-06-14T12:39:08Z</time>
      </trkpt>
      <trkpt lat="43.41284" lon="6.12128">
        <ele>228.21673583984</ele>
        <time>2014-06-14T12:39:12Z</time>
      </trkpt>
      <trkpt lat="43.41285" lon="6.12142">
        <ele>228.37646484375</ele>
        <time>2014-06-14T12:39:15Z</time>
      </trkpt>
      <trkpt lat="43.41286" lon="6.12152">
        <ele>228.74725341797</ele>
        <time>2014-06-14T12:39:17Z</time>
      </trkpt>
      <trkpt lat="43.4129" lon="6.1217">
        <ele>229.55406188965</ele>
        <time>2014-06-14T12:39:22Z</time>
      </trkpt>
      <trkpt lat="43.41291" lon="6.12193">
        <ele>230.42953491211</ele>
        <time>2014-06-14T12:39:28Z</time>
      </trkpt>
      <trkpt lat="43.41286" lon="6.12213">
        <ele>230.31286621094</ele>
        <time>2014-06-14T12:39:34Z</time>
      </trkpt>
      <trkpt lat="43.41285" lon="6.12224">
        <ele>230.30157470703</ele>
        <time>2014-06-14T12:39:37Z</time>
      </trkpt>
      <trkpt lat="43.41283" lon="6.1223">
        <ele>230.47323608398</ele>
        <time>2014-06-14T12:39:39Z</time>
      </trkpt>
      <trkpt lat="43.41281" lon="6.12249">
        <ele>231.05517578125</ele>
        <time>2014-06-14T12:39:44Z</time>
      </trkpt>
      <trkpt lat="43.41278" lon="6.12269">
        <ele>231.72122192383</ele>
        <time>2014-06-14T12:39:49Z</time>
      </trkpt>
      <trkpt lat="43.41277" lon="6.12282">
        <ele>232.05253601074</ele>
        <time>2014-06-14T12:39:52Z</time>
      </trkpt>
      <trkpt lat="43.41275" lon="6.12299">
        <ele>232.42483520508</ele>
        <time>2014-06-14T12:39:57Z</time>
      </trkpt>
      <trkpt lat="43.41273" lon="6.12325">
        <ele>233.3059387207</ele>
        <time>2014-06-14T12:40:04Z</time>
      </trkpt>
      <trkpt lat="43.41272" lon="6.12343">
        <ele>233.89086914062</ele>
        <time>2014-06-14T12:40:09Z</time>
      </trkpt>
      <trkpt lat="43.4127" lon="6.1235">
        <ele>234.11059570312</ele>
        <time>2014-06-14T12:40:11Z</time>
      </trkpt>
      <trkpt lat="43.41266" lon="6.12373">
        <ele>234.96463012695</ele>
        <time>2014-06-14T12:40:17Z</time>
      </trkpt>
      <trkpt lat="43.41259" lon="6.12428">
        <ele>236.19390869141</ele>
        <time>2014-06-14T12:40:32Z</time>
      </trkpt>
      <trkpt lat="43.41256" lon="6.1245">
        <ele>236.41090393066</ele>
        <time>2014-06-14T12:40:38Z</time>
      </trkpt>
      <trkpt lat="43.41257" lon="6.1247">
        <ele>235.78285217285</ele>
        <time>2014-06-14T12:40:44Z</time>
      </trkpt>
      <trkpt lat="43.4126" lon="6.12487">
        <ele>235.83006286621</ele>
        <time>2014-06-14T12:40:49Z</time>
      </trkpt>
      <trkpt lat="43.4127" lon="6.1253">
        <ele>237</ele>
        <time>2014-06-14T12:41:02Z</time>
      </trkpt>
      <trkpt lat="43.41272" lon="6.12547">
        <ele>237</ele>
        <time>2014-06-14T12:41:07Z</time>
      </trkpt>
      <trkpt lat="43.4127" lon="6.12579">
        <ele>238.08604431152</ele>
        <time>2014-06-14T12:41:16Z</time>
      </trkpt>
      <trkpt lat="43.41269" lon="6.12603">
        <ele>238.33258056641</ele>
        <time>2014-06-14T12:41:23Z</time>
      </trkpt>
      <trkpt lat="43.41265" lon="6.12621">
        <ele>238.65266418457</ele>
        <time>2014-06-14T12:41:29Z</time>
      </trkpt>
      <trkpt lat="43.41261" lon="6.12629">
        <ele>238.86289978027</ele>
        <time>2014-06-14T12:41:33Z</time>
      </trkpt>
      <trkpt lat="43.41259" lon="6.12631">
        <ele>238.90158081055</ele>
        <time>2014-06-14T12:41:34Z</time>
      </trkpt>
      <trkpt lat="43.41257" lon="6.12635">
        <ele>238.96650695801</ele>
        <time>2014-06-14T12:41:36Z</time>
      </trkpt>
      <trkpt lat="43.41252" lon="6.12641">
        <ele>239</ele>
        <time>2014-06-14T12:41:39Z</time>
      </trkpt>
      <trkpt lat="43.41242" lon="6.12656">
        <ele>240.29170227051</ele>
        <time>2014-06-14T12:41:45Z</time>
      </trkpt>
      <trkpt lat="43.4124" lon="6.12658">
        <ele>240.56486511231</ele>
        <time>2014-06-14T12:41:46Z</time>
      </trkpt>
      <trkpt lat="43.41237" lon="6.12664">
        <ele>240.94094848633</ele>
        <time>2014-06-14T12:41:48Z</time>
      </trkpt>
      <trkpt lat="43.41232" lon="6.12673">
        <ele>241.3981628418</ele>
        <time>2014-06-14T12:41:51Z</time>
      </trkpt>
      <trkpt lat="43.41227" lon="6.12695">
        <ele>241.44700622559</ele>
        <time>2014-06-14T12:41:58Z</time>
      </trkpt>
      <trkpt lat="43.41224" lon="6.12713">
        <ele>240.58831787109</ele>
        <time>2014-06-14T12:42:04Z</time>
      </trkpt>
      <trkpt lat="43.4122" lon="6.12735">
        <ele>241.5930480957</ele>
        <time>2014-06-14T12:42:11Z</time>
      </trkpt>
      <trkpt lat="43.41213" lon="6.12754">
        <ele>244.08065795898</ele>
        <time>2014-06-14T12:42:17Z</time>
      </trkpt>
      <trkpt lat="43.41211" lon="6.12761">
        <ele>244.73811340332</ele>
        <time>2014-06-14T12:42:21Z</time>
      </trkpt>
      <trkpt lat="43.41211" lon="6.12762">
        <ele>244.77758789062</ele>
        <time>2014-06-14T12:42:26Z</time>
      </trkpt>
      <trkpt lat="43.41211" lon="6.12762">
        <ele>244.77758789062</ele>
        <time>2014-06-14T12:42:42Z</time>
      </trkpt>
      <trkpt lat="43.41211" lon="6.12762">
        <ele>244.79476928711</ele>
        <time>2014-06-14T12:43:11Z</time>
      </trkpt>
      <trkpt lat="43.41211" lon="6.12762">
        <ele>244.79476928711</ele>
        <time>2014-06-14T12:43:25Z</time>
      </trkpt>
      <trkpt lat="43.41211" lon="6.12762">
        <ele>244.79476928711</ele>
        <time>2014-06-14T12:43:37Z</time>
      </trkpt>
      <trkpt lat="43.41212" lon="6.12763">
        <ele>244.75357055664</ele>
        <time>2014-06-14T12:43:51Z</time>
      </trkpt>
      <trkpt lat="43.41211" lon="6.12764">
        <ele>245.02822875977</ele>
        <time>2014-06-14T12:43:54Z</time>
      </trkpt>
      <trkpt lat="43.41208" lon="6.12769">
        <ele>245.87280273438</ele>
        <time>2014-06-14T12:43:57Z</time>
      </trkpt>
      <trkpt lat="43.41205" lon="6.12777">
        <ele>246.72595214844</ele>
        <time>2014-06-14T12:44:00Z</time>
      </trkpt>
      <trkpt lat="43.41203" lon="6.12783">
        <ele>247.53485107422</ele>
        <time>2014-06-14T12:44:02Z</time>
      </trkpt>
      <trkpt lat="43.41201" lon="6.12786">
        <ele>247.99220275879</ele>
        <time>2014-06-14T12:44:03Z</time>
      </trkpt>
      <trkpt lat="43.41196" lon="6.12793">
        <ele>249.28321838379</ele>
        <time>2014-06-14T12:44:06Z</time>
      </trkpt>
      <trkpt lat="43.41193" lon="6.12799">
        <ele>249.96328735352</ele>
        <time>2014-06-14T12:44:08Z</time>
      </trkpt>
      <trkpt lat="43.4119" lon="6.12806">
        <ele>250.73913574219</ele>
        <time>2014-06-14T12:44:10Z</time>
      </trkpt>
      <trkpt lat="43.41189" lon="6.12809">
        <ele>250.94512939453</ele>
        <time>2014-06-14T12:44:11Z</time>
      </trkpt>
      <trkpt lat="43.41179" lon="6.12836">
        <ele>252.88139343262</ele>
        <time>2014-06-14T12:44:20Z</time>
      </trkpt>
      <trkpt lat="43.41175" lon="6.12844">
        <ele>253.90182495117</ele>
        <time>2014-06-14T12:44:23Z</time>
      </trkpt>
      <trkpt lat="43.41171" lon="6.12868">
        <ele>255.48020935059</ele>
        <time>2014-06-14T12:44:30Z</time>
      </trkpt>
      <trkpt lat="43.4117" lon="6.12875">
        <ele>255.61114501953</ele>
        <time>2014-06-14T12:44:32Z</time>
      </trkpt>
      <trkpt lat="43.4117" lon="6.12878">
        <ele>255.62632751465</ele>
        <time>2014-06-14T12:44:33Z</time>
      </trkpt>
      <trkpt lat="43.41173" lon="6.12895">
        <ele>255.50582885742</ele>
        <time>2014-06-14T12:44:38Z</time>
      </trkpt>
      <trkpt lat="43.41176" lon="6.12903">
        <ele>255.50927734375</ele>
        <time>2014-06-14T12:44:41Z</time>
      </trkpt>
      <trkpt lat="43.4118" lon="6.1291">
        <ele>255.28955078125</ele>
        <time>2014-06-14T12:44:45Z</time>
      </trkpt>
      <trkpt lat="43.41187" lon="6.12923">
        <ele>255.00802612305</ele>
        <time>2014-06-14T12:44:52Z</time>
      </trkpt>
      <trkpt lat="43.41189" lon="6.12926">
        <ele>254.93591308594</ele>
        <time>2014-06-14T12:44:54Z</time>
      </trkpt>
      <trkpt lat="43.41198" lon="6.12938">
        <ele>254.86825561523</ele>
        <time>2014-06-14T12:45:03Z</time>
      </trkpt>
      <trkpt lat="43.41199" lon="6.12942">
        <ele>255.08447265625</ele>
        <time>2014-06-14T12:45:06Z</time>
      </trkpt>
      <trkpt lat="43.412" lon="6.12949">
        <ele>255.36428833008</ele>
        <time>2014-06-14T12:45:11Z</time>
      </trkpt>
      <trkpt lat="43.412" lon="6.12956">
        <ele>255.60461425781</ele>
        <time>2014-06-14T12:45:15Z</time>
      </trkpt>
      <trkpt lat="43.412" lon="6.12966">
        <ele>255.95651245117</ele>
        <time>2014-06-14T12:45:21Z</time>
      </trkpt>
      <trkpt lat="43.41203" lon="6.12979">
        <ele>256.52471923828</ele>
        <time>2014-06-14T12:45:28Z</time>
      </trkpt>
      <trkpt lat="43.41206" lon="6.12995">
        <ele>257.24224853516</ele>
        <time>2014-06-14T12:45:38Z</time>
      </trkpt>
      <trkpt lat="43.41207" lon="6.12998">
        <ele>257.36413574219</ele>
        <time>2014-06-14T12:45:40Z</time>
      </trkpt>
      <trkpt lat="43.41213" lon="6.13008">
        <ele>257.96838378906</ele>
        <time>2014-06-14T12:45:47Z</time>
      </trkpt>
      <trkpt lat="43.41216" lon="6.13013">
        <ele>258.22930908203</ele>
        <time>2014-06-14T12:45:50Z</time>
      </trkpt>
      <trkpt lat="43.41223" lon="6.13024">
        <ele>259.13562011719</ele>
        <time>2014-06-14T12:46:00Z</time>
      </trkpt>
      <trkpt lat="43.41224" lon="6.13025">
        <ele>259.50244140625</ele>
        <time>2014-06-14T12:46:01Z</time>
      </trkpt>
      <trkpt lat="43.41227" lon="6.13028">
        <ele>260.4931640625</ele>
        <time>2014-06-14T12:46:04Z</time>
      </trkpt>
      <trkpt lat="43.41234" lon="6.13031">
        <ele>262.71618652344</ele>
        <time>2014-06-14T12:46:10Z</time>
      </trkpt>
      <trkpt lat="43.41236" lon="6.13032">
        <ele>263.36849975586</ele>
        <time>2014-06-14T12:46:12Z</time>
      </trkpt>
      <trkpt lat="43.41241" lon="6.13034">
        <ele>265.00271606445</ele>
        <time>2014-06-14T12:46:16Z</time>
      </trkpt>
      <trkpt lat="43.41251" lon="6.13037">
        <ele>268.0627746582</ele>
        <time>2014-06-14T12:46:24Z</time>
      </trkpt>
      <trkpt lat="43.41255" lon="6.13039">
        <ele>268.8796081543</ele>
        <time>2014-06-14T12:46:27Z</time>
      </trkpt>
      <trkpt lat="43.41262" lon="6.13043">
        <ele>270.14764404297</ele>
        <time>2014-06-14T12:46:32Z</time>
      </trkpt>
      <trkpt lat="43.41272" lon="6.13045">
        <ele>271.52355957031</ele>
        <time>2014-06-14T12:46:40Z</time>
      </trkpt>
      <trkpt lat="43.41273" lon="6.13047">
        <ele>271.90240478516</ele>
        <time>2014-06-14T12:46:42Z</time>
      </trkpt>
      <trkpt lat="43.41277" lon="6.1305">
        <ele>272.54879760742</ele>
        <time>2014-06-14T12:46:45Z</time>
      </trkpt>
      <trkpt lat="43.41278" lon="6.1305">
        <ele>272.8034362793</ele>
        <time>2014-06-14T12:46:46Z</time>
      </trkpt>
      <trkpt lat="43.41283" lon="6.13052">
        <ele>274.22717285156</ele>
        <time>2014-06-14T12:46:51Z</time>
      </trkpt>
      <trkpt lat="43.41284" lon="6.13052">
        <ele>274.3427734375</ele>
        <time>2014-06-14T12:46:57Z</time>
      </trkpt>
      <trkpt lat="43.41284" lon="6.13052">
        <ele>274.3427734375</ele>
        <time>2014-06-14T12:47:09Z</time>
      </trkpt>
      <trkpt lat="43.41283" lon="6.13052">
        <ele>274.22717285156</ele>
        <time>2014-06-14T12:47:13Z</time>
      </trkpt>
      <trkpt lat="43.41283" lon="6.13052">
        <ele>274.22717285156</ele>
        <time>2014-06-14T12:47:26Z</time>
      </trkpt>
      <trkpt lat="43.41283" lon="6.13052">
        <ele>274.22171020508</ele>
        <time>2014-06-14T12:48:14Z</time>
      </trkpt>
      <trkpt lat="43.41283" lon="6.13052">
        <ele>274.22171020508</ele>
        <time>2014-06-14T12:48:29Z</time>
      </trkpt>
      <trkpt lat="43.41283" lon="6.13052">
        <ele>274.11099243164</ele>
        <time>2014-06-14T12:48:32Z</time>
      </trkpt>
      <trkpt lat="43.41283" lon="6.13052">
        <ele>274.11099243164</ele>
        <time>2014-06-14T12:48:52Z</time>
      </trkpt>
      <trkpt lat="43.41282" lon="6.13052">
        <ele>273.89709472656</ele>
        <time>2014-06-14T12:49:56Z</time>
      </trkpt>
      <trkpt lat="43.41282" lon="6.13052">
        <ele>273.91149902344</ele>
        <time>2014-06-14T12:49:58Z</time>
      </trkpt>
      <trkpt lat="43.41282" lon="6.13052">
        <ele>273.91149902344</ele>
        <time>2014-06-14T12:50:11Z</time>
      </trkpt>
      <trkpt lat="43.41282" lon="6.13052">
        <ele>273.91149902344</ele>
        <time>2014-06-14T12:50:22Z</time>
      </trkpt>
      <trkpt lat="43.41293" lon="6.13055">
        <ele>276.69952392578</ele>
        <time>2014-06-14T12:50:28Z</time>
      </trkpt>
      <trkpt lat="43.41302" lon="6.13056">
        <ele>279.13464355469</ele>
        <time>2014-06-14T12:50:33Z</time>
      </trkpt>
      <trkpt lat="43.41303" lon="6.13056">
        <ele>279.42153930664</ele>
        <time>2014-06-14T12:50:34Z</time>
      </trkpt>
      <trkpt lat="43.41309" lon="6.13054">
        <ele>280.11618041992</ele>
        <time>2014-06-14T12:50:38Z</time>
      </trkpt>
      <trkpt lat="43.41312" lon="6.13053">
        <ele>280.20742797852</ele>
        <time>2014-06-14T12:50:40Z</time>
      </trkpt>
      <trkpt lat="43.41321" lon="6.13042">
        <ele>280.28234863281</ele>
        <time>2014-06-14T12:50:46Z</time>
      </trkpt>
      <trkpt lat="43.41326" lon="6.13035">
        <ele>280.18316650391</ele>
        <time>2014-06-14T12:50:50Z</time>
      </trkpt>
      <trkpt lat="43.4133" lon="6.13029">
        <ele>280.0378112793</ele>
        <time>2014-06-14T12:50:54Z</time>
      </trkpt>
      <trkpt lat="43.41333" lon="6.13026">
        <ele>279.99664306641</ele>
        <time>2014-06-14T12:50:57Z</time>
      </trkpt>
      <trkpt lat="43.41338" lon="6.13022">
        <ele>280</ele>
        <time>2014-06-14T12:51:01Z</time>
      </trkpt>
      <trkpt lat="43.41341" lon="6.1302">
        <ele>280</ele>
        <time>2014-06-14T12:51:03Z</time>
      </trkpt>
      <trkpt lat="43.41343" lon="6.1302">
        <ele>280</ele>
        <time>2014-06-14T12:51:04Z</time>
      </trkpt>
      <trkpt lat="43.41345" lon="6.1302">
        <ele>280</ele>
        <time>2014-06-14T12:51:06Z</time>
      </trkpt>
      <trkpt lat="43.4135" lon="6.13026">
        <ele>280</ele>
        <time>2014-06-14T12:51:11Z</time>
      </trkpt>
      <trkpt lat="43.41355" lon="6.13037">
        <ele>280.07690429688</ele>
        <time>2014-06-14T12:51:17Z</time>
      </trkpt>
      <trkpt lat="43.41358" lon="6.13055">
        <ele>280.11727905273</ele>
        <time>2014-06-14T12:51:24Z</time>
      </trkpt>
      <trkpt lat="43.41357" lon="6.13067">
        <ele>280.16027832031</ele>
        <time>2014-06-14T12:51:27Z</time>
      </trkpt>
      <trkpt lat="43.41358" lon="6.13071">
        <ele>280.10534667969</ele>
        <time>2014-06-14T12:51:28Z</time>
      </trkpt>
      <trkpt lat="43.41361" lon="6.13084">
        <ele>280.0094909668</ele>
        <time>2014-06-14T12:51:32Z</time>
      </trkpt>
      <trkpt lat="43.41354" lon="6.13104">
        <ele>280.42538452148</ele>
        <time>2014-06-14T12:51:36Z</time>
      </trkpt>
      <trkpt lat="43.41352" lon="6.1312">
        <ele>280.67761230469</ele>
        <time>2014-06-14T12:51:39Z</time>
      </trkpt>
      <trkpt lat="43.41351" lon="6.13125">
        <ele>280.73254394531</ele>
        <time>2014-06-14T12:51:40Z</time>
      </trkpt>
      <trkpt lat="43.41351" lon="6.1313">
        <ele>280.76000976562</ele>
        <time>2014-06-14T12:51:41Z</time>
      </trkpt>
      <trkpt lat="43.41351" lon="6.13135">
        <ele>280.705078125</ele>
        <time>2014-06-14T12:51:42Z</time>
      </trkpt>
      <trkpt lat="43.41354" lon="6.13146">
        <ele>280.54806518555</ele>
        <time>2014-06-14T12:51:44Z</time>
      </trkpt>
      <trkpt lat="43.41353" lon="6.13168">
        <ele>280.85162353516</ele>
        <time>2014-06-14T12:51:48Z</time>
      </trkpt>
      <trkpt lat="43.41348" lon="6.13185">
        <ele>281.46960449219</ele>
        <time>2014-06-14T12:51:53Z</time>
      </trkpt>
      <trkpt lat="43.41343" lon="6.13201">
        <ele>282.00518798828</ele>
        <time>2014-06-14T12:51:58Z</time>
      </trkpt>
      <trkpt lat="43.41337" lon="6.13213">
        <ele>282.62316894531</ele>
        <time>2014-06-14T12:52:02Z</time>
      </trkpt>
      <trkpt lat="43.41337" lon="6.13239">
        <ele>282.62316894531</ele>
        <time>2014-06-14T12:52:07Z</time>
      </trkpt>
      <trkpt lat="43.41336" lon="6.13244">
        <ele>282.74676513672</ele>
        <time>2014-06-14T12:52:08Z</time>
      </trkpt>
      <trkpt lat="43.41333" lon="6.13265">
        <ele>283.57635498047</ele>
        <time>2014-06-14T12:52:12Z</time>
      </trkpt>
      <trkpt lat="43.41332" lon="6.13271">
        <ele>283.91442871094</ele>
        <time>2014-06-14T12:52:13Z</time>
      </trkpt>
      <trkpt lat="43.41325" lon="6.1331">
        <ele>285.67266845703</ele>
        <time>2014-06-14T12:52:19Z</time>
      </trkpt>
      <trkpt lat="43.41325" lon="6.13338">
        <ele>286.72274780273</ele>
        <time>2014-06-14T12:52:24Z</time>
      </trkpt>
      <trkpt lat="43.41323" lon="6.13366">
        <ele>288.31329345703</ele>
        <time>2014-06-14T12:52:30Z</time>
      </trkpt>
      <trkpt lat="43.41325" lon="6.1338">
        <ele>287.34170532227</ele>
        <time>2014-06-14T12:52:35Z</time>
      </trkpt>
      <trkpt lat="43.41329" lon="6.1338">
        <ele>286.36666870117</ele>
        <time>2014-06-14T12:52:38Z</time>
      </trkpt>
      <trkpt lat="43.41333" lon="6.13371">
        <ele>285.73150634766</ele>
        <time>2014-06-14T12:52:43Z</time>
      </trkpt>
      <trkpt lat="43.41343" lon="6.13356">
        <ele>284.16720581055</ele>
        <time>2014-06-14T12:52:52Z</time>
      </trkpt>
      <trkpt lat="43.41347" lon="6.13352">
        <ele>283.25912475586</ele>
        <time>2014-06-14T12:52:54Z</time>
      </trkpt>
      <trkpt lat="43.41348" lon="6.1335">
        <ele>282.9690246582</ele>
        <time>2014-06-14T12:52:55Z</time>
      </trkpt>
      <trkpt lat="43.41349" lon="6.13344">
        <ele>282.55874633789</ele>
        <time>2014-06-14T12:52:57Z</time>
      </trkpt>
      <trkpt lat="43.41352" lon="6.13338">
        <ele>281.87554931641</ele>
        <time>2014-06-14T12:52:59Z</time>
      </trkpt>
      <trkpt lat="43.41358" lon="6.13331">
        <ele>280.58615112305</ele>
        <time>2014-06-14T12:53:03Z</time>
      </trkpt>
      <trkpt lat="43.41363" lon="6.13327">
        <ele>279.59313964844</ele>
        <time>2014-06-14T12:53:07Z</time>
      </trkpt>
      <trkpt lat="43.41366" lon="6.13323">
        <ele>279.03262329102</ele>
        <time>2014-06-14T12:53:10Z</time>
      </trkpt>
      <trkpt lat="43.41369" lon="6.13319">
        <ele>278.60604858398</ele>
        <time>2014-06-14T12:53:12Z</time>
      </trkpt>
      <trkpt lat="43.41372" lon="6.13318">
        <ele>278.09353637695</ele>
        <time>2014-06-14T12:53:14Z</time>
      </trkpt>
      <trkpt lat="43.41373" lon="6.13318">
        <ele>277.82586669922</ele>
        <time>2014-06-14T12:53:15Z</time>
      </trkpt>
      <trkpt lat="43.41379" lon="6.13321">
        <ele>276.74456787109</ele>
        <time>2014-06-14T12:53:19Z</time>
      </trkpt>
      <trkpt lat="43.41384" lon="6.13323">
        <ele>275.70520019531</ele>
        <time>2014-06-14T12:53:22Z</time>
      </trkpt>
      <trkpt lat="43.41389" lon="6.13325">
        <ele>274.65161132812</ele>
        <time>2014-06-14T12:53:24Z</time>
      </trkpt>
      <trkpt lat="43.41393" lon="6.13326">
        <ele>273.05868530273</ele>
        <time>2014-06-14T12:53:26Z</time>
      </trkpt>
      <trkpt lat="43.41396" lon="6.13327">
        <ele>272.04931640625</ele>
        <time>2014-06-14T12:53:27Z</time>
      </trkpt>
      <trkpt lat="43.41401" lon="6.13325">
        <ele>270.29150390625</ele>
        <time>2014-06-14T12:53:29Z</time>
      </trkpt>
      <trkpt lat="43.41404" lon="6.13323">
        <ele>269.16882324219</ele>
        <time>2014-06-14T12:53:30Z</time>
      </trkpt>
      <trkpt lat="43.4141" lon="6.13325">
        <ele>266.85485839844</ele>
        <time>2014-06-14T12:53:32Z</time>
      </trkpt>
      <trkpt lat="43.41413" lon="6.13327">
        <ele>265.59826660156</ele>
        <time>2014-06-14T12:53:33Z</time>
      </trkpt>
      <trkpt lat="43.41417" lon="6.1333">
        <ele>264.31427001953</ele>
        <time>2014-06-14T12:53:34Z</time>
      </trkpt>
      <trkpt lat="43.41419" lon="6.13332">
        <ele>263.74456787109</ele>
        <time>2014-06-14T12:53:35Z</time>
      </trkpt>
      <trkpt lat="43.41422" lon="6.13334">
        <ele>263.21231079102</ele>
        <time>2014-06-14T12:53:36Z</time>
      </trkpt>
      <trkpt lat="43.41431" lon="6.13341">
        <ele>261.71401977539</ele>
        <time>2014-06-14T12:53:39Z</time>
      </trkpt>
      <trkpt lat="43.41439" lon="6.13348">
        <ele>260.56893920898</ele>
        <time>2014-06-14T12:53:42Z</time>
      </trkpt>
      <trkpt lat="43.41442" lon="6.13349">
        <ele>260.23919677734</ele>
        <time>2014-06-14T12:53:45Z</time>
      </trkpt>
      <trkpt lat="43.41442" lon="6.13349">
        <ele>260.23919677734</ele>
        <time>2014-06-14T12:53:53Z</time>
      </trkpt>
      <trkpt lat="43.41442" lon="6.1335">
        <ele>260.19747924805</ele>
        <time>2014-06-14T12:53:59Z</time>
      </trkpt>
      <trkpt lat="43.41443" lon="6.1335">
        <ele>260.15951538086</ele>
        <time>2014-06-14T12:54:11Z</time>
      </trkpt>
      <trkpt lat="43.41443" lon="6.1335">
        <ele>260.12158203125</ele>
        <time>2014-06-14T12:54:17Z</time>
      </trkpt>
      <trkpt lat="43.41443" lon="6.1335">
        <ele>260.11950683594</ele>
        <time>2014-06-14T12:54:26Z</time>
      </trkpt>
      <trkpt lat="43.41443" lon="6.1335">
        <ele>260.15972900391</ele>
        <time>2014-06-14T12:54:45Z</time>
      </trkpt>
      <trkpt lat="43.41445" lon="6.1335">
        <ele>259.99520874023</ele>
        <time>2014-06-14T12:54:49Z</time>
      </trkpt>
      <trkpt lat="43.41448" lon="6.13351">
        <ele>259.95758056641</ele>
        <time>2014-06-14T12:54:51Z</time>
      </trkpt>
      <trkpt lat="43.41451" lon="6.13361">
        <ele>260</ele>
        <time>2014-06-14T12:54:56Z</time>
      </trkpt>
      <trkpt lat="43.41447" lon="6.13374">
        <ele>260</ele>
        <time>2014-06-14T12:55:02Z</time>
      </trkpt>
      <trkpt lat="43.41444" lon="6.13381">
        <ele>260.03775024414</ele>
        <time>2014-06-14T12:55:05Z</time>
      </trkpt>
      <trkpt lat="43.41439" lon="6.13398">
        <ele>260.13973999023</ele>
        <time>2014-06-14T12:55:12Z</time>
      </trkpt>
      <trkpt lat="43.41434" lon="6.13408">
        <ele>260.11462402344</ele>
        <time>2014-06-14T12:55:17Z</time>
      </trkpt>
      <trkpt lat="43.41431" lon="6.13419">
        <ele>260</ele>
        <time>2014-06-14T12:55:21Z</time>
      </trkpt>
      <trkpt lat="43.41428" lon="6.13429">
        <ele>260</ele>
        <time>2014-06-14T12:55:26Z</time>
      </trkpt>
      <trkpt lat="43.41423" lon="6.13443">
        <ele>260</ele>
        <time>2014-06-14T12:55:32Z</time>
      </trkpt>
      <trkpt lat="43.41418" lon="6.13463">
        <ele>260</ele>
        <time>2014-06-14T12:55:41Z</time>
      </trkpt>
      <trkpt lat="43.41416" lon="6.13472">
        <ele>260.00109863281</ele>
        <time>2014-06-14T12:55:45Z</time>
      </trkpt>
      <trkpt lat="43.4141" lon="6.13487">
        <ele>260</ele>
        <time>2014-06-14T12:55:52Z</time>
      </trkpt>
      <trkpt lat="43.41405" lon="6.13504">
        <ele>260</ele>
        <time>2014-06-14T12:55:59Z</time>
      </trkpt>
      <trkpt lat="43.41402" lon="6.13514">
        <ele>260</ele>
        <time>2014-06-14T12:56:03Z</time>
      </trkpt>
      <trkpt lat="43.41398" lon="6.13531">
        <ele>260</ele>
        <time>2014-06-14T12:56:12Z</time>
      </trkpt>
      <trkpt lat="43.41391" lon="6.13548">
        <ele>260</ele>
        <time>2014-06-14T12:56:21Z</time>
      </trkpt>
      <trkpt lat="43.41388" lon="6.13557">
        <ele>260</ele>
        <time>2014-06-14T12:56:27Z</time>
      </trkpt>
      <trkpt lat="43.41385" lon="6.1356">
        <ele>260</ele>
        <time>2014-06-14T12:56:30Z</time>
      </trkpt>
      <trkpt lat="43.41383" lon="6.13568">
        <ele>260</ele>
        <time>2014-06-14T12:56:34Z</time>
      </trkpt>
      <trkpt lat="43.4137" lon="6.13599">
        <ele>260</ele>
        <time>2014-06-14T12:56:44Z</time>
      </trkpt>
      <trkpt lat="43.41368" lon="6.13603">
        <ele>260</ele>
        <time>2014-06-14T12:56:45Z</time>
      </trkpt>
      <trkpt lat="43.4135" lon="6.1364">
        <ele>260</ele>
        <time>2014-06-14T12:56:52Z</time>
      </trkpt>
      <trkpt lat="43.41345" lon="6.13652">
        <ele>260</ele>
        <time>2014-06-14T12:56:54Z</time>
      </trkpt>
      <trkpt lat="43.4134" lon="6.13664">
        <ele>260</ele>
        <time>2014-06-14T12:56:56Z</time>
      </trkpt>
      <trkpt lat="43.41335" lon="6.13677">
        <ele>260</ele>
        <time>2014-06-14T12:56:58Z</time>
      </trkpt>
      <trkpt lat="43.4133" lon="6.13694">
        <ele>260.0085144043</ele>
        <time>2014-06-14T12:57:00Z</time>
      </trkpt>
      <trkpt lat="43.41329" lon="6.13703">
        <ele>260</ele>
        <time>2014-06-14T12:57:01Z</time>
      </trkpt>
      <trkpt lat="43.41327" lon="6.13722">
        <ele>260</ele>
        <time>2014-06-14T12:57:03Z</time>
      </trkpt>
      <trkpt lat="43.41326" lon="6.13733">
        <ele>260</ele>
        <time>2014-06-14T12:57:04Z</time>
      </trkpt>
      <trkpt lat="43.41326" lon="6.13743">
        <ele>260</ele>
        <time>2014-06-14T12:57:05Z</time>
      </trkpt>
      <trkpt lat="43.41325" lon="6.13755">
        <ele>260.12322998047</ele>
        <time>2014-06-14T12:57:06Z</time>
      </trkpt>
      <trkpt lat="43.41325" lon="6.13766">
        <ele>260.38821411133</ele>
        <time>2014-06-14T12:57:07Z</time>
      </trkpt>
      <trkpt lat="43.41324" lon="6.13777">
        <ele>260.63049316406</ele>
        <time>2014-06-14T12:57:08Z</time>
      </trkpt>
      <trkpt lat="43.41323" lon="6.13788">
        <ele>260.87197875977</ele>
        <time>2014-06-14T12:57:09Z</time>
      </trkpt>
      <trkpt lat="43.41323" lon="6.13798">
        <ele>261.07015991211</ele>
        <time>2014-06-14T12:57:10Z</time>
      </trkpt>
      <trkpt lat="43.41322" lon="6.13808">
        <ele>261.30264282227</ele>
        <time>2014-06-14T12:57:11Z</time>
      </trkpt>
      <trkpt lat="43.41321" lon="6.13818">
        <ele>261.6360168457</ele>
        <time>2014-06-14T12:57:12Z</time>
      </trkpt>
      <trkpt lat="43.4132" lon="6.13837">
        <ele>262.20556640625</ele>
        <time>2014-06-14T12:57:14Z</time>
      </trkpt>
      <trkpt lat="43.41318" lon="6.13874">
        <ele>262.6083984375</ele>
        <time>2014-06-14T12:57:19Z</time>
      </trkpt>
      <trkpt lat="43.41317" lon="6.13888">
        <ele>262.95162963867</ele>
        <time>2014-06-14T12:57:21Z</time>
      </trkpt>
      <trkpt lat="43.41314" lon="6.13922">
        <ele>264.26947021484</ele>
        <time>2014-06-14T12:57:27Z</time>
      </trkpt>
      <trkpt lat="43.41312" lon="6.13944">
        <ele>263.97186279297</ele>
        <time>2014-06-14T12:57:32Z</time>
      </trkpt>
      <trkpt lat="43.41312" lon="6.13952">
        <ele>264.30596923828</ele>
        <time>2014-06-14T12:57:34Z</time>
      </trkpt>
      <trkpt lat="43.41311" lon="6.1396">
        <ele>264.51541137695</ele>
        <time>2014-06-14T12:57:36Z</time>
      </trkpt>
      <trkpt lat="43.4131" lon="6.13974">
        <ele>265.36297607422</ele>
        <time>2014-06-14T12:57:40Z</time>
      </trkpt>
      <trkpt lat="43.4131" lon="6.13984">
        <ele>265.73889160156</ele>
        <time>2014-06-14T12:57:43Z</time>
      </trkpt>
      <trkpt lat="43.41308" lon="6.14001">
        <ele>265.78353881836</ele>
        <time>2014-06-14T12:57:48Z</time>
      </trkpt>
      <trkpt lat="43.41307" lon="6.1401">
        <ele>265.69769287109</ele>
        <time>2014-06-14T12:57:51Z</time>
      </trkpt>
      <trkpt lat="43.41303" lon="6.14038">
        <ele>266.05355834961</ele>
        <time>2014-06-14T12:58:00Z</time>
      </trkpt>
      <trkpt lat="43.41301" lon="6.14047">
        <ele>266.26220703125</ele>
        <time>2014-06-14T12:58:03Z</time>
      </trkpt>
      <trkpt lat="43.41299" lon="6.14065">
        <ele>266.44613647461</ele>
        <time>2014-06-14T12:58:09Z</time>
      </trkpt>
      <trkpt lat="43.41298" lon="6.14068">
        <ele>266.4860534668</ele>
        <time>2014-06-14T12:58:10Z</time>
      </trkpt>
      <trkpt lat="43.41297" lon="6.14074">
        <ele>266.36325073242</ele>
        <time>2014-06-14T12:58:12Z</time>
      </trkpt>
      <trkpt lat="43.41292" lon="6.14091">
        <ele>265.97793579102</ele>
        <time>2014-06-14T12:58:17Z</time>
      </trkpt>
      <trkpt lat="43.41284" lon="6.14118">
        <ele>265.24047851562</ele>
        <time>2014-06-14T12:58:23Z</time>
      </trkpt>
      <trkpt lat="43.41278" lon="6.14138">
        <ele>264.92346191406</ele>
        <time>2014-06-14T12:58:27Z</time>
      </trkpt>
      <trkpt lat="43.4127" lon="6.14162">
        <ele>264.28442382812</ele>
        <time>2014-06-14T12:58:31Z</time>
      </trkpt>
      <trkpt lat="43.41258" lon="6.14202">
        <ele>264.47595214844</ele>
        <time>2014-06-14T12:58:37Z</time>
      </trkpt>
      <trkpt lat="43.41253" lon="6.14218">
        <ele>265.07638549805</ele>
        <time>2014-06-14T12:58:39Z</time>
      </trkpt>
      <trkpt lat="43.41248" lon="6.14234">
        <ele>265.396484375</ele>
        <time>2014-06-14T12:58:41Z</time>
      </trkpt>
      <trkpt lat="43.41238" lon="6.14265">
        <ele>265.44677734375</ele>
        <time>2014-06-14T12:58:45Z</time>
      </trkpt>
      <trkpt lat="43.41236" lon="6.14272">
        <ele>265.47866821289</ele>
        <time>2014-06-14T12:58:46Z</time>
      </trkpt>
      <trkpt lat="43.4123" lon="6.14292">
        <ele>265.70553588867</ele>
        <time>2014-06-14T12:58:49Z</time>
      </trkpt>
      <trkpt lat="43.41222" lon="6.14316">
        <ele>265.98840332031</ele>
        <time>2014-06-14T12:58:53Z</time>
      </trkpt>
      <trkpt lat="43.41213" lon="6.14344">
        <ele>266.88693237305</ele>
        <time>2014-06-14T12:58:59Z</time>
      </trkpt>
      <trkpt lat="43.41201" lon="6.14381">
        <ele>269.61367797852</ele>
        <time>2014-06-14T12:59:10Z</time>
      </trkpt>
      <trkpt lat="43.41199" lon="6.14387">
        <ele>270.51675415039</ele>
        <time>2014-06-14T12:59:12Z</time>
      </trkpt>
      <trkpt lat="43.41197" lon="6.14402">
        <ele>271.81414794922</ele>
        <time>2014-06-14T12:59:18Z</time>
      </trkpt>
      <trkpt lat="43.41195" lon="6.14407">
        <ele>272.14199829102</ele>
        <time>2014-06-14T12:59:20Z</time>
      </trkpt>
      <trkpt lat="43.41193" lon="6.14425">
        <ele>274.52703857422</ele>
        <time>2014-06-14T12:59:26Z</time>
      </trkpt>
      <trkpt lat="43.41192" lon="6.14437">
        <ele>277.02093505859</ele>
        <time>2014-06-14T12:59:30Z</time>
      </trkpt>
      <trkpt lat="43.41189" lon="6.14466">
        <ele>280.28109741211</ele>
        <time>2014-06-14T12:59:40Z</time>
      </trkpt>
      <trkpt lat="43.41187" lon="6.14476">
        <ele>281.04272460938</ele>
        <time>2014-06-14T12:59:44Z</time>
      </trkpt>
      <trkpt lat="43.41185" lon="6.14498">
        <ele>282.51901245117</ele>
        <time>2014-06-14T12:59:51Z</time>
      </trkpt>
      <trkpt lat="43.41178" lon="6.14529">
        <ele>284.46664428711</ele>
        <time>2014-06-14T13:00:01Z</time>
      </trkpt>
      <trkpt lat="43.41174" lon="6.14548">
        <ele>284.98333740234</ele>
        <time>2014-06-14T13:00:06Z</time>
      </trkpt>
      <trkpt lat="43.41169" lon="6.14568">
        <ele>285.96160888672</ele>
        <time>2014-06-14T13:00:11Z</time>
      </trkpt>
      <trkpt lat="43.41161" lon="6.14597">
        <ele>287.58624267578</ele>
        <time>2014-06-14T13:00:17Z</time>
      </trkpt>
      <trkpt lat="43.41157" lon="6.14616">
        <ele>288.38989257812</ele>
        <time>2014-06-14T13:00:20Z</time>
      </trkpt>
      <trkpt lat="43.41154" lon="6.14629">
        <ele>288.43795776367</ele>
        <time>2014-06-14T13:00:22Z</time>
      </trkpt>
      <trkpt lat="43.41148" lon="6.14649">
        <ele>288.59271240234</ele>
        <time>2014-06-14T13:00:25Z</time>
      </trkpt>
      <trkpt lat="43.41146" lon="6.14656">
        <ele>288.78817749023</ele>
        <time>2014-06-14T13:00:26Z</time>
      </trkpt>
      <trkpt lat="43.4114" lon="6.14678">
        <ele>289.47872924805</ele>
        <time>2014-06-14T13:00:30Z</time>
      </trkpt>
      <trkpt lat="43.41139" lon="6.14691">
        <ele>289.88516235352</ele>
        <time>2014-06-14T13:00:32Z</time>
      </trkpt>
      <trkpt lat="43.41131" lon="6.14735">
        <ele>289.86074829102</ele>
        <time>2014-06-14T13:00:37Z</time>
      </trkpt>
      <trkpt lat="43.41129" lon="6.14753">
        <ele>288.720703125</ele>
        <time>2014-06-14T13:00:39Z</time>
      </trkpt>
      <trkpt lat="43.41129" lon="6.14762">
        <ele>288.05120849609</ele>
        <time>2014-06-14T13:00:40Z</time>
      </trkpt>
      <trkpt lat="43.41128" lon="6.14771">
        <ele>287.36456298828</ele>
        <time>2014-06-14T13:00:41Z</time>
      </trkpt>
      <trkpt lat="43.41128" lon="6.1478">
        <ele>286.77276611328</ele>
        <time>2014-06-14T13:00:42Z</time>
      </trkpt>
      <trkpt lat="43.41127" lon="6.14796">
        <ele>286.48135375977</ele>
        <time>2014-06-14T13:00:44Z</time>
      </trkpt>
      <trkpt lat="43.41127" lon="6.14804">
        <ele>286.31057739258</ele>
        <time>2014-06-14T13:00:45Z</time>
      </trkpt>
      <trkpt lat="43.41126" lon="6.1482">
        <ele>285.64804077148</ele>
        <time>2014-06-14T13:00:47Z</time>
      </trkpt>
      <trkpt lat="43.41125" lon="6.14835">
        <ele>284.97247314453</ele>
        <time>2014-06-14T13:00:49Z</time>
      </trkpt>
      <trkpt lat="43.41125" lon="6.14856">
        <ele>283.86041259766</ele>
        <time>2014-06-14T13:00:52Z</time>
      </trkpt>
      <trkpt lat="43.41125" lon="6.14874">
        <ele>282.97351074219</ele>
        <time>2014-06-14T13:00:55Z</time>
      </trkpt>
      <trkpt lat="43.41124" lon="6.1488">
        <ele>282.64218139648</ele>
        <time>2014-06-14T13:00:56Z</time>
      </trkpt>
      <trkpt lat="43.41124" lon="6.14899">
        <ele>281.82846069336</ele>
        <time>2014-06-14T13:01:01Z</time>
      </trkpt>
      <trkpt lat="43.41124" lon="6.1492">
        <ele>280.74789428711</ele>
        <time>2014-06-14T13:01:06Z</time>
      </trkpt>
      <trkpt lat="43.41124" lon="6.14949">
        <ele>279.58874511719</ele>
        <time>2014-06-14T13:01:13Z</time>
      </trkpt>
      <trkpt lat="43.41122" lon="6.14983">
        <ele>277.94918823242</ele>
        <time>2014-06-14T13:01:21Z</time>
      </trkpt>
      <trkpt lat="43.41121" lon="6.15024">
        <ele>276.53189086914</ele>
        <time>2014-06-14T13:01:30Z</time>
      </trkpt>
      <trkpt lat="43.41122" lon="6.15046">
        <ele>275.84866333008</ele>
        <time>2014-06-14T13:01:35Z</time>
      </trkpt>
      <trkpt lat="43.41122" lon="6.1505">
        <ele>275.73193359375</ele>
        <time>2014-06-14T13:01:36Z</time>
      </trkpt>
      <trkpt lat="43.41121" lon="6.15052">
        <ele>275.58602905273</ele>
        <time>2014-06-14T13:01:37Z</time>
      </trkpt>
      <trkpt lat="43.41119" lon="6.15058">
        <ele>275.12979125977</ele>
        <time>2014-06-14T13:01:40Z</time>
      </trkpt>
      <trkpt lat="43.41118" lon="6.15062">
        <ele>274.86312866211</ele>
        <time>2014-06-14T13:01:42Z</time>
      </trkpt>
      <trkpt lat="43.4112" lon="6.15064">
        <ele>275.02758789062</ele>
        <time>2014-06-14T13:01:44Z</time>
      </trkpt>
      <trkpt lat="43.41121" lon="6.15065">
        <ele>275.24844360352</ele>
        <time>2014-06-14T13:01:45Z</time>
      </trkpt>
      <trkpt lat="43.41124" lon="6.15064">
        <ele>275.68905639648</ele>
        <time>2014-06-14T13:01:47Z</time>
      </trkpt>
      <trkpt lat="43.41125" lon="6.15064">
        <ele>275.80630493164</ele>
        <time>2014-06-14T13:01:48Z</time>
      </trkpt>
      <trkpt lat="43.41127" lon="6.15064">
        <ele>276.21276855469</ele>
        <time>2014-06-14T13:01:54Z</time>
      </trkpt>
      <trkpt lat="43.41127" lon="6.15064">
        <ele>276.21276855469</ele>
        <time>2014-06-14T13:02:23Z</time>
      </trkpt>
      <trkpt lat="43.41127" lon="6.15064">
        <ele>276.21276855469</ele>
        <time>2014-06-14T13:02:26Z</time>
      </trkpt>
      <trkpt lat="43.41127" lon="6.15065">
        <ele>276.20852661133</ele>
        <time>2014-06-14T13:02:34Z</time>
      </trkpt>
      <trkpt lat="43.41131" lon="6.15067">
        <ele>276.78225708008</ele>
        <time>2014-06-14T13:02:38Z</time>
      </trkpt>
      <trkpt lat="43.41134" lon="6.15076">
        <ele>277.21160888672</ele>
        <time>2014-06-14T13:02:43Z</time>
      </trkpt>
      <trkpt lat="43.41134" lon="6.1508">
        <ele>277.11877441406</ele>
        <time>2014-06-14T13:02:45Z</time>
      </trkpt>
      <trkpt lat="43.41134" lon="6.15082">
        <ele>277.17443847656</ele>
        <time>2014-06-14T13:02:46Z</time>
      </trkpt>
      <trkpt lat="43.41133" lon="6.15088">
        <ele>276.72329711914</ele>
        <time>2014-06-14T13:02:49Z</time>
      </trkpt>
      <trkpt lat="43.41132" lon="6.15094">
        <ele>276.37139892578</ele>
        <time>2014-06-14T13:02:52Z</time>
      </trkpt>
      <trkpt lat="43.4113" lon="6.15099">
        <ele>275.84439086914</ele>
        <time>2014-06-14T13:02:55Z</time>
      </trkpt>
      <trkpt lat="43.41132" lon="6.15112">
        <ele>275.6383972168</ele>
        <time>2014-06-14T13:03:02Z</time>
      </trkpt>
      <trkpt lat="43.41131" lon="6.15114">
        <ele>275.50964355469</ele>
        <time>2014-06-14T13:03:03Z</time>
      </trkpt>
      <trkpt lat="43.41129" lon="6.15138">
        <ele>274.2239074707</ele>
        <time>2014-06-14T13:03:16Z</time>
      </trkpt>
      <trkpt lat="43.41127" lon="6.15148">
        <ele>273.47378540039</ele>
        <time>2014-06-14T13:03:21Z</time>
      </trkpt>
      <trkpt lat="43.41125" lon="6.15162">
        <ele>272.27490234375</ele>
        <time>2014-06-14T13:03:29Z</time>
      </trkpt>
      <trkpt lat="43.41123" lon="6.15169">
        <ele>271.43780517578</ele>
        <time>2014-06-14T13:03:33Z</time>
      </trkpt>
      <trkpt lat="43.41123" lon="6.15177">
        <ele>271.24725341797</ele>
        <time>2014-06-14T13:03:38Z</time>
      </trkpt>
      <trkpt lat="43.41123" lon="6.1518">
        <ele>271.13739013672</ele>
        <time>2014-06-14T13:03:40Z</time>
      </trkpt>
      <trkpt lat="43.41125" lon="6.15184">
        <ele>271.32107543945</ele>
        <time>2014-06-14T13:03:45Z</time>
      </trkpt>
      <trkpt lat="43.41125" lon="6.15184">
        <ele>271.32107543945</ele>
        <time>2014-06-14T13:03:55Z</time>
      </trkpt>
      <trkpt lat="43.41125" lon="6.15185">
        <ele>271.369140625</ele>
        <time>2014-06-14T13:04:01Z</time>
      </trkpt>
      <trkpt lat="43.41125" lon="6.15192">
        <ele>271.02581787109</ele>
        <time>2014-06-14T13:04:06Z</time>
      </trkpt>
      <trkpt lat="43.41125" lon="6.15199">
        <ele>270.87130737305</ele>
        <time>2014-06-14T13:04:09Z</time>
      </trkpt>
      <trkpt lat="43.41124" lon="6.15202">
        <ele>270.57092285156</ele>
        <time>2014-06-14T13:04:11Z</time>
      </trkpt>
      <trkpt lat="43.41124" lon="6.15205">
        <ele>270.49536132812</ele>
        <time>2014-06-14T13:04:12Z</time>
      </trkpt>
      <trkpt lat="43.41124" lon="6.15209">
        <ele>270.18124389648</ele>
        <time>2014-06-14T13:04:14Z</time>
      </trkpt>
      <trkpt lat="43.41121" lon="6.15217">
        <ele>269.38128662109</ele>
        <time>2014-06-14T13:04:18Z</time>
      </trkpt>
      <trkpt lat="43.41122" lon="6.15231">
        <ele>268.36553955078</ele>
        <time>2014-06-14T13:04:25Z</time>
      </trkpt>
      <trkpt lat="43.41123" lon="6.15235">
        <ele>268.09774780273</ele>
        <time>2014-06-14T13:04:28Z</time>
      </trkpt>
      <trkpt lat="43.41123" lon="6.15236">
        <ele>268.09259033203</ele>
        <time>2014-06-14T13:04:31Z</time>
      </trkpt>
      <trkpt lat="43.41123" lon="6.15236">
        <ele>268.09259033203</ele>
        <time>2014-06-14T13:04:40Z</time>
      </trkpt>
      <trkpt lat="43.41123" lon="6.15235">
        <ele>268.15438842773</ele>
        <time>2014-06-14T13:04:45Z</time>
      </trkpt>
      <trkpt lat="43.41122" lon="6.15228">
        <ele>268.68481445312</ele>
        <time>2014-06-14T13:04:51Z</time>
      </trkpt>
      <trkpt lat="43.41123" lon="6.15212">
        <ele>269.97180175781</ele>
        <time>2014-06-14T13:04:57Z</time>
      </trkpt>
      <trkpt lat="43.41125" lon="6.15196">
        <ele>270.97430419922</ele>
        <time>2014-06-14T13:05:04Z</time>
      </trkpt>
      <trkpt lat="43.41125" lon="6.15183">
        <ele>271.49960327148</ele>
        <time>2014-06-14T13:05:09Z</time>
      </trkpt>
      <trkpt lat="43.41125" lon="6.15168">
        <ele>272.05062866211</ele>
        <time>2014-06-14T13:05:14Z</time>
      </trkpt>
      <trkpt lat="43.41127" lon="6.15152">
        <ele>273.27233886719</ele>
        <time>2014-06-14T13:05:20Z</time>
      </trkpt>
      <trkpt lat="43.4113" lon="6.15135">
        <ele>274.56381225586</ele>
        <time>2014-06-14T13:05:26Z</time>
      </trkpt>
      <trkpt lat="43.41131" lon="6.15127">
        <ele>274.9895324707</ele>
        <time>2014-06-14T13:05:29Z</time>
      </trkpt>
      <trkpt lat="43.41131" lon="6.1512">
        <ele>275.24188232422</ele>
        <time>2014-06-14T13:05:33Z</time>
      </trkpt>
      <trkpt lat="43.41131" lon="6.15118">
        <ele>275.28649902344</ele>
        <time>2014-06-14T13:05:34Z</time>
      </trkpt>
      <trkpt lat="43.41131" lon="6.15113">
        <ele>275.46502685547</ele>
        <time>2014-06-14T13:05:37Z</time>
      </trkpt>
      <trkpt lat="43.41131" lon="6.15112">
        <ele>275.5251159668</ele>
        <time>2014-06-14T13:05:38Z</time>
      </trkpt>
      <trkpt lat="43.41132" lon="6.15098">
        <ele>276.3078918457</ele>
        <time>2014-06-14T13:05:43Z</time>
      </trkpt>
      <trkpt lat="43.41133" lon="6.15092">
        <ele>276.73016357422</ele>
        <time>2014-06-14T13:05:45Z</time>
      </trkpt>
      <trkpt lat="43.41136" lon="6.15079">
        <ele>277.45974731445</ele>
        <time>2014-06-14T13:05:50Z</time>
      </trkpt>
      <trkpt lat="43.41137" lon="6.15076">
        <ele>277.5998840332</ele>
        <time>2014-06-14T13:05:51Z</time>
      </trkpt>
      <trkpt lat="43.4114" lon="6.15064">
        <ele>278.30215454102</ele>
        <time>2014-06-14T13:05:56Z</time>
      </trkpt>
      <trkpt lat="43.41147" lon="6.15065">
        <ele>279.70513916016</ele>
        <time>2014-06-14T13:06:02Z</time>
      </trkpt>
      <trkpt lat="43.4115" lon="6.15066">
        <ele>280.2297668457</ele>
        <time>2014-06-14T13:06:04Z</time>
      </trkpt>
      <trkpt lat="43.41155" lon="6.15068">
        <ele>281.26959228516</ele>
        <time>2014-06-14T13:06:08Z</time>
      </trkpt>
      <trkpt lat="43.41163" lon="6.15071">
        <ele>282.78985595703</ele>
        <time>2014-06-14T13:06:14Z</time>
      </trkpt>
      <trkpt lat="43.41181" lon="6.15076">
        <ele>284.78134155273</ele>
        <time>2014-06-14T13:06:29Z</time>
      </trkpt>
      <trkpt lat="43.41188" lon="6.15079">
        <ele>285.43194580078</ele>
        <time>2014-06-14T13:06:36Z</time>
      </trkpt>
      <trkpt lat="43.41195" lon="6.1508">
        <ele>286.13726806641</ele>
        <time>2014-06-14T13:06:42Z</time>
      </trkpt>
      <trkpt lat="43.41203" lon="6.15081">
        <ele>287.25820922852</ele>
        <time>2014-06-14T13:06:49Z</time>
      </trkpt>
      <trkpt lat="43.4121" lon="6.15083">
        <ele>288.23153686523</ele>
        <time>2014-06-14T13:06:57Z</time>
      </trkpt>
      <trkpt lat="43.41215" lon="6.15083">
        <ele>288.92846679688</ele>
        <time>2014-06-14T13:07:02Z</time>
      </trkpt>
      <trkpt lat="43.41217" lon="6.15085">
        <ele>289.30065917969</ele>
        <time>2014-06-14T13:07:05Z</time>
      </trkpt>
      <trkpt lat="43.41219" lon="6.15085">
        <ele>289.46603393555</ele>
        <time>2014-06-14T13:07:06Z</time>
      </trkpt>
      <trkpt lat="43.41224" lon="6.15086">
        <ele>290.60089111328</ele>
        <time>2014-06-14T13:07:12Z</time>
      </trkpt>
      <trkpt lat="43.41225" lon="6.15087">
        <ele>290.8708190918</ele>
        <time>2014-06-14T13:07:13Z</time>
      </trkpt>
      <trkpt lat="43.41225" lon="6.15086">
        <ele>291.0087890625</ele>
        <time>2014-06-14T13:07:15Z</time>
      </trkpt>
      <trkpt lat="43.41225" lon="6.15086">
        <ele>291.0080871582</ele>
        <time>2014-06-14T13:07:18Z</time>
      </trkpt>
      <trkpt lat="43.41225" lon="6.15086">
        <ele>291.0080871582</ele>
        <time>2014-06-14T13:07:27Z</time>
      </trkpt>
      <trkpt lat="43.41225" lon="6.15086">
        <ele>291.0080871582</ele>
        <time>2014-06-14T13:07:33Z</time>
      </trkpt>
      <trkpt lat="43.41225" lon="6.15087">
        <ele>291.14260864258</ele>
        <time>2014-06-14T13:07:35Z</time>
      </trkpt>
      <trkpt lat="43.4123" lon="6.15087">
        <ele>292.76373291016</ele>
        <time>2014-06-14T13:07:44Z</time>
      </trkpt>
      <trkpt lat="43.41231" lon="6.15087">
        <ele>293.17034912109</ele>
        <time>2014-06-14T13:07:46Z</time>
      </trkpt>
      <trkpt lat="43.41233" lon="6.15086">
        <ele>293.9958190918</ele>
        <time>2014-06-14T13:07:49Z</time>
      </trkpt>
      <trkpt lat="43.41238" lon="6.15084">
        <ele>295.53570556641</ele>
        <time>2014-06-14T13:07:57Z</time>
      </trkpt>
      <trkpt lat="43.41238" lon="6.15084">
        <ele>295.53759765625</ele>
        <time>2014-06-14T13:08:04Z</time>
      </trkpt>
      <trkpt lat="43.41242" lon="6.15086">
        <ele>296.99380493164</ele>
        <time>2014-06-14T13:08:10Z</time>
      </trkpt>
      <trkpt lat="43.41248" lon="6.15086">
        <ele>299.29321289062</ele>
        <time>2014-06-14T13:08:15Z</time>
      </trkpt>
      <trkpt lat="43.41252" lon="6.15087">
        <ele>300.06665039062</ele>
        <time>2014-06-14T13:08:18Z</time>
      </trkpt>
      <trkpt lat="43.41254" lon="6.15087">
        <ele>300.33959960938</ele>
        <time>2014-06-14T13:08:20Z</time>
      </trkpt>
      <trkpt lat="43.41258" lon="6.15089">
        <ele>300.70352172852</ele>
        <time>2014-06-14T13:08:23Z</time>
      </trkpt>
      <trkpt lat="43.41269" lon="6.15088">
        <ele>301.90686035156</ele>
        <time>2014-06-14T13:08:34Z</time>
      </trkpt>
      <trkpt lat="43.41275" lon="6.15089">
        <ele>302.51626586914</ele>
        <time>2014-06-14T13:08:39Z</time>
      </trkpt>
      <trkpt lat="43.41282" lon="6.15086">
        <ele>303.5022277832</ele>
        <time>2014-06-14T13:08:45Z</time>
      </trkpt>
      <trkpt lat="43.41293" lon="6.15084">
        <ele>305.12026977539</ele>
        <time>2014-06-14T13:08:54Z</time>
      </trkpt>
      <trkpt lat="43.413" lon="6.15079">
        <ele>306.22900390625</ele>
        <time>2014-06-14T13:09:01Z</time>
      </trkpt>
      <trkpt lat="43.41303" lon="6.15077">
        <ele>306.61352539062</ele>
        <time>2014-06-14T13:09:04Z</time>
      </trkpt>
      <trkpt lat="43.41316" lon="6.15077">
        <ele>308.5361328125</ele>
        <time>2014-06-14T13:09:19Z</time>
      </trkpt>
      <trkpt lat="43.4132" lon="6.15079">
        <ele>309.08544921875</ele>
        <time>2014-06-14T13:09:24Z</time>
      </trkpt>
      <trkpt lat="43.41323" lon="6.1508">
        <ele>309.46997070312</ele>
        <time>2014-06-14T13:09:28Z</time>
      </trkpt>
      <trkpt lat="43.41327" lon="6.15082">
        <ele>310.07421875</ele>
        <time>2014-06-14T13:09:33Z</time>
      </trkpt>
      <trkpt lat="43.4133" lon="6.15082">
        <ele>310.56860351562</ele>
        <time>2014-06-14T13:09:37Z</time>
      </trkpt>
      <trkpt lat="43.41333" lon="6.15081">
        <ele>310.89819335938</ele>
        <time>2014-06-14T13:09:39Z</time>
      </trkpt>
      <trkpt lat="43.41334" lon="6.15082">
        <ele>310.91156005859</ele>
        <time>2014-06-14T13:09:41Z</time>
      </trkpt>
      <trkpt lat="43.4134" lon="6.15084">
        <ele>310.30877685547</ele>
        <time>2014-06-14T13:09:46Z</time>
      </trkpt>
      <trkpt lat="43.41341" lon="6.15085">
        <ele>310.16479492188</ele>
        <time>2014-06-14T13:09:47Z</time>
      </trkpt>
      <trkpt lat="43.41351" lon="6.15091">
        <ele>309.15539550781</ele>
        <time>2014-06-14T13:09:51Z</time>
      </trkpt>
      <trkpt lat="43.41356" lon="6.15096">
        <ele>308.65139770508</ele>
        <time>2014-06-14T13:09:53Z</time>
      </trkpt>
      <trkpt lat="43.41362" lon="6.15106">
        <ele>307.41439819336</ele>
        <time>2014-06-14T13:09:55Z</time>
      </trkpt>
      <trkpt lat="43.41366" lon="6.15111">
        <ele>305.62261962891</ele>
        <time>2014-06-14T13:09:56Z</time>
      </trkpt>
      <trkpt lat="43.41381" lon="6.15135">
        <ele>296.5378112793</ele>
        <time>2014-06-14T13:10:00Z</time>
      </trkpt>
      <trkpt lat="43.41389" lon="6.15147">
        <ele>291.52282714844</ele>
        <time>2014-06-14T13:10:02Z</time>
      </trkpt>
      <trkpt lat="43.41393" lon="6.15152">
        <ele>289.73773193359</ele>
        <time>2014-06-14T13:10:03Z</time>
      </trkpt>
      <trkpt lat="43.41396" lon="6.15158">
        <ele>287.95587158203</ele>
        <time>2014-06-14T13:10:04Z</time>
      </trkpt>
      <trkpt lat="43.41404" lon="6.15169">
        <ele>284.49682617188</ele>
        <time>2014-06-14T13:10:06Z</time>
      </trkpt>
      <trkpt lat="43.41412" lon="6.15178">
        <ele>281.41720581055</ele>
        <time>2014-06-14T13:10:08Z</time>
      </trkpt>
      <trkpt lat="43.41422" lon="6.15195">
        <ele>277.87170410156</ele>
        <time>2014-06-14T13:10:11Z</time>
      </trkpt>
      <trkpt lat="43.41426" lon="6.15201">
        <ele>276.96533203125</ele>
        <time>2014-06-14T13:10:12Z</time>
      </trkpt>
      <trkpt lat="43.41438" lon="6.15216">
        <ele>274.41101074219</ele>
        <time>2014-06-14T13:10:15Z</time>
      </trkpt>
      <trkpt lat="43.41446" lon="6.15226">
        <ele>272.97622680664</ele>
        <time>2014-06-14T13:10:17Z</time>
      </trkpt>
      <trkpt lat="43.41449" lon="6.15231">
        <ele>272.28790283203</ele>
        <time>2014-06-14T13:10:18Z</time>
      </trkpt>
      <trkpt lat="43.41465" lon="6.15247">
        <ele>270.15521240234</ele>
        <time>2014-06-14T13:10:22Z</time>
      </trkpt>
      <trkpt lat="43.41472" lon="6.15256">
        <ele>269.54177856445</ele>
        <time>2014-06-14T13:10:24Z</time>
      </trkpt>
      <trkpt lat="43.41477" lon="6.15261">
        <ele>268.94561767578</ele>
        <time>2014-06-14T13:10:26Z</time>
      </trkpt>
      <trkpt lat="43.41478" lon="6.15263">
        <ele>268.80487060547</ele>
        <time>2014-06-14T13:10:27Z</time>
      </trkpt>
      <trkpt lat="43.41482" lon="6.15267">
        <ele>268.53021240234</ele>
        <time>2014-06-14T13:10:29Z</time>
      </trkpt>
      <trkpt lat="43.41483" lon="6.15269">
        <ele>268.4375</ele>
        <time>2014-06-14T13:10:30Z</time>
      </trkpt>
      <trkpt lat="43.41484" lon="6.15269">
        <ele>268.16973876953</ele>
        <time>2014-06-14T13:10:31Z</time>
      </trkpt>
      <trkpt lat="43.41487" lon="6.1527">
        <ele>267.81610107422</ele>
        <time>2014-06-14T13:10:32Z</time>
      </trkpt>
      <trkpt lat="43.41489" lon="6.15271">
        <ele>267.41098022461</ele>
        <time>2014-06-14T13:10:33Z</time>
      </trkpt>
      <trkpt lat="43.41492" lon="6.15272">
        <ele>266.98181152344</ele>
        <time>2014-06-14T13:10:34Z</time>
      </trkpt>
      <trkpt lat="43.41495" lon="6.15271">
        <ele>266.49087524414</ele>
        <time>2014-06-14T13:10:35Z</time>
      </trkpt>
      <trkpt lat="43.41497" lon="6.15272">
        <ele>266.08233642578</ele>
        <time>2014-06-14T13:10:36Z</time>
      </trkpt>
      <trkpt lat="43.415" lon="6.15272">
        <ele>265.62915039062</ele>
        <time>2014-06-14T13:10:37Z</time>
      </trkpt>
      <trkpt lat="43.41502" lon="6.15273">
        <ele>265.26473999023</ele>
        <time>2014-06-14T13:10:38Z</time>
      </trkpt>
      <trkpt lat="43.41504" lon="6.15273">
        <ele>264.78060913086</ele>
        <time>2014-06-14T13:10:39Z</time>
      </trkpt>
      <trkpt lat="43.41512" lon="6.15267">
        <ele>262.46179199219</ele>
        <time>2014-06-14T13:10:43Z</time>
      </trkpt>
      <trkpt lat="43.41513" lon="6.15266">
        <ele>262.0251159668</ele>
        <time>2014-06-14T13:10:44Z</time>
      </trkpt>
      <trkpt lat="43.41516" lon="6.15265">
        <ele>261.41149902344</ele>
        <time>2014-06-14T13:10:45Z</time>
      </trkpt>
      <trkpt lat="43.41529" lon="6.15278">
        <ele>259.49520874023</ele>
        <time>2014-06-14T13:10:50Z</time>
      </trkpt>
      <trkpt lat="43.41535" lon="6.1528">
        <ele>257.18951416016</ele>
        <time>2014-06-14T13:10:52Z</time>
      </trkpt>
      <trkpt lat="43.41537" lon="6.15281">
        <ele>256.45465087891</ele>
        <time>2014-06-14T13:10:53Z</time>
      </trkpt>
      <trkpt lat="43.41539" lon="6.15281">
        <ele>255.69467163086</ele>
        <time>2014-06-14T13:10:54Z</time>
      </trkpt>
      <trkpt lat="43.41541" lon="6.1528">
        <ele>255.07333374023</ele>
        <time>2014-06-14T13:10:55Z</time>
      </trkpt>
      <trkpt lat="43.41544" lon="6.15279">
        <ele>253.64262390137</ele>
        <time>2014-06-14T13:10:57Z</time>
      </trkpt>
      <trkpt lat="43.41545" lon="6.15278">
        <ele>253.00923156738</ele>
        <time>2014-06-14T13:10:58Z</time>
      </trkpt>
      <trkpt lat="43.41548" lon="6.15278">
        <ele>252.09214782715</ele>
        <time>2014-06-14T13:10:59Z</time>
      </trkpt>
      <trkpt lat="43.4155" lon="6.15278">
        <ele>251.35263061523</ele>
        <time>2014-06-14T13:11:00Z</time>
      </trkpt>
      <trkpt lat="43.41552" lon="6.15278">
        <ele>250.44108581543</ele>
        <time>2014-06-14T13:11:01Z</time>
      </trkpt>
      <trkpt lat="43.41555" lon="6.15278">
        <ele>249.38139343262</ele>
        <time>2014-06-14T13:11:02Z</time>
      </trkpt>
      <trkpt lat="43.41557" lon="6.15277">
        <ele>248.7214050293</ele>
        <time>2014-06-14T13:11:03Z</time>
      </trkpt>
      <trkpt lat="43.41558" lon="6.15277">
        <ele>248.43988037109</ele>
        <time>2014-06-14T13:11:04Z</time>
      </trkpt>
      <trkpt lat="43.4156" lon="6.15279">
        <ele>247.94206237793</ele>
        <time>2014-06-14T13:11:06Z</time>
      </trkpt>
      <trkpt lat="43.41563" lon="6.1528">
        <ele>247.15585327148</ele>
        <time>2014-06-14T13:11:08Z</time>
      </trkpt>
      <trkpt lat="43.41566" lon="6.1528">
        <ele>246.61683654785</ele>
        <time>2014-06-14T13:11:09Z</time>
      </trkpt>
      <trkpt lat="43.4157" lon="6.15279">
        <ele>245.4083404541</ele>
        <time>2014-06-14T13:11:11Z</time>
      </trkpt>
      <trkpt lat="43.41576" lon="6.15278">
        <ele>243.75695800781</ele>
        <time>2014-06-14T13:11:13Z</time>
      </trkpt>
      <trkpt lat="43.41579" lon="6.15277">
        <ele>243.1321105957</ele>
        <time>2014-06-14T13:11:14Z</time>
      </trkpt>
      <trkpt lat="43.41581" lon="6.15276">
        <ele>242.4900970459</ele>
        <time>2014-06-14T13:11:15Z</time>
      </trkpt>
      <trkpt lat="43.41586" lon="6.15276">
        <ele>241.75187683106</ele>
        <time>2014-06-14T13:11:17Z</time>
      </trkpt>
      <trkpt lat="43.4159" lon="6.15278">
        <ele>241.54891967773</ele>
        <time>2014-06-14T13:11:19Z</time>
      </trkpt>
      <trkpt lat="43.41592" lon="6.15278">
        <ele>241.39144897461</ele>
        <time>2014-06-14T13:11:20Z</time>
      </trkpt>
      <trkpt lat="43.41592" lon="6.15277">
        <ele>241.35946655273</ele>
        <time>2014-06-14T13:11:21Z</time>
      </trkpt>
      <trkpt lat="43.41592" lon="6.15277">
        <ele>241.30917358398</ele>
        <time>2014-06-14T13:11:22Z</time>
      </trkpt>
      <trkpt lat="43.41592" lon="6.15277">
        <ele>241.30917358398</ele>
        <time>2014-06-14T13:11:40Z</time>
      </trkpt>
      <trkpt lat="43.41592" lon="6.15277">
        <ele>241.30917358398</ele>
        <time>2014-06-14T13:11:56Z</time>
      </trkpt>
      <trkpt lat="43.41593" lon="6.15277">
        <ele>241.25355529785</ele>
        <time>2014-06-14T13:12:03Z</time>
      </trkpt>
      <trkpt lat="43.41593" lon="6.15277">
        <ele>241.25355529785</ele>
        <time>2014-06-14T13:12:32Z</time>
      </trkpt>
      <trkpt lat="43.41593" lon="6.15277">
        <ele>241.24468994141</ele>
        <time>2014-06-14T13:12:44Z</time>
      </trkpt>
      <trkpt lat="43.41593" lon="6.15277">
        <ele>241.24468994141</ele>
        <time>2014-06-14T13:13:03Z</time>
      </trkpt>
      <trkpt lat="43.41594" lon="6.15274">
        <ele>241.05375671387</ele>
        <time>2014-06-14T13:13:08Z</time>
      </trkpt>
      <trkpt lat="43.41594" lon="6.15261">
        <ele>240.48229980469</ele>
        <time>2014-06-14T13:13:13Z</time>
      </trkpt>
      <trkpt lat="43.41592" lon="6.15248">
        <ele>240</ele>
        <time>2014-06-14T13:13:17Z</time>
      </trkpt>
      <trkpt lat="43.41589" lon="6.15222">
        <ele>240</ele>
        <time>2014-06-14T13:13:23Z</time>
      </trkpt>
      <trkpt lat="43.41586" lon="6.15195">
        <ele>240</ele>
        <time>2014-06-14T13:13:28Z</time>
      </trkpt>
      <trkpt lat="43.41592" lon="6.15183">
        <ele>240</ele>
        <time>2014-06-14T13:13:31Z</time>
      </trkpt>
      <trkpt lat="43.41598" lon="6.15176">
        <ele>240</ele>
        <time>2014-06-14T13:13:33Z</time>
      </trkpt>
      <trkpt lat="43.41604" lon="6.15162">
        <ele>240</ele>
        <time>2014-06-14T13:13:36Z</time>
      </trkpt>
      <trkpt lat="43.41608" lon="6.15139">
        <ele>240</ele>
        <time>2014-06-14T13:13:40Z</time>
      </trkpt>
      <trkpt lat="43.41607" lon="6.15128">
        <ele>240</ele>
        <time>2014-06-14T13:13:42Z</time>
      </trkpt>
      <trkpt lat="43.41607" lon="6.15116">
        <ele>240</ele>
        <time>2014-06-14T13:13:44Z</time>
      </trkpt>
      <trkpt lat="43.41605" lon="6.15105">
        <ele>240</ele>
        <time>2014-06-14T13:13:46Z</time>
      </trkpt>
      <trkpt lat="43.41602" lon="6.15095">
        <ele>240</ele>
        <time>2014-06-14T13:13:48Z</time>
      </trkpt>
      <trkpt lat="43.416" lon="6.15086">
        <ele>240</ele>
        <time>2014-06-14T13:13:50Z</time>
      </trkpt>
      <trkpt lat="43.416" lon="6.15081">
        <ele>240</ele>
        <time>2014-06-14T13:13:51Z</time>
      </trkpt>
      <trkpt lat="43.416" lon="6.15072">
        <ele>240</ele>
        <time>2014-06-14T13:13:54Z</time>
      </trkpt>
      <trkpt lat="43.416" lon="6.15071">
        <ele>240</ele>
        <time>2014-06-14T13:13:55Z</time>
      </trkpt>
      <trkpt lat="43.416" lon="6.1507">
        <ele>240</ele>
        <time>2014-06-14T13:13:58Z</time>
      </trkpt>
      <trkpt lat="43.41598" lon="6.15063">
        <ele>240</ele>
        <time>2014-06-14T13:14:00Z</time>
      </trkpt>
      <trkpt lat="43.41592" lon="6.15056">
        <ele>240</ele>
        <time>2014-06-14T13:14:03Z</time>
      </trkpt>
      <trkpt lat="43.4159" lon="6.15054">
        <ele>240</ele>
        <time>2014-06-14T13:14:04Z</time>
      </trkpt>
      <trkpt lat="43.41578" lon="6.1504">
        <ele>240</ele>
        <time>2014-06-14T13:14:08Z</time>
      </trkpt>
      <trkpt lat="43.41573" lon="6.15038">
        <ele>240</ele>
        <time>2014-06-14T13:14:09Z</time>
      </trkpt>
      <trkpt lat="43.41563" lon="6.15028">
        <ele>240</ele>
        <time>2014-06-14T13:14:12Z</time>
      </trkpt>
      <trkpt lat="43.41556" lon="6.1502">
        <ele>240</ele>
        <time>2014-06-14T13:14:14Z</time>
      </trkpt>
      <trkpt lat="43.41548" lon="6.1501">
        <ele>241.96063232422</ele>
        <time>2014-06-14T13:14:17Z</time>
      </trkpt>
      <trkpt lat="43.41543" lon="6.14993">
        <ele>243.11419677734</ele>
        <time>2014-06-14T13:14:22Z</time>
      </trkpt>
      <trkpt lat="43.41542" lon="6.1498">
        <ele>243.49871826172</ele>
        <time>2014-06-14T13:14:25Z</time>
      </trkpt>
      <trkpt lat="43.41541" lon="6.14976">
        <ele>243.59484863281</ele>
        <time>2014-06-14T13:14:26Z</time>
      </trkpt>
      <trkpt lat="43.41539" lon="6.14969">
        <ele>244.33187866211</ele>
        <time>2014-06-14T13:14:28Z</time>
      </trkpt>
      <trkpt lat="43.41535" lon="6.14964">
        <ele>245.44995117188</ele>
        <time>2014-06-14T13:14:30Z</time>
      </trkpt>
      <trkpt lat="43.41533" lon="6.14962">
        <ele>246.00831604004</ele>
        <time>2014-06-14T13:14:31Z</time>
      </trkpt>
      <trkpt lat="43.41531" lon="6.14953">
        <ele>246.89430236816</ele>
        <time>2014-06-14T13:14:34Z</time>
      </trkpt>
      <trkpt lat="43.41531" lon="6.1493">
        <ele>246.71173095703</ele>
        <time>2014-06-14T13:14:40Z</time>
      </trkpt>
      <trkpt lat="43.41531" lon="6.14915">
        <ele>246.12483215332</ele>
        <time>2014-06-14T13:14:44Z</time>
      </trkpt>
      <trkpt lat="43.4153" lon="6.14899">
        <ele>245.87791442871</ele>
        <time>2014-06-14T13:14:49Z</time>
      </trkpt>
      <trkpt lat="43.41529" lon="6.14885">
        <ele>245.71801757812</ele>
        <time>2014-06-14T13:14:54Z</time>
      </trkpt>
      <trkpt lat="43.4153" lon="6.14876">
        <ele>245.55322265625</ele>
        <time>2014-06-14T13:14:57Z</time>
      </trkpt>
      <trkpt lat="43.41531" lon="6.14869">
        <ele>245.38842773438</ele>
        <time>2014-06-14T13:14:59Z</time>
      </trkpt>
      <trkpt lat="43.41534" lon="6.14858">
        <ele>244.72407531738</ele>
        <time>2014-06-14T13:15:03Z</time>
      </trkpt>
      <trkpt lat="43.41537" lon="6.1484">
        <ele>244.49317932129</ele>
        <time>2014-06-14T13:15:09Z</time>
      </trkpt>
      <trkpt lat="43.41544" lon="6.14823">
        <ele>243.01806640625</ele>
        <time>2014-06-14T13:15:13Z</time>
      </trkpt>
      <trkpt lat="43.41552" lon="6.14808">
        <ele>240.99932861328</ele>
        <time>2014-06-14T13:15:16Z</time>
      </trkpt>
      <trkpt lat="43.41557" lon="6.14796">
        <ele>240</ele>
        <time>2014-06-14T13:15:18Z</time>
      </trkpt>
      <trkpt lat="43.41562" lon="6.14783">
        <ele>240</ele>
        <time>2014-06-14T13:15:20Z</time>
      </trkpt>
      <trkpt lat="43.41566" lon="6.14776">
        <ele>240</ele>
        <time>2014-06-14T13:15:21Z</time>
      </trkpt>
      <trkpt lat="43.41569" lon="6.14769">
        <ele>240</ele>
        <time>2014-06-14T13:15:22Z</time>
      </trkpt>
      <trkpt lat="43.41573" lon="6.14752">
        <ele>240</ele>
        <time>2014-06-14T13:15:24Z</time>
      </trkpt>
      <trkpt lat="43.41572" lon="6.14744">
        <ele>240</ele>
        <time>2014-06-14T13:15:25Z</time>
      </trkpt>
      <trkpt lat="43.41572" lon="6.14736">
        <ele>240</ele>
        <time>2014-06-14T13:15:26Z</time>
      </trkpt>
      <trkpt lat="43.41571" lon="6.14728">
        <ele>240</ele>
        <time>2014-06-14T13:15:27Z</time>
      </trkpt>
      <trkpt lat="43.41571" lon="6.14721">
        <ele>240</ele>
        <time>2014-06-14T13:15:28Z</time>
      </trkpt>
      <trkpt lat="43.41568" lon="6.14704">
        <ele>240</ele>
        <time>2014-06-14T13:15:30Z</time>
      </trkpt>
      <trkpt lat="43.4156" lon="6.14676">
        <ele>240</ele>
        <time>2014-06-14T13:15:34Z</time>
      </trkpt>
      <trkpt lat="43.41557" lon="6.14672">
        <ele>240</ele>
        <time>2014-06-14T13:15:35Z</time>
      </trkpt>
      <trkpt lat="43.41545" lon="6.14645">
        <ele>242.89990234375</ele>
        <time>2014-06-14T13:15:41Z</time>
      </trkpt>
      <trkpt lat="43.41542" lon="6.14634">
        <ele>243.77880859375</ele>
        <time>2014-06-14T13:15:43Z</time>
      </trkpt>
      <trkpt lat="43.41542" lon="6.14615">
        <ele>243.99853515625</ele>
        <time>2014-06-14T13:15:46Z</time>
      </trkpt>
      <trkpt lat="43.41541" lon="6.1458">
        <ele>243.10334777832</ele>
        <time>2014-06-14T13:15:51Z</time>
      </trkpt>
      <trkpt lat="43.41542" lon="6.14573">
        <ele>242.81300354004</ele>
        <time>2014-06-14T13:15:52Z</time>
      </trkpt>
      <trkpt lat="43.41544" lon="6.1455">
        <ele>241.97055053711</ele>
        <time>2014-06-14T13:15:55Z</time>
      </trkpt>
      <trkpt lat="43.41544" lon="6.14532">
        <ele>241.3391418457</ele>
        <time>2014-06-14T13:15:57Z</time>
      </trkpt>
      <trkpt lat="43.41545" lon="6.14516">
        <ele>240.96812438965</ele>
        <time>2014-06-14T13:15:59Z</time>
      </trkpt>
      <trkpt lat="43.41546" lon="6.14498">
        <ele>240.62744140625</ele>
        <time>2014-06-14T13:16:01Z</time>
      </trkpt>
      <trkpt lat="43.41546" lon="6.14479">
        <ele>240.15864562988</ele>
        <time>2014-06-14T13:16:03Z</time>
      </trkpt>
      <trkpt lat="43.41542" lon="6.14453">
        <ele>240</ele>
        <time>2014-06-14T13:16:06Z</time>
      </trkpt>
      <trkpt lat="43.41544" lon="6.14446">
        <ele>240</ele>
        <time>2014-06-14T13:16:07Z</time>
      </trkpt>
      <trkpt lat="43.41547" lon="6.14431">
        <ele>239.66960144043</ele>
        <time>2014-06-14T13:16:09Z</time>
      </trkpt>
      <trkpt lat="43.4155" lon="6.14422">
        <ele>239.33467102051</ele>
        <time>2014-06-14T13:16:10Z</time>
      </trkpt>
      <trkpt lat="43.41557" lon="6.14395">
        <ele>239</ele>
        <time>2014-06-14T13:16:13Z</time>
      </trkpt>
      <trkpt lat="43.41562" lon="6.14368">
        <ele>239</ele>
        <time>2014-06-14T13:16:16Z</time>
      </trkpt>
      <trkpt lat="43.41563" lon="6.14359">
        <ele>239</ele>
        <time>2014-06-14T13:16:17Z</time>
      </trkpt>
      <trkpt lat="43.41565" lon="6.14351">
        <ele>239</ele>
        <time>2014-06-14T13:16:18Z</time>
      </trkpt>
      <trkpt lat="43.41566" lon="6.14343">
        <ele>239</ele>
        <time>2014-06-14T13:16:19Z</time>
      </trkpt>
      <trkpt lat="43.41571" lon="6.14319">
        <ele>239</ele>
        <time>2014-06-14T13:16:22Z</time>
      </trkpt>
      <trkpt lat="43.41573" lon="6.14304">
        <ele>239</ele>
        <time>2014-06-14T13:16:24Z</time>
      </trkpt>
      <trkpt lat="43.41574" lon="6.14297">
        <ele>239</ele>
        <time>2014-06-14T13:16:25Z</time>
      </trkpt>
      <trkpt lat="43.41575" lon="6.14285">
        <ele>239</ele>
        <time>2014-06-14T13:16:27Z</time>
      </trkpt>
      <trkpt lat="43.41576" lon="6.14275">
        <ele>239</ele>
        <time>2014-06-14T13:16:29Z</time>
      </trkpt>
      <trkpt lat="43.41577" lon="6.14271">
        <ele>239</ele>
        <time>2014-06-14T13:16:30Z</time>
      </trkpt>
      <trkpt lat="43.41578" lon="6.1427">
        <ele>239</ele>
        <time>2014-06-14T13:16:31Z</time>
      </trkpt>
      <trkpt lat="43.41579" lon="6.14268">
        <ele>239</ele>
        <time>2014-06-14T13:16:33Z</time>
      </trkpt>
      <trkpt lat="43.4158" lon="6.1426">
        <ele>239</ele>
        <time>2014-06-14T13:16:40Z</time>
      </trkpt>
      <trkpt lat="43.41584" lon="6.14249">
        <ele>238.99951171875</ele>
        <time>2014-06-14T13:16:42Z</time>
      </trkpt>
      <trkpt lat="43.41585" lon="6.14243">
        <ele>238.98226928711</ele>
        <time>2014-06-14T13:16:43Z</time>
      </trkpt>
      <trkpt lat="43.41589" lon="6.14217">
        <ele>238.81066894531</ele>
        <time>2014-06-14T13:16:47Z</time>
      </trkpt>
      <trkpt lat="43.41586" lon="6.14205">
        <ele>238.89306640625</ele>
        <time>2014-06-14T13:16:49Z</time>
      </trkpt>
      <trkpt lat="43.41583" lon="6.14188">
        <ele>239.01307678223</ele>
        <time>2014-06-14T13:16:52Z</time>
      </trkpt>
      <trkpt lat="43.4158" lon="6.14164">
        <ele>239.71821594238</ele>
        <time>2014-06-14T13:16:56Z</time>
      </trkpt>
      <trkpt lat="43.41581" lon="6.14158">
        <ele>239.72328186035</ele>
        <time>2014-06-14T13:16:57Z</time>
      </trkpt>
      <trkpt lat="43.41581" lon="6.14134">
        <ele>239.91194152832</ele>
        <time>2014-06-14T13:17:01Z</time>
      </trkpt>
      <trkpt lat="43.41582" lon="6.14113">
        <ele>240.69064331055</ele>
        <time>2014-06-14T13:17:05Z</time>
      </trkpt>
      <trkpt lat="43.41587" lon="6.14097">
        <ele>243.66128540039</ele>
        <time>2014-06-14T13:17:08Z</time>
      </trkpt>
      <trkpt lat="43.41591" lon="6.14092">
        <ele>244.04689025879</ele>
        <time>2014-06-14T13:17:09Z</time>
      </trkpt>
      <trkpt lat="43.41606" lon="6.14071">
        <ele>242.16967773438</ele>
        <time>2014-06-14T13:17:13Z</time>
      </trkpt>
      <trkpt lat="43.41611" lon="6.14068">
        <ele>240.70347595215</ele>
        <time>2014-06-14T13:17:14Z</time>
      </trkpt>
      <trkpt lat="43.41626" lon="6.14051">
        <ele>240.70913696289</ele>
        <time>2014-06-14T13:17:17Z</time>
      </trkpt>
      <trkpt lat="43.41631" lon="6.14044">
        <ele>240.62826538086</ele>
        <time>2014-06-14T13:17:18Z</time>
      </trkpt>
      <trkpt lat="43.41636" lon="6.14037">
        <ele>240.15930175781</ele>
        <time>2014-06-14T13:17:19Z</time>
      </trkpt>
      <trkpt lat="43.41645" lon="6.14024">
        <ele>239.63673400879</ele>
        <time>2014-06-14T13:17:21Z</time>
      </trkpt>
      <trkpt lat="43.41657" lon="6.14004">
        <ele>239.6063079834</ele>
        <time>2014-06-14T13:17:24Z</time>
      </trkpt>
      <trkpt lat="43.41669" lon="6.13987">
        <ele>239.62680053711</ele>
        <time>2014-06-14T13:17:27Z</time>
      </trkpt>
      <trkpt lat="43.41673" lon="6.1398">
        <ele>240.01765441894</ele>
        <time>2014-06-14T13:17:28Z</time>
      </trkpt>
      <trkpt lat="43.41677" lon="6.13974">
        <ele>240.10021972656</ele>
        <time>2014-06-14T13:17:29Z</time>
      </trkpt>
      <trkpt lat="43.41693" lon="6.13965">
        <ele>237.26358032227</ele>
        <time>2014-06-14T13:17:32Z</time>
      </trkpt>
      <trkpt lat="43.41715" lon="6.1393">
        <ele>234.02082824707</ele>
        <time>2014-06-14T13:17:38Z</time>
      </trkpt>
      <trkpt lat="43.41726" lon="6.13917">
        <ele>231.94982910156</ele>
        <time>2014-06-14T13:17:41Z</time>
      </trkpt>
      <trkpt lat="43.41738" lon="6.13903">
        <ele>230.20268249512</ele>
        <time>2014-06-14T13:17:44Z</time>
      </trkpt>
      <trkpt lat="43.41741" lon="6.13897">
        <ele>229.8761138916</ele>
        <time>2014-06-14T13:17:45Z</time>
      </trkpt>
      <trkpt lat="43.41744" lon="6.1389">
        <ele>229.64939880371</ele>
        <time>2014-06-14T13:17:46Z</time>
      </trkpt>
      <trkpt lat="43.4175" lon="6.1387">
        <ele>229.87788391113</ele>
        <time>2014-06-14T13:17:49Z</time>
      </trkpt>
      <trkpt lat="43.41755" lon="6.13861">
        <ele>229.19490051269</ele>
        <time>2014-06-14T13:17:51Z</time>
      </trkpt>
      <trkpt lat="43.41759" lon="6.13845">
        <ele>228.16229248047</ele>
        <time>2014-06-14T13:17:54Z</time>
      </trkpt>
      <trkpt lat="43.41764" lon="6.13829">
        <ele>226.79951477051</ele>
        <time>2014-06-14T13:17:57Z</time>
      </trkpt>
      <trkpt lat="43.4177" lon="6.13805">
        <ele>227.35763549805</ele>
        <time>2014-06-14T13:18:01Z</time>
      </trkpt>
      <trkpt lat="43.41775" lon="6.13788">
        <ele>227.6872253418</ele>
        <time>2014-06-14T13:18:04Z</time>
      </trkpt>
      <trkpt lat="43.41779" lon="6.13776">
        <ele>227.81622314453</ele>
        <time>2014-06-14T13:18:06Z</time>
      </trkpt>
      <trkpt lat="43.41795" lon="6.13764">
        <ele>223.62826538086</ele>
        <time>2014-06-14T13:18:10Z</time>
      </trkpt>
      <trkpt lat="43.41798" lon="6.13751">
        <ele>223.11541748047</ele>
        <time>2014-06-14T13:18:12Z</time>
      </trkpt>
      <trkpt lat="43.418" lon="6.13736">
        <ele>222.70698547363</ele>
        <time>2014-06-14T13:18:14Z</time>
      </trkpt>
      <trkpt lat="43.41802" lon="6.13721">
        <ele>222.02729797363</ele>
        <time>2014-06-14T13:18:16Z</time>
      </trkpt>
      <trkpt lat="43.41804" lon="6.13706">
        <ele>223.23008728027</ele>
        <time>2014-06-14T13:18:18Z</time>
      </trkpt>
      <trkpt lat="43.41808" lon="6.13676">
        <ele>223.65698242188</ele>
        <time>2014-06-14T13:18:22Z</time>
      </trkpt>
      <trkpt lat="43.41811" lon="6.13669">
        <ele>223.21752929688</ele>
        <time>2014-06-14T13:18:23Z</time>
      </trkpt>
      <trkpt lat="43.41826" lon="6.13649">
        <ele>221.3493347168</ele>
        <time>2014-06-14T13:18:27Z</time>
      </trkpt>
      <trkpt lat="43.41829" lon="6.13642">
        <ele>220.99287414551</ele>
        <time>2014-06-14T13:18:28Z</time>
      </trkpt>
      <trkpt lat="43.41829" lon="6.13635">
        <ele>220.87121582031</ele>
        <time>2014-06-14T13:18:29Z</time>
      </trkpt>
      <trkpt lat="43.41828" lon="6.13622">
        <ele>221.11840820312</ele>
        <time>2014-06-14T13:18:31Z</time>
      </trkpt>
      <trkpt lat="43.4183" lon="6.13616">
        <ele>220.70642089844</ele>
        <time>2014-06-14T13:18:32Z</time>
      </trkpt>
      <trkpt lat="43.41838" lon="6.13598">
        <ele>220</ele>
        <time>2014-06-14T13:18:35Z</time>
      </trkpt>
      <trkpt lat="43.41844" lon="6.13587">
        <ele>220</ele>
        <time>2014-06-14T13:18:37Z</time>
      </trkpt>
      <trkpt lat="43.41853" lon="6.13574">
        <ele>220.19783020019</ele>
        <time>2014-06-14T13:18:41Z</time>
      </trkpt>
      <trkpt lat="43.41862" lon="6.13552">
        <ele>220</ele>
        <time>2014-06-14T13:18:46Z</time>
      </trkpt>
      <trkpt lat="43.41867" lon="6.13522">
        <ele>220</ele>
        <time>2014-06-14T13:18:52Z</time>
      </trkpt>
      <trkpt lat="43.41874" lon="6.13483">
        <ele>220</ele>
        <time>2014-06-14T13:18:59Z</time>
      </trkpt>
      <trkpt lat="43.41883" lon="6.13449">
        <ele>220</ele>
        <time>2014-06-14T13:19:04Z</time>
      </trkpt>
      <trkpt lat="43.41888" lon="6.13426">
        <ele>220</ele>
        <time>2014-06-14T13:19:07Z</time>
      </trkpt>
      <trkpt lat="43.4189" lon="6.13401">
        <ele>220</ele>
        <time>2014-06-14T13:19:10Z</time>
      </trkpt>
      <trkpt lat="43.41893" lon="6.13378">
        <ele>220</ele>
        <time>2014-06-14T13:19:13Z</time>
      </trkpt>
      <trkpt lat="43.41893" lon="6.13371">
        <ele>220</ele>
        <time>2014-06-14T13:19:14Z</time>
      </trkpt>
      <trkpt lat="43.41893" lon="6.13363">
        <ele>220</ele>
        <time>2014-06-14T13:19:15Z</time>
      </trkpt>
      <trkpt lat="43.41893" lon="6.13356">
        <ele>220</ele>
        <time>2014-06-14T13:19:16Z</time>
      </trkpt>
      <trkpt lat="43.4189" lon="6.1335">
        <ele>220</ele>
        <time>2014-06-14T13:19:17Z</time>
      </trkpt>
      <trkpt lat="43.41884" lon="6.1334">
        <ele>220.36279296875</ele>
        <time>2014-06-14T13:19:19Z</time>
      </trkpt>
      <trkpt lat="43.41882" lon="6.13324">
        <ele>220.61962890625</ele>
        <time>2014-06-14T13:19:22Z</time>
      </trkpt>
      <trkpt lat="43.41882" lon="6.13315">
        <ele>220.66807556152</ele>
        <time>2014-06-14T13:19:24Z</time>
      </trkpt>
      <trkpt lat="43.41884" lon="6.13306">
        <ele>220.49859619141</ele>
        <time>2014-06-14T13:19:26Z</time>
      </trkpt>
      <trkpt lat="43.41881" lon="6.13287">
        <ele>220.83258056641</ele>
        <time>2014-06-14T13:19:30Z</time>
      </trkpt>
      <trkpt lat="43.41877" lon="6.13276">
        <ele>221.26676940918</ele>
        <time>2014-06-14T13:19:32Z</time>
      </trkpt>
      <trkpt lat="43.41877" lon="6.13267">
        <ele>221.50401306152</ele>
        <time>2014-06-14T13:19:34Z</time>
      </trkpt>
      <trkpt lat="43.4188" lon="6.13255">
        <ele>221.21998596191</ele>
        <time>2014-06-14T13:19:37Z</time>
      </trkpt>
      <trkpt lat="43.41888" lon="6.13217">
        <ele>220.18444824219</ele>
        <time>2014-06-14T13:19:44Z</time>
      </trkpt>
      <trkpt lat="43.41891" lon="6.1319">
        <ele>220</ele>
        <time>2014-06-14T13:19:49Z</time>
      </trkpt>
      <trkpt lat="43.41891" lon="6.13176">
        <ele>220</ele>
        <time>2014-06-14T13:19:51Z</time>
      </trkpt>
      <trkpt lat="43.41889" lon="6.13154">
        <ele>220</ele>
        <time>2014-06-14T13:19:54Z</time>
      </trkpt>
      <trkpt lat="43.41888" lon="6.13115">
        <ele>220.25888061523</ele>
        <time>2014-06-14T13:20:00Z</time>
      </trkpt>
      <trkpt lat="43.41887" lon="6.131">
        <ele>220.51159667969</ele>
        <time>2014-06-14T13:20:02Z</time>
      </trkpt>
      <trkpt lat="43.41887" lon="6.13085">
        <ele>220.51159667969</ele>
        <time>2014-06-14T13:20:04Z</time>
      </trkpt>
      <trkpt lat="43.41888" lon="6.1307">
        <ele>220.28507995606</ele>
        <time>2014-06-14T13:20:06Z</time>
      </trkpt>
      <trkpt lat="43.41889" lon="6.13055">
        <ele>220</ele>
        <time>2014-06-14T13:20:08Z</time>
      </trkpt>
      <trkpt lat="43.41901" lon="6.13014">
        <ele>220</ele>
        <time>2014-06-14T13:20:13Z</time>
      </trkpt>
      <trkpt lat="43.41904" lon="6.12996">
        <ele>220</ele>
        <time>2014-06-14T13:20:15Z</time>
      </trkpt>
      <trkpt lat="43.41904" lon="6.12988">
        <ele>220</ele>
        <time>2014-06-14T13:20:16Z</time>
      </trkpt>
      <trkpt lat="43.41904" lon="6.12976">
        <ele>220</ele>
        <time>2014-06-14T13:20:18Z</time>
      </trkpt>
      <trkpt lat="43.41909" lon="6.12965">
        <ele>219.80558776856</ele>
        <time>2014-06-14T13:20:20Z</time>
      </trkpt>
      <trkpt lat="43.41911" lon="6.12962">
        <ele>219.69453430176</ele>
        <time>2014-06-14T13:20:21Z</time>
      </trkpt>
      <trkpt lat="43.41913" lon="6.12953">
        <ele>219.38981628418</ele>
        <time>2014-06-14T13:20:23Z</time>
      </trkpt>
      <trkpt lat="43.41915" lon="6.12928">
        <ele>218.54721069336</ele>
        <time>2014-06-14T13:20:27Z</time>
      </trkpt>
      <trkpt lat="43.41919" lon="6.12898">
        <ele>217.88677978516</ele>
        <time>2014-06-14T13:20:31Z</time>
      </trkpt>
      <trkpt lat="43.41919" lon="6.1289">
        <ele>217.83993530273</ele>
        <time>2014-06-14T13:20:32Z</time>
      </trkpt>
      <trkpt lat="43.41919" lon="6.12882">
        <ele>217.80847167969</ele>
        <time>2014-06-14T13:20:33Z</time>
      </trkpt>
      <trkpt lat="43.41919" lon="6.12865">
        <ele>217.8359375</ele>
        <time>2014-06-14T13:20:35Z</time>
      </trkpt>
      <trkpt lat="43.41922" lon="6.12832">
        <ele>217.42880249023</ele>
        <time>2014-06-14T13:20:39Z</time>
      </trkpt>
      <trkpt lat="43.41922" lon="6.12823">
        <ele>217.6688079834</ele>
        <time>2014-06-14T13:20:40Z</time>
      </trkpt>
      <trkpt lat="43.41919" lon="6.128">
        <ele>218.42817687988</ele>
        <time>2014-06-14T13:20:43Z</time>
      </trkpt>
      <trkpt lat="43.41922" lon="6.12768">
        <ele>217.74046325684</ele>
        <time>2014-06-14T13:20:47Z</time>
      </trkpt>
      <trkpt lat="43.4192" lon="6.1274">
        <ele>219.82676696777</ele>
        <time>2014-06-14T13:20:51Z</time>
      </trkpt>
      <trkpt lat="43.41924" lon="6.12721">
        <ele>219.81909179688</ele>
        <time>2014-06-14T13:20:54Z</time>
      </trkpt>
      <trkpt lat="43.41929" lon="6.1271">
        <ele>218.41815185547</ele>
        <time>2014-06-14T13:20:56Z</time>
      </trkpt>
      <trkpt lat="43.41935" lon="6.12693">
        <ele>216.34698486328</ele>
        <time>2014-06-14T13:20:59Z</time>
      </trkpt>
      <trkpt lat="43.41939" lon="6.12679">
        <ele>214.49304199219</ele>
        <time>2014-06-14T13:21:01Z</time>
      </trkpt>
      <trkpt lat="43.41956" lon="6.12631">
        <ele>207.45777893066</ele>
        <time>2014-06-14T13:21:08Z</time>
      </trkpt>
      <trkpt lat="43.41965" lon="6.12611">
        <ele>203.24742126465</ele>
        <time>2014-06-14T13:21:11Z</time>
      </trkpt>
      <trkpt lat="43.4197" lon="6.12598">
        <ele>200.86102294922</ele>
        <time>2014-06-14T13:21:13Z</time>
      </trkpt>
      <trkpt lat="43.41973" lon="6.12591">
        <ele>200</ele>
        <time>2014-06-14T13:21:14Z</time>
      </trkpt>
      <trkpt lat="43.41974" lon="6.12583">
        <ele>200.06861877441</ele>
        <time>2014-06-14T13:21:15Z</time>
      </trkpt>
      <trkpt lat="43.41977" lon="6.12558">
        <ele>203.90325927734</ele>
        <time>2014-06-14T13:21:18Z</time>
      </trkpt>
      <trkpt lat="43.41983" lon="6.12544">
        <ele>203.47994995117</ele>
        <time>2014-06-14T13:21:20Z</time>
      </trkpt>
      <trkpt lat="43.4199" lon="6.12533">
        <ele>201.79005432129</ele>
        <time>2014-06-14T13:21:22Z</time>
      </trkpt>
      <trkpt lat="43.41997" lon="6.12522">
        <ele>199.84497070312</ele>
        <time>2014-06-14T13:21:24Z</time>
      </trkpt>
      <trkpt lat="43.42003" lon="6.12512">
        <ele>199</ele>
        <time>2014-06-14T13:21:26Z</time>
      </trkpt>
      <trkpt lat="43.42014" lon="6.1248">
        <ele>199.36050415039</ele>
        <time>2014-06-14T13:21:31Z</time>
      </trkpt>
      <trkpt lat="43.42015" lon="6.12472">
        <ele>199.46813964844</ele>
        <time>2014-06-14T13:21:32Z</time>
      </trkpt>
      <trkpt lat="43.42019" lon="6.1245">
        <ele>199.83781433106</ele>
        <time>2014-06-14T13:21:35Z</time>
      </trkpt>
      <trkpt lat="43.42022" lon="6.12443">
        <ele>199.67234802246</ele>
        <time>2014-06-14T13:21:36Z</time>
      </trkpt>
      <trkpt lat="43.42028" lon="6.12428">
        <ele>199</ele>
        <time>2014-06-14T13:21:38Z</time>
      </trkpt>
      <trkpt lat="43.42031" lon="6.1242">
        <ele>199</ele>
        <time>2014-06-14T13:21:39Z</time>
      </trkpt>
      <trkpt lat="43.42035" lon="6.12413">
        <ele>199</ele>
        <time>2014-06-14T13:21:40Z</time>
      </trkpt>
      <trkpt lat="43.42039" lon="6.12406">
        <ele>199</ele>
        <time>2014-06-14T13:21:41Z</time>
      </trkpt>
      <trkpt lat="43.42043" lon="6.12399">
        <ele>199</ele>
        <time>2014-06-14T13:21:42Z</time>
      </trkpt>
      <trkpt lat="43.42057" lon="6.12374">
        <ele>199</ele>
        <time>2014-06-14T13:21:46Z</time>
      </trkpt>
      <trkpt lat="43.4206" lon="6.12368">
        <ele>199</ele>
        <time>2014-06-14T13:21:47Z</time>
      </trkpt>
      <trkpt lat="43.42064" lon="6.12363">
        <ele>199</ele>
        <time>2014-06-14T13:21:48Z</time>
      </trkpt>
      <trkpt lat="43.42078" lon="6.12342">
        <ele>199</ele>
        <time>2014-06-14T13:21:52Z</time>
      </trkpt>
      <trkpt lat="43.4208" lon="6.12339">
        <ele>199</ele>
        <time>2014-06-14T13:21:53Z</time>
      </trkpt>
      <trkpt lat="43.42081" lon="6.12335">
        <ele>199</ele>
        <time>2014-06-14T13:21:54Z</time>
      </trkpt>
      <trkpt lat="43.42081" lon="6.12332">
        <ele>198.95782470703</ele>
        <time>2014-06-14T13:21:55Z</time>
      </trkpt>
      <trkpt lat="43.42082" lon="6.1233">
        <ele>198.89497375488</ele>
        <time>2014-06-14T13:21:56Z</time>
      </trkpt>
      <trkpt lat="43.42082" lon="6.12329">
        <ele>198.8620300293</ele>
        <time>2014-06-14T13:21:57Z</time>
      </trkpt>
      <trkpt lat="43.42083" lon="6.12329">
        <ele>198.85003662109</ele>
        <time>2014-06-14T13:22:03Z</time>
      </trkpt>
      <trkpt lat="43.42083" lon="6.12329">
        <ele>198.85003662109</ele>
        <time>2014-06-14T13:22:12Z</time>
      </trkpt>
      <trkpt lat="43.42083" lon="6.12328">
        <ele>198.80992126465</ele>
        <time>2014-06-14T13:22:23Z</time>
      </trkpt>
      <trkpt lat="43.42091" lon="6.12323">
        <ele>198.45364379883</ele>
        <time>2014-06-14T13:22:29Z</time>
      </trkpt>
      <trkpt lat="43.42098" lon="6.12319">
        <ele>198.22511291504</ele>
        <time>2014-06-14T13:22:32Z</time>
      </trkpt>
      <trkpt lat="43.42101" lon="6.12315">
        <ele>198.11399841309</ele>
        <time>2014-06-14T13:22:34Z</time>
      </trkpt>
      <trkpt lat="43.42104" lon="6.1231">
        <ele>198.03547668457</ele>
        <time>2014-06-14T13:22:39Z</time>
      </trkpt>
      <trkpt lat="43.42104" lon="6.12309">
        <ele>198.0330657959</ele>
        <time>2014-06-14T13:22:50Z</time>
      </trkpt>
      <trkpt lat="43.42104" lon="6.12309">
        <ele>198.0330657959</ele>
        <time>2014-06-14T13:22:58Z</time>
      </trkpt>
      <trkpt lat="43.42105" lon="6.12309">
        <ele>198.02331542969</ele>
        <time>2014-06-14T13:23:01Z</time>
      </trkpt>
      <trkpt lat="43.42113" lon="6.12301">
        <ele>198</ele>
        <time>2014-06-14T13:23:07Z</time>
      </trkpt>
      <trkpt lat="43.42126" lon="6.12289">
        <ele>198</ele>
        <time>2014-06-14T13:23:13Z</time>
      </trkpt>
      <trkpt lat="43.42129" lon="6.12288">
        <ele>198</ele>
        <time>2014-06-14T13:23:14Z</time>
      </trkpt>
      <trkpt lat="43.42139" lon="6.12275">
        <ele>197.88305664062</ele>
        <time>2014-06-14T13:23:19Z</time>
      </trkpt>
      <trkpt lat="43.4215" lon="6.1226">
        <ele>197.20172119141</ele>
        <time>2014-06-14T13:23:23Z</time>
      </trkpt>
      <trkpt lat="43.42154" lon="6.12257">
        <ele>197.10679626465</ele>
        <time>2014-06-14T13:23:24Z</time>
      </trkpt>
      <trkpt lat="43.42163" lon="6.12251">
        <ele>197.00462341309</ele>
        <time>2014-06-14T13:23:26Z</time>
      </trkpt>
      <trkpt lat="43.42178" lon="6.1224">
        <ele>196.64273071289</ele>
        <time>2014-06-14T13:23:30Z</time>
      </trkpt>
      <trkpt lat="43.42183" lon="6.12237">
        <ele>196.52429199219</ele>
        <time>2014-06-14T13:23:31Z</time>
      </trkpt>
      <trkpt lat="43.422" lon="6.12227">
        <ele>195.94345092773</ele>
        <time>2014-06-14T13:23:35Z</time>
      </trkpt>
      <trkpt lat="43.42226" lon="6.12214">
        <ele>195</ele>
        <time>2014-06-14T13:23:41Z</time>
      </trkpt>
      <trkpt lat="43.4225" lon="6.12202">
        <ele>195</ele>
        <time>2014-06-14T13:23:46Z</time>
      </trkpt>
      <trkpt lat="43.42274" lon="6.12189">
        <ele>193.95404052734</ele>
        <time>2014-06-14T13:23:51Z</time>
      </trkpt>
      <trkpt lat="43.42278" lon="6.12188">
        <ele>193.75675964356</ele>
        <time>2014-06-14T13:23:52Z</time>
      </trkpt>
      <trkpt lat="43.42294" lon="6.1218">
        <ele>193.19253540039</ele>
        <time>2014-06-14T13:23:56Z</time>
      </trkpt>
      <trkpt lat="43.42301" lon="6.12177">
        <ele>192.82270812988</ele>
        <time>2014-06-14T13:23:58Z</time>
      </trkpt>
      <trkpt lat="43.42306" lon="6.12173">
        <ele>192.46488952637</ele>
        <time>2014-06-14T13:24:00Z</time>
      </trkpt>
      <trkpt lat="43.42319" lon="6.12167">
        <ele>191.52362060547</ele>
        <time>2014-06-14T13:24:04Z</time>
      </trkpt>
      <trkpt lat="43.42328" lon="6.12162">
        <ele>191.16647338867</ele>
        <time>2014-06-14T13:24:08Z</time>
      </trkpt>
      <trkpt lat="43.4234" lon="6.12156">
        <ele>191</ele>
        <time>2014-06-14T13:24:15Z</time>
      </trkpt>
      <trkpt lat="43.42342" lon="6.12154">
        <ele>191</ele>
        <time>2014-06-14T13:24:16Z</time>
      </trkpt>
      <trkpt lat="43.42352" lon="6.12148">
        <ele>191</ele>
        <time>2014-06-14T13:24:20Z</time>
      </trkpt>
      <trkpt lat="43.42356" lon="6.12146">
        <ele>191</ele>
        <time>2014-06-14T13:24:23Z</time>
      </trkpt>
      <trkpt lat="43.42359" lon="6.12143">
        <ele>191</ele>
        <time>2014-06-14T13:24:25Z</time>
      </trkpt>
      <trkpt lat="43.42371" lon="6.12133">
        <ele>191</ele>
        <time>2014-06-14T13:24:35Z</time>
      </trkpt>
      <trkpt lat="43.42373" lon="6.12132">
        <ele>191</ele>
        <time>2014-06-14T13:24:37Z</time>
      </trkpt>
      <trkpt lat="43.42377" lon="6.1213">
        <ele>191</ele>
        <time>2014-06-14T13:24:41Z</time>
      </trkpt>
      <trkpt lat="43.42386" lon="6.12125">
        <ele>191</ele>
        <time>2014-06-14T13:24:47Z</time>
      </trkpt>
      <trkpt lat="43.42387" lon="6.12123">
        <ele>191</ele>
        <time>2014-06-14T13:24:48Z</time>
      </trkpt>
      <trkpt lat="43.42393" lon="6.12116">
        <ele>191.30491638184</ele>
        <time>2014-06-14T13:24:52Z</time>
      </trkpt>
      <trkpt lat="43.42397" lon="6.12108">
        <ele>191.8650970459</ele>
        <time>2014-06-14T13:24:57Z</time>
      </trkpt>
      <trkpt lat="43.42404" lon="6.12093">
        <ele>193.37228393555</ele>
        <time>2014-06-14T13:25:05Z</time>
      </trkpt>
      <trkpt lat="43.42406" lon="6.1209">
        <ele>193.71903991699</ele>
        <time>2014-06-14T13:25:07Z</time>
      </trkpt>
      <trkpt lat="43.42409" lon="6.12084">
        <ele>194.4228515625</ele>
        <time>2014-06-14T13:25:11Z</time>
      </trkpt>
      <trkpt lat="43.4241" lon="6.12082">
        <ele>194.58787536621</ele>
        <time>2014-06-14T13:25:12Z</time>
      </trkpt>
      <trkpt lat="43.42413" lon="6.1208">
        <ele>194.82305908203</ele>
        <time>2014-06-14T13:25:16Z</time>
      </trkpt>
      <trkpt lat="43.42412" lon="6.1208">
        <ele>194.80073547363</ele>
        <time>2014-06-14T13:25:24Z</time>
      </trkpt>
      <trkpt lat="43.42415" lon="6.1208">
        <ele>195.00500488281</ele>
        <time>2014-06-14T13:25:30Z</time>
      </trkpt>
      <trkpt lat="43.42415" lon="6.1208">
        <ele>195.00500488281</ele>
        <time>2014-06-14T13:25:45Z</time>
      </trkpt>
      <trkpt lat="43.42415" lon="6.1208">
        <ele>195.00672912598</ele>
        <time>2014-06-14T13:26:03Z</time>
      </trkpt>
      <trkpt lat="43.42415" lon="6.12079">
        <ele>195.05993652344</ele>
        <time>2014-06-14T13:26:05Z</time>
      </trkpt>
      <trkpt lat="43.42417" lon="6.12074">
        <ele>195.33576965332</ele>
        <time>2014-06-14T13:26:07Z</time>
      </trkpt>
      <trkpt lat="43.42415" lon="6.12069">
        <ele>195.38610839844</ele>
        <time>2014-06-14T13:26:09Z</time>
      </trkpt>
      <trkpt lat="43.42413" lon="6.12065">
        <ele>195.43244934082</ele>
        <time>2014-06-14T13:26:11Z</time>
      </trkpt>
      <trkpt lat="43.42412" lon="6.1206">
        <ele>195.5234375</ele>
        <time>2014-06-14T13:26:13Z</time>
      </trkpt>
      <trkpt lat="43.42411" lon="6.12055">
        <ele>195.5749206543</ele>
        <time>2014-06-14T13:26:15Z</time>
      </trkpt>
      <trkpt lat="43.4241" lon="6.12053">
        <ele>195.60925292969</ele>
        <time>2014-06-14T13:26:16Z</time>
      </trkpt>
      <trkpt lat="43.42399" lon="6.12023">
        <ele>195.90451049805</ele>
        <time>2014-06-14T13:26:27Z</time>
      </trkpt>
      <trkpt lat="43.42397" lon="6.12014">
        <ele>196.04183959961</ele>
        <time>2014-06-14T13:26:30Z</time>
      </trkpt>
      <trkpt lat="43.42391" lon="6.11993">
        <ele>196.38516235352</ele>
        <time>2014-06-14T13:26:37Z</time>
      </trkpt>
      <trkpt lat="43.42387" lon="6.11978">
        <ele>196.73782348633</ele>
        <time>2014-06-14T13:26:42Z</time>
      </trkpt>
      <trkpt lat="43.42386" lon="6.11972">
        <ele>196.88716125488</ele>
        <time>2014-06-14T13:26:44Z</time>
      </trkpt>
      <trkpt lat="43.42378" lon="6.11938">
        <ele>197.84332275391</ele>
        <time>2014-06-14T13:26:54Z</time>
      </trkpt>
      <trkpt lat="43.42375" lon="6.11927">
        <ele>198.10939025879</ele>
        <time>2014-06-14T13:26:57Z</time>
      </trkpt>
      <trkpt lat="43.42369" lon="6.11902">
        <ele>198.78573608398</ele>
        <time>2014-06-14T13:27:04Z</time>
      </trkpt>
      <trkpt lat="43.42355" lon="6.11857">
        <ele>199.82365417481</ele>
        <time>2014-06-14T13:27:17Z</time>
      </trkpt>
      <trkpt lat="43.42352" lon="6.11847">
        <ele>199.83345031738</ele>
        <time>2014-06-14T13:27:20Z</time>
      </trkpt>
      <trkpt lat="43.42342" lon="6.11817">
        <ele>203.33332824707</ele>
        <time>2014-06-14T13:27:29Z</time>
      </trkpt>
      <trkpt lat="43.42328" lon="6.1179">
        <ele>209.48501586914</ele>
        <time>2014-06-14T13:27:37Z</time>
      </trkpt>
      <trkpt lat="43.42326" lon="6.11787">
        <ele>210.27465820312</ele>
        <time>2014-06-14T13:27:38Z</time>
      </trkpt>
      <trkpt lat="43.42318" lon="6.11774">
        <ele>213.40289306641</ele>
        <time>2014-06-14T13:27:42Z</time>
      </trkpt>
      <trkpt lat="43.42318" lon="6.11771">
        <ele>214.20899963379</ele>
        <time>2014-06-14T13:27:43Z</time>
      </trkpt>
      <trkpt lat="43.42319" lon="6.11771">
        <ele>214.70854187012</ele>
        <time>2014-06-14T13:27:46Z</time>
      </trkpt>
      <trkpt lat="43.42321" lon="6.1177">
        <ele>214.9543762207</ele>
        <time>2014-06-14T13:27:47Z</time>
      </trkpt>
      <trkpt lat="43.42327" lon="6.1177">
        <ele>216.00007629394</ele>
        <time>2014-06-14T13:27:51Z</time>
      </trkpt>
      <trkpt lat="43.42329" lon="6.1177">
        <ele>216.3323059082</ele>
        <time>2014-06-14T13:27:52Z</time>
      </trkpt>
      <trkpt lat="43.42335" lon="6.1177">
        <ele>217.00099182129</ele>
        <time>2014-06-14T13:27:56Z</time>
      </trkpt>
      <trkpt lat="43.42336" lon="6.11769">
        <ele>217.01986694336</ele>
        <time>2014-06-14T13:27:57Z</time>
      </trkpt>
      <trkpt lat="43.42341" lon="6.11768">
        <ele>217.21557617188</ele>
        <time>2014-06-14T13:28:00Z</time>
      </trkpt>
      <trkpt lat="43.42345" lon="6.11766">
        <ele>217.56918334961</ele>
        <time>2014-06-14T13:28:03Z</time>
      </trkpt>
      <trkpt lat="43.42349" lon="6.11765">
        <ele>217.71853637695</ele>
        <time>2014-06-14T13:28:06Z</time>
      </trkpt>
      <trkpt lat="43.42353" lon="6.11764">
        <ele>217.85586547852</ele>
        <time>2014-06-14T13:28:09Z</time>
      </trkpt>
      <trkpt lat="43.42355" lon="6.11762">
        <ele>218.11508178711</ele>
        <time>2014-06-14T13:28:10Z</time>
      </trkpt>
      <trkpt lat="43.42356" lon="6.11762">
        <ele>218.25068664551</ele>
        <time>2014-06-14T13:28:13Z</time>
      </trkpt>
      <trkpt lat="43.42356" lon="6.11762">
        <ele>218.25068664551</ele>
        <time>2014-06-14T13:28:15Z</time>
      </trkpt>
      <trkpt lat="43.42359" lon="6.11759">
        <ele>218.85321044922</ele>
        <time>2014-06-14T13:28:21Z</time>
      </trkpt>
      <trkpt lat="43.42361" lon="6.11757">
        <ele>219.26348876953</ele>
        <time>2014-06-14T13:28:25Z</time>
      </trkpt>
      <trkpt lat="43.42361" lon="6.11757">
        <ele>219.26348876953</ele>
        <time>2014-06-14T13:28:47Z</time>
      </trkpt>
      <trkpt lat="43.42361" lon="6.11757">
        <ele>219.26348876953</ele>
        <time>2014-06-14T13:29:21Z</time>
      </trkpt>
      <trkpt lat="43.42363" lon="6.11755">
        <ele>219.47662353516</ele>
        <time>2014-06-14T13:29:25Z</time>
      </trkpt>
      <trkpt lat="43.42371" lon="6.11749">
        <ele>220.3850402832</ele>
        <time>2014-06-14T13:29:31Z</time>
      </trkpt>
      <trkpt lat="43.42372" lon="6.11749">
        <ele>220.41009521484</ele>
        <time>2014-06-14T13:29:32Z</time>
      </trkpt>
      <trkpt lat="43.42374" lon="6.11747">
        <ele>220.46095275879</ele>
        <time>2014-06-14T13:29:34Z</time>
      </trkpt>
      <trkpt lat="43.42377" lon="6.11745">
        <ele>220.50416564941</ele>
        <time>2014-06-14T13:29:36Z</time>
      </trkpt>
      <trkpt lat="43.42386" lon="6.11738">
        <ele>220.49395751953</ele>
        <time>2014-06-14T13:29:42Z</time>
      </trkpt>
      <trkpt lat="43.42389" lon="6.11737">
        <ele>220.43675231934</ele>
        <time>2014-06-14T13:29:44Z</time>
      </trkpt>
      <trkpt lat="43.42393" lon="6.11734">
        <ele>220.40458679199</ele>
        <time>2014-06-14T13:29:47Z</time>
      </trkpt>
      <trkpt lat="43.42404" lon="6.11726">
        <ele>220.15156555176</ele>
        <time>2014-06-14T13:29:56Z</time>
      </trkpt>
      <trkpt lat="43.42408" lon="6.11722">
        <ele>220.02296447754</ele>
        <time>2014-06-14T13:29:59Z</time>
      </trkpt>
      <trkpt lat="43.42415" lon="6.11712">
        <ele>220.32675170898</ele>
        <time>2014-06-14T13:30:07Z</time>
      </trkpt>
      <trkpt lat="43.42419" lon="6.11705">
        <ele>220.78916931152</ele>
        <time>2014-06-14T13:30:11Z</time>
      </trkpt>
      <trkpt lat="43.42425" lon="6.11696">
        <ele>221.23600769043</ele>
        <time>2014-06-14T13:30:17Z</time>
      </trkpt>
      <trkpt lat="43.42431" lon="6.11688">
        <ele>221.55572509766</ele>
        <time>2014-06-14T13:30:23Z</time>
      </trkpt>
      <trkpt lat="43.42436" lon="6.1168">
        <ele>221.96279907227</ele>
        <time>2014-06-14T13:30:29Z</time>
      </trkpt>
      <trkpt lat="43.42442" lon="6.11673">
        <ele>222.48608398438</ele>
        <time>2014-06-14T13:30:35Z</time>
      </trkpt>
      <trkpt lat="43.42445" lon="6.11667">
        <ele>222.86378479004</ele>
        <time>2014-06-14T13:30:38Z</time>
      </trkpt>
      <trkpt lat="43.4245" lon="6.1166">
        <ele>222.7452545166</ele>
        <time>2014-06-14T13:30:42Z</time>
      </trkpt>
      <trkpt lat="43.42455" lon="6.11655">
        <ele>222.77563476562</ele>
        <time>2014-06-14T13:30:46Z</time>
      </trkpt>
      <trkpt lat="43.42456" lon="6.11653">
        <ele>222.90299987793</ele>
        <time>2014-06-14T13:30:48Z</time>
      </trkpt>
      <trkpt lat="43.42456" lon="6.11653">
        <ele>222.91439819336</ele>
        <time>2014-06-14T13:30:49Z</time>
      </trkpt>
      <trkpt lat="43.4246" lon="6.11648">
        <ele>223.11331176758</ele>
        <time>2014-06-14T13:30:53Z</time>
      </trkpt>
      <trkpt lat="43.42464" lon="6.11643">
        <ele>223.54591369629</ele>
        <time>2014-06-14T13:30:57Z</time>
      </trkpt>
      <trkpt lat="43.42465" lon="6.11642">
        <ele>223.68229675293</ele>
        <time>2014-06-14T13:30:58Z</time>
      </trkpt>
      <trkpt lat="43.42465" lon="6.11638">
        <ele>224.09736633301</ele>
        <time>2014-06-14T13:31:00Z</time>
      </trkpt>
      <trkpt lat="43.42464" lon="6.11632">
        <ele>224.94285583496</ele>
        <time>2014-06-14T13:31:03Z</time>
      </trkpt>
      <trkpt lat="43.42463" lon="6.11629">
        <ele>225.3035736084</ele>
        <time>2014-06-14T13:31:05Z</time>
      </trkpt>
      <trkpt lat="43.42463" lon="6.11628">
        <ele>225.44912719727</ele>
        <time>2014-06-14T13:31:06Z</time>
      </trkpt>
      <trkpt lat="43.42463" lon="6.11628">
        <ele>225.39898681641</ele>
        <time>2014-06-14T13:31:08Z</time>
      </trkpt>
      <trkpt lat="43.42463" lon="6.11628">
        <ele>225.39898681641</ele>
        <time>2014-06-14T13:31:19Z</time>
      </trkpt>
      <trkpt lat="43.42463" lon="6.11628">
        <ele>225.39898681641</ele>
        <time>2014-06-14T13:31:24Z</time>
      </trkpt>
      <trkpt lat="43.42462" lon="6.11628">
        <ele>225.44367980957</ele>
        <time>2014-06-14T13:31:27Z</time>
      </trkpt>
      <trkpt lat="43.4246" lon="6.11625">
        <ele>225.73443603516</ele>
        <time>2014-06-14T13:31:33Z</time>
      </trkpt>
      <trkpt lat="43.42458" lon="6.11624">
        <ele>225.86987304688</ele>
        <time>2014-06-14T13:31:36Z</time>
      </trkpt>
      <trkpt lat="43.42456" lon="6.11624">
        <ele>225.79196166992</ele>
        <time>2014-06-14T13:31:40Z</time>
      </trkpt>
      <trkpt lat="43.42456" lon="6.11624">
        <ele>225.79196166992</ele>
        <time>2014-06-14T13:31:51Z</time>
      </trkpt>
      <trkpt lat="43.42456" lon="6.11624">
        <ele>225.82586669922</ele>
        <time>2014-06-14T13:31:52Z</time>
      </trkpt>
      <trkpt lat="43.42455" lon="6.11624">
        <ele>225.84269714356</ele>
        <time>2014-06-14T13:31:53Z</time>
      </trkpt>
      <trkpt lat="43.42453" lon="6.11623">
        <ele>225.8390045166</ele>
        <time>2014-06-14T13:31:55Z</time>
      </trkpt>
      <trkpt lat="43.42449" lon="6.11622">
        <ele>225.88157653809</ele>
        <time>2014-06-14T13:31:58Z</time>
      </trkpt>
      <trkpt lat="43.42446" lon="6.1162">
        <ele>226.0724029541</ele>
        <time>2014-06-14T13:32:01Z</time>
      </trkpt>
      <trkpt lat="43.42443" lon="6.11616">
        <ele>226.49267578125</ele>
        <time>2014-06-14T13:32:04Z</time>
      </trkpt>
      <trkpt lat="43.42442" lon="6.11612">
        <ele>227.05056762695</ele>
        <time>2014-06-14T13:32:07Z</time>
      </trkpt>
      <trkpt lat="43.42437" lon="6.116">
        <ele>228.37823486328</ele>
        <time>2014-06-14T13:32:14Z</time>
      </trkpt>
      <trkpt lat="43.42434" lon="6.11591">
        <ele>229.29931640625</ele>
        <time>2014-06-14T13:32:20Z</time>
      </trkpt>
      <trkpt lat="43.42432" lon="6.11582">
        <ele>230.11001586914</ele>
        <time>2014-06-14T13:32:25Z</time>
      </trkpt>
      <trkpt lat="43.42429" lon="6.11574">
        <ele>230.83860778809</ele>
        <time>2014-06-14T13:32:30Z</time>
      </trkpt>
      <trkpt lat="43.42427" lon="6.11572">
        <ele>230.95007324219</ele>
        <time>2014-06-14T13:32:33Z</time>
      </trkpt>
      <trkpt lat="43.42427" lon="6.1157">
        <ele>231.12773132324</ele>
        <time>2014-06-14T13:32:34Z</time>
      </trkpt>
      <trkpt lat="43.42429" lon="6.11566">
        <ele>231.49336242676</ele>
        <time>2014-06-14T13:32:36Z</time>
      </trkpt>
      <trkpt lat="43.42431" lon="6.11562">
        <ele>231.94923400879</ele>
        <time>2014-06-14T13:32:40Z</time>
      </trkpt>
      <trkpt lat="43.42434" lon="6.11553">
        <ele>232.89215087891</ele>
        <time>2014-06-14T13:32:46Z</time>
      </trkpt>
      <trkpt lat="43.4244" lon="6.11545">
        <ele>234.01997375488</ele>
        <time>2014-06-14T13:32:52Z</time>
      </trkpt>
      <trkpt lat="43.42443" lon="6.11537">
        <ele>234.92807006836</ele>
        <time>2014-06-14T13:32:56Z</time>
      </trkpt>
      <trkpt lat="43.42443" lon="6.11532">
        <ele>235.54432678223</ele>
        <time>2014-06-14T13:32:58Z</time>
      </trkpt>
      <trkpt lat="43.42444" lon="6.11525">
        <ele>236.07983398438</ele>
        <time>2014-06-14T13:33:01Z</time>
      </trkpt>
      <trkpt lat="43.4245" lon="6.11513">
        <ele>236.84864807129</ele>
        <time>2014-06-14T13:33:10Z</time>
      </trkpt>
      <trkpt lat="43.42451" lon="6.11512">
        <ele>236.94323730469</ele>
        <time>2014-06-14T13:33:11Z</time>
      </trkpt>
      <trkpt lat="43.42454" lon="6.11499">
        <ele>237.82211303711</ele>
        <time>2014-06-14T13:33:17Z</time>
      </trkpt>
      <trkpt lat="43.42456" lon="6.11497">
        <ele>238.19696044922</ele>
        <time>2014-06-14T13:33:18Z</time>
      </trkpt>
      <trkpt lat="43.42458" lon="6.11496">
        <ele>238.4852142334</ele>
        <time>2014-06-14T13:33:20Z</time>
      </trkpt>
      <trkpt lat="43.42458" lon="6.11496">
        <ele>238.4852142334</ele>
        <time>2014-06-14T13:33:24Z</time>
      </trkpt>
      <trkpt lat="43.42458" lon="6.11495">
        <ele>238.65255737305</ele>
        <time>2014-06-14T13:33:29Z</time>
      </trkpt>
      <trkpt lat="43.42463" lon="6.11489">
        <ele>239.72380065918</ele>
        <time>2014-06-14T13:33:37Z</time>
      </trkpt>
      <trkpt lat="43.42464" lon="6.11487">
        <ele>240.19723510742</ele>
        <time>2014-06-14T13:33:40Z</time>
      </trkpt>
      <trkpt lat="43.42466" lon="6.11486">
        <ele>240.48205566406</ele>
        <time>2014-06-14T13:33:42Z</time>
      </trkpt>
      <trkpt lat="43.42466" lon="6.11485">
        <ele>240.65275573731</ele>
        <time>2014-06-14T13:33:43Z</time>
      </trkpt>
      <trkpt lat="43.42469" lon="6.11482">
        <ele>241.30392456055</ele>
        <time>2014-06-14T13:33:50Z</time>
      </trkpt>
      <trkpt lat="43.4247" lon="6.11481">
        <ele>241.51432800293</ele>
        <time>2014-06-14T13:33:56Z</time>
      </trkpt>
      <trkpt lat="43.4247" lon="6.11481">
        <ele>241.51432800293</ele>
        <time>2014-06-14T13:33:57Z</time>
      </trkpt>
      <trkpt lat="43.42472" lon="6.11479">
        <ele>241.91754150391</ele>
        <time>2014-06-14T13:34:05Z</time>
      </trkpt>
      <trkpt lat="43.42473" lon="6.11479">
        <ele>242.14280700684</ele>
        <time>2014-06-14T13:34:08Z</time>
      </trkpt>
      <trkpt lat="43.42474" lon="6.11478">
        <ele>242.33262634277</ele>
        <time>2014-06-14T13:34:10Z</time>
      </trkpt>
      <trkpt lat="43.42474" lon="6.11478">
        <ele>242.3397064209</ele>
        <time>2014-06-14T13:34:11Z</time>
      </trkpt>
      <trkpt lat="43.42474" lon="6.11478">
        <ele>242.41802978516</ele>
        <time>2014-06-14T13:34:12Z</time>
      </trkpt>
      <trkpt lat="43.42478" lon="6.11473">
        <ele>243.46809387207</ele>
        <time>2014-06-14T13:34:19Z</time>
      </trkpt>
      <trkpt lat="43.42481" lon="6.11466">
        <ele>245.05395507812</ele>
        <time>2014-06-14T13:34:26Z</time>
      </trkpt>
      <trkpt lat="43.42484" lon="6.1146">
        <ele>246.40835571289</ele>
        <time>2014-06-14T13:34:32Z</time>
      </trkpt>
      <trkpt lat="43.42484" lon="6.1146">
        <ele>246.39120483398</ele>
        <time>2014-06-14T13:34:33Z</time>
      </trkpt>
      <trkpt lat="43.42484" lon="6.11458">
        <ele>246.89416503906</ele>
        <time>2014-06-14T13:34:36Z</time>
      </trkpt>
      <trkpt lat="43.42484" lon="6.11458">
        <ele>246.94566345215</ele>
        <time>2014-06-14T13:34:38Z</time>
      </trkpt>
      <trkpt lat="43.42485" lon="6.11453">
        <ele>247.85890197754</ele>
        <time>2014-06-14T13:34:43Z</time>
      </trkpt>
      <trkpt lat="43.42487" lon="6.11449">
        <ele>248.66914367676</ele>
        <time>2014-06-14T13:34:49Z</time>
      </trkpt>
      <trkpt lat="43.42489" lon="6.11445">
        <ele>249.669921875</ele>
        <time>2014-06-14T13:34:54Z</time>
      </trkpt>
      <trkpt lat="43.42489" lon="6.11446">
        <ele>249.51715087891</ele>
        <time>2014-06-14T13:34:55Z</time>
      </trkpt>
      <trkpt lat="43.42489" lon="6.11446">
        <ele>249.49139404297</ele>
        <time>2014-06-14T13:34:56Z</time>
      </trkpt>
      <trkpt lat="43.42489" lon="6.11446">
        <ele>249.49139404297</ele>
        <time>2014-06-14T13:35:11Z</time>
      </trkpt>
      <trkpt lat="43.42489" lon="6.11446">
        <ele>249.49139404297</ele>
        <time>2014-06-14T13:35:22Z</time>
      </trkpt>
      <trkpt lat="43.42489" lon="6.11446">
        <ele>249.59268188477</ele>
        <time>2014-06-14T13:35:28Z</time>
      </trkpt>
      <trkpt lat="43.42489" lon="6.11446">
        <ele>249.59268188477</ele>
        <time>2014-06-14T13:35:35Z</time>
      </trkpt>
      <trkpt lat="43.42492" lon="6.11443">
        <ele>250.38758850098</ele>
        <time>2014-06-14T13:35:40Z</time>
      </trkpt>
      <trkpt lat="43.42493" lon="6.11443">
        <ele>250.4973449707</ele>
        <time>2014-06-14T13:35:44Z</time>
      </trkpt>
      <trkpt lat="43.42493" lon="6.11443">
        <ele>250.4973449707</ele>
        <time>2014-06-14T13:35:46Z</time>
      </trkpt>
      <trkpt lat="43.42495" lon="6.11444">
        <ele>250.55709838867</ele>
        <time>2014-06-14T13:35:51Z</time>
      </trkpt>
      <trkpt lat="43.42495" lon="6.11444">
        <ele>250.55709838867</ele>
        <time>2014-06-14T13:36:12Z</time>
      </trkpt>
      <trkpt lat="43.42495" lon="6.11444">
        <ele>250.55709838867</ele>
        <time>2014-06-14T13:36:24Z</time>
      </trkpt>
      <trkpt lat="43.42498" lon="6.11446">
        <ele>250.61578369141</ele>
        <time>2014-06-14T13:36:33Z</time>
      </trkpt>
      <trkpt lat="43.42505" lon="6.11449">
        <ele>250.74967956543</ele>
        <time>2014-06-14T13:36:39Z</time>
      </trkpt>
      <trkpt lat="43.42509" lon="6.11451">
        <ele>250.74795532227</ele>
        <time>2014-06-14T13:36:43Z</time>
      </trkpt>
      <trkpt lat="43.42512" lon="6.11451">
        <ele>251.10330200195</ele>
        <time>2014-06-14T13:36:46Z</time>
      </trkpt>
      <trkpt lat="43.42516" lon="6.11452">
        <ele>251.37966918945</ele>
        <time>2014-06-14T13:36:49Z</time>
      </trkpt>
      <trkpt lat="43.42518" lon="6.1145">
        <ele>251.87577819824</ele>
        <time>2014-06-14T13:36:51Z</time>
      </trkpt>
      <trkpt lat="43.42519" lon="6.11449">
        <ele>252.30836486816</ele>
        <time>2014-06-14T13:36:53Z</time>
      </trkpt>
      <trkpt lat="43.42519" lon="6.11445">
        <ele>252.93664550781</ele>
        <time>2014-06-14T13:36:56Z</time>
      </trkpt>
      <trkpt lat="43.42518" lon="6.11442">
        <ele>253.30847167969</ele>
        <time>2014-06-14T13:36:59Z</time>
      </trkpt>
      <trkpt lat="43.42518" lon="6.11443">
        <ele>253.12307739258</ele>
        <time>2014-06-14T13:37:01Z</time>
      </trkpt>
      <trkpt lat="43.42518" lon="6.11443">
        <ele>253.20547485352</ele>
        <time>2014-06-14T13:37:03Z</time>
      </trkpt>
      <trkpt lat="43.42518" lon="6.11442">
        <ele>253.26727294922</ele>
        <time>2014-06-14T13:37:04Z</time>
      </trkpt>
      <trkpt lat="43.42518" lon="6.11442">
        <ele>253.26727294922</ele>
        <time>2014-06-14T13:37:08Z</time>
      </trkpt>
      <trkpt lat="43.42518" lon="6.11442">
        <ele>253.26727294922</ele>
        <time>2014-06-14T13:37:12Z</time>
      </trkpt>
      <trkpt lat="43.42517" lon="6.11441">
        <ele>253.3359375</ele>
        <time>2014-06-14T13:37:16Z</time>
      </trkpt>
      <trkpt lat="43.42515" lon="6.11436">
        <ele>253.83032226562</ele>
        <time>2014-06-14T13:37:19Z</time>
      </trkpt>
      <trkpt lat="43.42515" lon="6.11434">
        <ele>254.08438110352</ele>
        <time>2014-06-14T13:37:20Z</time>
      </trkpt>
      <trkpt lat="43.42515" lon="6.11431">
        <ele>254.48263549805</ele>
        <time>2014-06-14T13:37:22Z</time>
      </trkpt>
      <trkpt lat="43.42514" lon="6.11427">
        <ele>255.0319519043</ele>
        <time>2014-06-14T13:37:25Z</time>
      </trkpt>
      <trkpt lat="43.42512" lon="6.11412">
        <ele>256.96704101562</ele>
        <time>2014-06-14T13:37:34Z</time>
      </trkpt>
      <trkpt lat="43.42509" lon="6.11388">
        <ele>260.74688720703</ele>
        <time>2014-06-14T13:37:50Z</time>
      </trkpt>
      <trkpt lat="43.42507" lon="6.1138">
        <ele>261.37442016602</ele>
        <time>2014-06-14T13:37:55Z</time>
      </trkpt>
      <trkpt lat="43.42504" lon="6.11366">
        <ele>262.69192504883</ele>
        <time>2014-06-14T13:38:04Z</time>
      </trkpt>
      <trkpt lat="43.42501" lon="6.1135">
        <ele>263.45861816406</ele>
        <time>2014-06-14T13:38:14Z</time>
      </trkpt>
      <trkpt lat="43.42501" lon="6.11323">
        <ele>264.81170654297</ele>
        <time>2014-06-14T13:38:30Z</time>
      </trkpt>
      <trkpt lat="43.42502" lon="6.11291">
        <ele>266.6142578125</ele>
        <time>2014-06-14T13:38:47Z</time>
      </trkpt>
      <trkpt lat="43.42502" lon="6.11268">
        <ele>267.46682739258</ele>
        <time>2014-06-14T13:38:59Z</time>
      </trkpt>
      <trkpt lat="43.42501" lon="6.11253">
        <ele>267.96463012695</ele>
        <time>2014-06-14T13:39:07Z</time>
      </trkpt>
      <trkpt lat="43.42496" lon="6.11241">
        <ele>267.30432128906</ele>
        <time>2014-06-14T13:39:13Z</time>
      </trkpt>
      <trkpt lat="43.42487" lon="6.11226">
        <ele>266.16467285156</ele>
        <time>2014-06-14T13:39:20Z</time>
      </trkpt>
      <trkpt lat="43.42483" lon="6.11217">
        <ele>265.75854492188</ele>
        <time>2014-06-14T13:39:24Z</time>
      </trkpt>
      <trkpt lat="43.4248" lon="6.1121">
        <ele>265.53881835938</ele>
        <time>2014-06-14T13:39:27Z</time>
      </trkpt>
      <trkpt lat="43.42478" lon="6.11206">
        <ele>265.40148925781</ele>
        <time>2014-06-14T13:39:29Z</time>
      </trkpt>
      <trkpt lat="43.42473" lon="6.11191">
        <ele>265.07189941406</ele>
        <time>2014-06-14T13:39:36Z</time>
      </trkpt>
      <trkpt lat="43.42473" lon="6.11189">
        <ele>265.04443359375</ele>
        <time>2014-06-14T13:39:37Z</time>
      </trkpt>
      <trkpt lat="43.42478" lon="6.11168">
        <ele>265.40148925781</ele>
        <time>2014-06-14T13:39:47Z</time>
      </trkpt>
      <trkpt lat="43.42484" lon="6.11163">
        <ele>265.84094238281</ele>
        <time>2014-06-14T13:39:52Z</time>
      </trkpt>
      <trkpt lat="43.42488" lon="6.1116">
        <ele>266.11560058594</ele>
        <time>2014-06-14T13:39:55Z</time>
      </trkpt>
      <trkpt lat="43.42492" lon="6.11158">
        <ele>266.39025878906</ele>
        <time>2014-06-14T13:39:58Z</time>
      </trkpt>
      <trkpt lat="43.42496" lon="6.11156">
        <ele>266.6923828125</ele>
        <time>2014-06-14T13:40:01Z</time>
      </trkpt>
      <trkpt lat="43.42508" lon="6.11151">
        <ele>267.3869934082</ele>
        <time>2014-06-14T13:40:08Z</time>
      </trkpt>
      <trkpt lat="43.42522" lon="6.1115">
        <ele>268.1174621582</ele>
        <time>2014-06-14T13:40:16Z</time>
      </trkpt>
      <trkpt lat="43.42534" lon="6.11148">
        <ele>268.96365356445</ele>
        <time>2014-06-14T13:40:22Z</time>
      </trkpt>
      <trkpt lat="43.42543" lon="6.11146">
        <ele>269.73089599609</ele>
        <time>2014-06-14T13:40:26Z</time>
      </trkpt>
      <trkpt lat="43.42555" lon="6.11143">
        <ele>270.96725463867</ele>
        <time>2014-06-14T13:40:32Z</time>
      </trkpt>
      <trkpt lat="43.42569" lon="6.11139">
        <ele>271.9658203125</ele>
        <time>2014-06-14T13:40:38Z</time>
      </trkpt>
      <trkpt lat="43.42574" lon="6.11138">
        <ele>272.24243164062</ele>
        <time>2014-06-14T13:40:40Z</time>
      </trkpt>
      <trkpt lat="43.42587" lon="6.11138">
        <ele>273.19000244141</ele>
        <time>2014-06-14T13:40:47Z</time>
      </trkpt>
      <trkpt lat="43.42596" lon="6.11135">
        <ele>273.65350341797</ele>
        <time>2014-06-14T13:40:51Z</time>
      </trkpt>
      <trkpt lat="43.42612" lon="6.11132">
        <ele>274.56533813477</ele>
        <time>2014-06-14T13:40:59Z</time>
      </trkpt>
      <trkpt lat="43.42614" lon="6.11131">
        <ele>274.71569824219</ele>
        <time>2014-06-14T13:41:00Z</time>
      </trkpt>
      <trkpt lat="43.42628" lon="6.11134">
        <ele>276.02056884766</ele>
        <time>2014-06-14T13:41:07Z</time>
      </trkpt>
      <trkpt lat="43.42635" lon="6.11134">
        <ele>276.46701049805</ele>
        <time>2014-06-14T13:41:10Z</time>
      </trkpt>
      <trkpt lat="43.42639" lon="6.11132">
        <ele>276.78875732422</ele>
        <time>2014-06-14T13:41:12Z</time>
      </trkpt>
      <trkpt lat="43.42651" lon="6.11127">
        <ele>277.41705322266</ele>
        <time>2014-06-14T13:41:18Z</time>
      </trkpt>
      <trkpt lat="43.42675" lon="6.11115">
        <ele>278.42959594727</ele>
        <time>2014-06-14T13:41:31Z</time>
      </trkpt>
      <trkpt lat="43.42679" lon="6.11115">
        <ele>278.56521606445</ele>
        <time>2014-06-14T13:41:33Z</time>
      </trkpt>
      <trkpt lat="43.42685" lon="6.11114">
        <ele>278.76776123047</ele>
        <time>2014-06-14T13:41:36Z</time>
      </trkpt>
      <trkpt lat="43.42688" lon="6.11114">
        <ele>278.89996337891</ele>
        <time>2014-06-14T13:41:38Z</time>
      </trkpt>
      <trkpt lat="43.42698" lon="6.11112">
        <ele>279.16540527344</ele>
        <time>2014-06-14T13:41:43Z</time>
      </trkpt>
      <trkpt lat="43.42702" lon="6.11112">
        <ele>279.30960083008</ele>
        <time>2014-06-14T13:41:45Z</time>
      </trkpt>
      <trkpt lat="43.42724" lon="6.11108">
        <ele>280.06466674805</ele>
        <time>2014-06-14T13:41:57Z</time>
      </trkpt>
      <trkpt lat="43.42749" lon="6.11103">
        <ele>280.68347167969</ele>
        <time>2014-06-14T13:42:10Z</time>
      </trkpt>
      <trkpt lat="43.42778" lon="6.11098">
        <ele>281.53723144531</ele>
        <time>2014-06-14T13:42:25Z</time>
      </trkpt>
      <trkpt lat="43.42793" lon="6.11096">
        <ele>281.54934692383</ele>
        <time>2014-06-14T13:42:32Z</time>
      </trkpt>
      <trkpt lat="43.42812" lon="6.11093">
        <ele>281.74658203125</ele>
        <time>2014-06-14T13:42:42Z</time>
      </trkpt>
      <trkpt lat="43.4283" lon="6.11099">
        <ele>282.99731445312</ele>
        <time>2014-06-14T13:42:51Z</time>
      </trkpt>
      <trkpt lat="43.42832" lon="6.111">
        <ele>283.13516235352</ele>
        <time>2014-06-14T13:42:52Z</time>
      </trkpt>
      <trkpt lat="43.42845" lon="6.11103">
        <ele>283.65087890625</ele>
        <time>2014-06-14T13:42:59Z</time>
      </trkpt>
      <trkpt lat="43.42849" lon="6.11106">
        <ele>283.8395690918</ele>
        <time>2014-06-14T13:43:02Z</time>
      </trkpt>
      <trkpt lat="43.4285" lon="6.11109">
        <ele>283.95391845703</ele>
        <time>2014-06-14T13:43:04Z</time>
      </trkpt>
      <trkpt lat="43.42853" lon="6.11119">
        <ele>283.80624389648</ele>
        <time>2014-06-14T13:43:08Z</time>
      </trkpt>
      <trkpt lat="43.42854" lon="6.11121">
        <ele>283.74877929688</ele>
        <time>2014-06-14T13:43:09Z</time>
      </trkpt>
      <trkpt lat="43.42855" lon="6.11121">
        <ele>283.71478271484</ele>
        <time>2014-06-14T13:43:10Z</time>
      </trkpt>
      <trkpt lat="43.42864" lon="6.11132">
        <ele>283.23934936523</ele>
        <time>2014-06-14T13:43:15Z</time>
      </trkpt>
      <trkpt lat="43.42873" lon="6.11144">
        <ele>282.81533813477</ele>
        <time>2014-06-14T13:43:19Z</time>
      </trkpt>
      <trkpt lat="43.42875" lon="6.11148">
        <ele>282.67630004883</ele>
        <time>2014-06-14T13:43:20Z</time>
      </trkpt>
      <trkpt lat="43.42884" lon="6.11169">
        <ele>282</ele>
        <time>2014-06-14T13:43:26Z</time>
      </trkpt>
      <trkpt lat="43.42889" lon="6.11176">
        <ele>282.00314331055</ele>
        <time>2014-06-14T13:43:28Z</time>
      </trkpt>
      <trkpt lat="43.42891" lon="6.11181">
        <ele>282.03564453125</ele>
        <time>2014-06-14T13:43:29Z</time>
      </trkpt>
      <trkpt lat="43.42897" lon="6.11198">
        <ele>281.8583984375</ele>
        <time>2014-06-14T13:43:32Z</time>
      </trkpt>
      <trkpt lat="43.42898" lon="6.11204">
        <ele>281.64553833008</ele>
        <time>2014-06-14T13:43:33Z</time>
      </trkpt>
      <trkpt lat="43.42896" lon="6.11219">
        <ele>281.10653686523</ele>
        <time>2014-06-14T13:43:36Z</time>
      </trkpt>
      <trkpt lat="43.42891" lon="6.11222">
        <ele>281.01211547852</ele>
        <time>2014-06-14T13:43:38Z</time>
      </trkpt>
      <trkpt lat="43.42888" lon="6.11223">
        <ele>280.92300415039</ele>
        <time>2014-06-14T13:43:39Z</time>
      </trkpt>
      <trkpt lat="43.42883" lon="6.11234">
        <ele>280.35864257812</ele>
        <time>2014-06-14T13:43:42Z</time>
      </trkpt>
      <trkpt lat="43.42881" lon="6.11237">
        <ele>280.21795654297</ele>
        <time>2014-06-14T13:43:43Z</time>
      </trkpt>
      <trkpt lat="43.42871" lon="6.11248">
        <ele>280.34622192383</ele>
        <time>2014-06-14T13:43:48Z</time>
      </trkpt>
      <trkpt lat="43.42858" lon="6.11267">
        <ele>280.50946044922</ele>
        <time>2014-06-14T13:43:55Z</time>
      </trkpt>
      <trkpt lat="43.42853" lon="6.11277">
        <ele>280.32751464844</ele>
        <time>2014-06-14T13:43:59Z</time>
      </trkpt>
      <trkpt lat="43.42849" lon="6.11287">
        <ele>280.43713378906</ele>
        <time>2014-06-14T13:44:02Z</time>
      </trkpt>
      <trkpt lat="43.42846" lon="6.11301">
        <ele>280.56072998047</ele>
        <time>2014-06-14T13:44:05Z</time>
      </trkpt>
      <trkpt lat="43.42837" lon="6.11315">
        <ele>280.41952514648</ele>
        <time>2014-06-14T13:44:09Z</time>
      </trkpt>
      <trkpt lat="43.42832" lon="6.11324">
        <ele>280.3505859375</ele>
        <time>2014-06-14T13:44:11Z</time>
      </trkpt>
      <trkpt lat="43.4283" lon="6.11329">
        <ele>280.15661621094</ele>
        <time>2014-06-14T13:44:12Z</time>
      </trkpt>
      <trkpt lat="43.42827" lon="6.1134">
        <ele>280</ele>
        <time>2014-06-14T13:44:14Z</time>
      </trkpt>
      <trkpt lat="43.42818" lon="6.11362">
        <ele>280</ele>
        <time>2014-06-14T13:44:18Z</time>
      </trkpt>
      <trkpt lat="43.42814" lon="6.11366">
        <ele>280</ele>
        <time>2014-06-14T13:44:19Z</time>
      </trkpt>
      <trkpt lat="43.42801" lon="6.11377">
        <ele>280</ele>
        <time>2014-06-14T13:44:23Z</time>
      </trkpt>
      <trkpt lat="43.42786" lon="6.11388">
        <ele>280</ele>
        <time>2014-06-14T13:44:27Z</time>
      </trkpt>
      <trkpt lat="43.42773" lon="6.11402">
        <ele>280</ele>
        <time>2014-06-14T13:44:31Z</time>
      </trkpt>
      <trkpt lat="43.42762" lon="6.11426">
        <ele>280</ele>
        <time>2014-06-14T13:44:36Z</time>
      </trkpt>
      <trkpt lat="43.42757" lon="6.11433">
        <ele>280</ele>
        <time>2014-06-14T13:44:38Z</time>
      </trkpt>
      <trkpt lat="43.42754" lon="6.1145">
        <ele>279.93280029297</ele>
        <time>2014-06-14T13:44:42Z</time>
      </trkpt>
      <trkpt lat="43.42751" lon="6.11458">
        <ele>279.96658325195</ele>
        <time>2014-06-14T13:44:44Z</time>
      </trkpt>
      <trkpt lat="43.42748" lon="6.11473">
        <ele>279.86141967773</ele>
        <time>2014-06-14T13:44:47Z</time>
      </trkpt>
      <trkpt lat="43.42747" lon="6.11477">
        <ele>279.33786010742</ele>
        <time>2014-06-14T13:44:48Z</time>
      </trkpt>
      <trkpt lat="43.42743" lon="6.11484">
        <ele>278.53546142578</ele>
        <time>2014-06-14T13:44:50Z</time>
      </trkpt>
      <trkpt lat="43.42741" lon="6.11497">
        <ele>277.26544189453</ele>
        <time>2014-06-14T13:44:53Z</time>
      </trkpt>
      <trkpt lat="43.42743" lon="6.11508">
        <ele>276.4801940918</ele>
        <time>2014-06-14T13:44:55Z</time>
      </trkpt>
      <trkpt lat="43.42751" lon="6.11529">
        <ele>274.83349609375</ele>
        <time>2014-06-14T13:44:59Z</time>
      </trkpt>
      <trkpt lat="43.42753" lon="6.11541">
        <ele>273.84130859375</ele>
        <time>2014-06-14T13:45:01Z</time>
      </trkpt>
      <trkpt lat="43.42754" lon="6.11546">
        <ele>273.37438964844</ele>
        <time>2014-06-14T13:45:02Z</time>
      </trkpt>
      <trkpt lat="43.42755" lon="6.11552">
        <ele>272.88342285156</ele>
        <time>2014-06-14T13:45:03Z</time>
      </trkpt>
      <trkpt lat="43.42757" lon="6.1157">
        <ele>271.48608398438</ele>
        <time>2014-06-14T13:45:06Z</time>
      </trkpt>
      <trkpt lat="43.42757" lon="6.11575">
        <ele>271.05694580078</ele>
        <time>2014-06-14T13:45:07Z</time>
      </trkpt>
      <trkpt lat="43.42759" lon="6.11594">
        <ele>269.42706298828</ele>
        <time>2014-06-14T13:45:12Z</time>
      </trkpt>
      <trkpt lat="43.42759" lon="6.11611">
        <ele>268.01977539062</ele>
        <time>2014-06-14T13:45:16Z</time>
      </trkpt>
      <trkpt lat="43.42757" lon="6.11617">
        <ele>267.79962158203</ele>
        <time>2014-06-14T13:45:18Z</time>
      </trkpt>
      <trkpt lat="43.42749" lon="6.1163">
        <ele>267.66064453125</ele>
        <time>2014-06-14T13:45:22Z</time>
      </trkpt>
      <trkpt lat="43.42734" lon="6.1164">
        <ele>267.53158569336</ele>
        <time>2014-06-14T13:45:27Z</time>
      </trkpt>
      <trkpt lat="43.42729" lon="6.11641">
        <ele>267.67578125</ele>
        <time>2014-06-14T13:45:31Z</time>
      </trkpt>
      <trkpt lat="43.42723" lon="6.1165">
        <ele>267.55389404297</ele>
        <time>2014-06-14T13:45:35Z</time>
      </trkpt>
      <trkpt lat="43.42722" lon="6.11654">
        <ele>267.42031860352</ele>
        <time>2014-06-14T13:45:36Z</time>
      </trkpt>
      <trkpt lat="43.42718" lon="6.11664">
        <ele>266.81265258789</ele>
        <time>2014-06-14T13:45:39Z</time>
      </trkpt>
      <trkpt lat="43.42717" lon="6.11669">
        <ele>266.47113037109</ele>
        <time>2014-06-14T13:45:41Z</time>
      </trkpt>
      <trkpt lat="43.42718" lon="6.11676">
        <ele>266.10711669922</ele>
        <time>2014-06-14T13:45:44Z</time>
      </trkpt>
      <trkpt lat="43.42722" lon="6.11682">
        <ele>265.91751098633</ele>
        <time>2014-06-14T13:45:46Z</time>
      </trkpt>
      <trkpt lat="43.42733" lon="6.11694">
        <ele>264.66436767578</ele>
        <time>2014-06-14T13:45:51Z</time>
      </trkpt>
      <trkpt lat="43.42739" lon="6.11702">
        <ele>263.69915771484</ele>
        <time>2014-06-14T13:45:54Z</time>
      </trkpt>
      <trkpt lat="43.4274" lon="6.11703">
        <ele>263.52459716797</ele>
        <time>2014-06-14T13:45:55Z</time>
      </trkpt>
      <trkpt lat="43.42741" lon="6.11705">
        <ele>263.31924438477</ele>
        <time>2014-06-14T13:45:56Z</time>
      </trkpt>
      <trkpt lat="43.42742" lon="6.11706">
        <ele>263.13232421875</ele>
        <time>2014-06-14T13:45:57Z</time>
      </trkpt>
      <trkpt lat="43.42743" lon="6.1171">
        <ele>262.72695922852</ele>
        <time>2014-06-14T13:45:59Z</time>
      </trkpt>
      <trkpt lat="43.42746" lon="6.1171">
        <ele>262.50946044922</ele>
        <time>2014-06-14T13:46:00Z</time>
      </trkpt>
      <trkpt lat="43.42749" lon="6.11709">
        <ele>262.48425292969</ele>
        <time>2014-06-14T13:46:01Z</time>
      </trkpt>
      <trkpt lat="43.42753" lon="6.1171">
        <ele>261.69900512695</ele>
        <time>2014-06-14T13:46:02Z</time>
      </trkpt>
      <trkpt lat="43.42756" lon="6.11712">
        <ele>260.9313659668</ele>
        <time>2014-06-14T13:46:03Z</time>
      </trkpt>
      <trkpt lat="43.42757" lon="6.11715">
        <ele>260.1813659668</ele>
        <time>2014-06-14T13:46:05Z</time>
      </trkpt>
      <trkpt lat="43.42757" lon="6.11715">
        <ele>260.21362304688</ele>
        <time>2014-06-14T13:46:08Z</time>
      </trkpt>
      <trkpt lat="43.42757" lon="6.11715">
        <ele>260.21362304688</ele>
        <time>2014-06-14T13:46:11Z</time>
      </trkpt>
      <trkpt lat="43.42757" lon="6.11716">
        <ele>260.05874633789</ele>
        <time>2014-06-14T13:46:12Z</time>
      </trkpt>
      <trkpt lat="43.42758" lon="6.1172">
        <ele>259.29104614258</ele>
        <time>2014-06-14T13:46:14Z</time>
      </trkpt>
      <trkpt lat="43.4276" lon="6.11722">
        <ele>258.50616455078</ele>
        <time>2014-06-14T13:46:16Z</time>
      </trkpt>
      <trkpt lat="43.42764" lon="6.11722">
        <ele>257.69128417969</ele>
        <time>2014-06-14T13:46:18Z</time>
      </trkpt>
      <trkpt lat="43.42766" lon="6.11721">
        <ele>257.20404052734</ele>
        <time>2014-06-14T13:46:22Z</time>
      </trkpt>
      <trkpt lat="43.42766" lon="6.11721">
        <ele>257.20404052734</ele>
        <time>2014-06-14T13:46:29Z</time>
      </trkpt>
      <trkpt lat="43.42767" lon="6.11721">
        <ele>257.00842285156</ele>
        <time>2014-06-14T13:46:31Z</time>
      </trkpt>
      <trkpt lat="43.42768" lon="6.11721">
        <ele>256.77032470703</ele>
        <time>2014-06-14T13:46:36Z</time>
      </trkpt>
      <trkpt lat="43.42768" lon="6.11721">
        <ele>256.77032470703</ele>
        <time>2014-06-14T13:46:37Z</time>
      </trkpt>
      <trkpt lat="43.42771" lon="6.11719">
        <ele>256.46701049805</ele>
        <time>2014-06-14T13:46:44Z</time>
      </trkpt>
      <trkpt lat="43.42773" lon="6.11716">
        <ele>256.49090576172</ele>
        <time>2014-06-14T13:46:46Z</time>
      </trkpt>
      <trkpt lat="43.42775" lon="6.11714">
        <ele>256.49264526367</ele>
        <time>2014-06-14T13:46:47Z</time>
      </trkpt>
      <trkpt lat="43.42777" lon="6.11712">
        <ele>256.30364990234</ele>
        <time>2014-06-14T13:46:48Z</time>
      </trkpt>
      <trkpt lat="43.42787" lon="6.11703">
        <ele>254.29164123535</ele>
        <time>2014-06-14T13:46:52Z</time>
      </trkpt>
      <trkpt lat="43.42789" lon="6.117">
        <ele>253.85043334961</ele>
        <time>2014-06-14T13:46:53Z</time>
      </trkpt>
      <trkpt lat="43.42793" lon="6.11696">
        <ele>252.8869934082</ele>
        <time>2014-06-14T13:46:54Z</time>
      </trkpt>
      <trkpt lat="43.42795" lon="6.11693">
        <ele>252.19026184082</ele>
        <time>2014-06-14T13:46:55Z</time>
      </trkpt>
      <trkpt lat="43.42799" lon="6.11692">
        <ele>250.55049133301</ele>
        <time>2014-06-14T13:46:56Z</time>
      </trkpt>
      <trkpt lat="43.42801" lon="6.11694">
        <ele>249.2481842041</ele>
        <time>2014-06-14T13:46:57Z</time>
      </trkpt>
      <trkpt lat="43.42803" lon="6.11698">
        <ele>247.94857788086</ele>
        <time>2014-06-14T13:46:58Z</time>
      </trkpt>
      <trkpt lat="43.42805" lon="6.11703">
        <ele>246.39039611816</ele>
        <time>2014-06-14T13:46:59Z</time>
      </trkpt>
      <trkpt lat="43.42807" lon="6.11712">
        <ele>245.3186340332</ele>
        <time>2014-06-14T13:47:00Z</time>
      </trkpt>
      <trkpt lat="43.4281" lon="6.11718">
        <ele>244.25695800781</ele>
        <time>2014-06-14T13:47:01Z</time>
      </trkpt>
      <trkpt lat="43.42811" lon="6.11727">
        <ele>243.38963317871</ele>
        <time>2014-06-14T13:47:02Z</time>
      </trkpt>
      <trkpt lat="43.42812" lon="6.11734">
        <ele>242.60447692871</ele>
        <time>2014-06-14T13:47:03Z</time>
      </trkpt>
      <trkpt lat="43.42811" lon="6.11741">
        <ele>242.19981384277</ele>
        <time>2014-06-14T13:47:04Z</time>
      </trkpt>
      <trkpt lat="43.42804" lon="6.11756">
        <ele>242.0641784668</ele>
        <time>2014-06-14T13:47:07Z</time>
      </trkpt>
      <trkpt lat="43.42802" lon="6.11761">
        <ele>242.19104003906</ele>
        <time>2014-06-14T13:47:08Z</time>
      </trkpt>
      <trkpt lat="43.42793" lon="6.11779">
        <ele>243.29641723633</ele>
        <time>2014-06-14T13:47:14Z</time>
      </trkpt>
      <trkpt lat="43.42794" lon="6.11782">
        <ele>242.67825317383</ele>
        <time>2014-06-14T13:47:15Z</time>
      </trkpt>
      <trkpt lat="43.42797" lon="6.11791">
        <ele>240.75866699219</ele>
        <time>2014-06-14T13:47:17Z</time>
      </trkpt>
      <trkpt lat="43.42804" lon="6.11819">
        <ele>236.28598022461</ele>
        <time>2014-06-14T13:47:23Z</time>
      </trkpt>
      <trkpt lat="43.42805" lon="6.11827">
        <ele>235.52165222168</ele>
        <time>2014-06-14T13:47:25Z</time>
      </trkpt>
      <trkpt lat="43.42804" lon="6.11831">
        <ele>235.54159545898</ele>
        <time>2014-06-14T13:47:26Z</time>
      </trkpt>
      <trkpt lat="43.42801" lon="6.11845">
        <ele>235.3395690918</ele>
        <time>2014-06-14T13:47:30Z</time>
      </trkpt>
      <trkpt lat="43.42799" lon="6.11854">
        <ele>235.51123046875</ele>
        <time>2014-06-14T13:47:33Z</time>
      </trkpt>
      <trkpt lat="43.42798" lon="6.11855">
        <ele>235.5987701416</ele>
        <time>2014-06-14T13:47:34Z</time>
      </trkpt>
      <trkpt lat="43.42796" lon="6.11856">
        <ele>235.84596252441</ele>
        <time>2014-06-14T13:47:35Z</time>
      </trkpt>
      <trkpt lat="43.42788" lon="6.11855">
        <ele>237.46130371094</ele>
        <time>2014-06-14T13:47:40Z</time>
      </trkpt>
      <trkpt lat="43.42777" lon="6.11849">
        <ele>239.59623718262</ele>
        <time>2014-06-14T13:47:46Z</time>
      </trkpt>
      <trkpt lat="43.42768" lon="6.11853">
        <ele>240.80128479004</ele>
        <time>2014-06-14T13:47:51Z</time>
      </trkpt>
      <trkpt lat="43.42764" lon="6.11856">
        <ele>241.20442199707</ele>
        <time>2014-06-14T13:47:54Z</time>
      </trkpt>
      <trkpt lat="43.42759" lon="6.11858">
        <ele>241.51310729981</ele>
        <time>2014-06-14T13:47:58Z</time>
      </trkpt>
      <trkpt lat="43.42753" lon="6.11859">
        <ele>242.03869628906</ele>
        <time>2014-06-14T13:48:02Z</time>
      </trkpt>
      <trkpt lat="43.42751" lon="6.11861">
        <ele>242.03720092773</ele>
        <time>2014-06-14T13:48:04Z</time>
      </trkpt>
      <trkpt lat="43.42749" lon="6.11863">
        <ele>242.05215454102</ele>
        <time>2014-06-14T13:48:06Z</time>
      </trkpt>
      <trkpt lat="43.42746" lon="6.11867">
        <ele>242.82464599609</ele>
        <time>2014-06-14T13:48:10Z</time>
      </trkpt>
      <trkpt lat="43.42744" lon="6.11869">
        <ele>243.1628112793</ele>
        <time>2014-06-14T13:48:12Z</time>
      </trkpt>
      <trkpt lat="43.42738" lon="6.11869">
        <ele>245.57293701172</ele>
        <time>2014-06-14T13:48:17Z</time>
      </trkpt>
      <trkpt lat="43.42729" lon="6.11873">
        <ele>248.25942993164</ele>
        <time>2014-06-14T13:48:22Z</time>
      </trkpt>
      <trkpt lat="43.42719" lon="6.11879">
        <ele>251.07653808594</ele>
        <time>2014-06-14T13:48:30Z</time>
      </trkpt>
      <trkpt lat="43.42715" lon="6.11884">
        <ele>252.40296936035</ele>
        <time>2014-06-14T13:48:34Z</time>
      </trkpt>
      <trkpt lat="43.42702" lon="6.11894">
        <ele>256.43142700195</ele>
        <time>2014-06-14T13:48:42Z</time>
      </trkpt>
      <trkpt lat="43.42701" lon="6.11898">
        <ele>256.66131591797</ele>
        <time>2014-06-14T13:48:44Z</time>
      </trkpt>
      <trkpt lat="43.427" lon="6.11908">
        <ele>256.37548828125</ele>
        <time>2014-06-14T13:48:48Z</time>
      </trkpt>
      <trkpt lat="43.42702" lon="6.1192">
        <ele>254.54188537598</ele>
        <time>2014-06-14T13:48:52Z</time>
      </trkpt>
      <trkpt lat="43.42704" lon="6.11927">
        <ele>253.1844329834</ele>
        <time>2014-06-14T13:48:54Z</time>
      </trkpt>
      <trkpt lat="43.42713" lon="6.11938">
        <ele>248.65576171875</ele>
        <time>2014-06-14T13:48:58Z</time>
      </trkpt>
      <trkpt lat="43.42719" lon="6.11943">
        <ele>245.6838684082</ele>
        <time>2014-06-14T13:49:00Z</time>
      </trkpt>
      <trkpt lat="43.42724" lon="6.11949">
        <ele>243.06846618652</ele>
        <time>2014-06-14T13:49:02Z</time>
      </trkpt>
      <trkpt lat="43.42732" lon="6.11956">
        <ele>241.04216003418</ele>
        <time>2014-06-14T13:49:05Z</time>
      </trkpt>
      <trkpt lat="43.42733" lon="6.11959">
        <ele>240.49021911621</ele>
        <time>2014-06-14T13:49:06Z</time>
      </trkpt>
      <trkpt lat="43.42734" lon="6.11964">
        <ele>239.92691040039</ele>
        <time>2014-06-14T13:49:07Z</time>
      </trkpt>
      <trkpt lat="43.42735" lon="6.11972">
        <ele>239.12438964844</ele>
        <time>2014-06-14T13:49:09Z</time>
      </trkpt>
      <trkpt lat="43.42736" lon="6.11975">
        <ele>238.98399353027</ele>
        <time>2014-06-14T13:49:10Z</time>
      </trkpt>
      <trkpt lat="43.42735" lon="6.11988">
        <ele>238.82914733887</ele>
        <time>2014-06-14T13:49:14Z</time>
      </trkpt>
      <trkpt lat="43.42734" lon="6.12003">
        <ele>238.77046203613</ele>
        <time>2014-06-14T13:49:21Z</time>
      </trkpt>
      <trkpt lat="43.42736" lon="6.12018">
        <ele>238.45014953613</ele>
        <time>2014-06-14T13:49:32Z</time>
      </trkpt>
      <trkpt lat="43.42736" lon="6.12018">
        <ele>238.45014953613</ele>
        <time>2014-06-14T13:49:35Z</time>
      </trkpt>
      <trkpt lat="43.42736" lon="6.12019">
        <ele>238.44934082031</ele>
        <time>2014-06-14T13:49:36Z</time>
      </trkpt>
      <trkpt lat="43.42736" lon="6.12027">
        <ele>238.57835388184</ele>
        <time>2014-06-14T13:49:39Z</time>
      </trkpt>
      <trkpt lat="43.42735" lon="6.12039">
        <ele>238.96771240234</ele>
        <time>2014-06-14T13:49:43Z</time>
      </trkpt>
      <trkpt lat="43.42736" lon="6.12043">
        <ele>238.84519958496</ele>
        <time>2014-06-14T13:49:44Z</time>
      </trkpt>
      <trkpt lat="43.42736" lon="6.12064">
        <ele>239.29956054688</ele>
        <time>2014-06-14T13:49:49Z</time>
      </trkpt>
      <trkpt lat="43.42738" lon="6.12076">
        <ele>239.46951293945</ele>
        <time>2014-06-14T13:49:52Z</time>
      </trkpt>
      <trkpt lat="43.42739" lon="6.12081">
        <ele>239.47294616699</ele>
        <time>2014-06-14T13:49:53Z</time>
      </trkpt>
      <trkpt lat="43.42743" lon="6.1209">
        <ele>239.07446289062</ele>
        <time>2014-06-14T13:49:55Z</time>
      </trkpt>
      <trkpt lat="43.42745" lon="6.12095">
        <ele>238.74487304688</ele>
        <time>2014-06-14T13:49:56Z</time>
      </trkpt>
      <trkpt lat="43.4276" lon="6.12116">
        <ele>235.55444335938</ele>
        <time>2014-06-14T13:50:02Z</time>
      </trkpt>
      <trkpt lat="43.42761" lon="6.12118">
        <ele>235.169921875</ele>
        <time>2014-06-14T13:50:03Z</time>
      </trkpt>
      <trkpt lat="43.42762" lon="6.12125">
        <ele>234.88153076172</ele>
        <time>2014-06-14T13:50:05Z</time>
      </trkpt>
      <trkpt lat="43.42768" lon="6.1214">
        <ele>233.53570556641</ele>
        <time>2014-06-14T13:50:09Z</time>
      </trkpt>
      <trkpt lat="43.42778" lon="6.1216">
        <ele>230.81069946289</ele>
        <time>2014-06-14T13:50:14Z</time>
      </trkpt>
      <trkpt lat="43.4278" lon="6.12162">
        <ele>230.21226501465</ele>
        <time>2014-06-14T13:50:15Z</time>
      </trkpt>
      <trkpt lat="43.42782" lon="6.12164">
        <ele>229.59394836426</ele>
        <time>2014-06-14T13:50:16Z</time>
      </trkpt>
      <trkpt lat="43.42783" lon="6.12165">
        <ele>229.21238708496</ele>
        <time>2014-06-14T13:50:17Z</time>
      </trkpt>
      <trkpt lat="43.42786" lon="6.12167">
        <ele>228.19158935547</ele>
        <time>2014-06-14T13:50:18Z</time>
      </trkpt>
      <trkpt lat="43.42796" lon="6.12171">
        <ele>224.98283386231</ele>
        <time>2014-06-14T13:50:22Z</time>
      </trkpt>
      <trkpt lat="43.42801" lon="6.1217">
        <ele>223.39205932617</ele>
        <time>2014-06-14T13:50:24Z</time>
      </trkpt>
      <trkpt lat="43.42806" lon="6.12169">
        <ele>221.69360351562</ele>
        <time>2014-06-14T13:50:27Z</time>
      </trkpt>
      <trkpt lat="43.42809" lon="6.1217">
        <ele>221.09407043457</ele>
        <time>2014-06-14T13:50:29Z</time>
      </trkpt>
      <trkpt lat="43.42814" lon="6.1217">
        <ele>220.19387817383</ele>
        <time>2014-06-14T13:50:32Z</time>
      </trkpt>
      <trkpt lat="43.42819" lon="6.12169">
        <ele>219.35540771484</ele>
        <time>2014-06-14T13:50:34Z</time>
      </trkpt>
      <trkpt lat="43.42824" lon="6.12169">
        <ele>218.4356842041</ele>
        <time>2014-06-14T13:50:36Z</time>
      </trkpt>
      <trkpt lat="43.42834" lon="6.12168">
        <ele>216.58840942383</ele>
        <time>2014-06-14T13:50:40Z</time>
      </trkpt>
      <trkpt lat="43.42837" lon="6.12168">
        <ele>215.91462707519</ele>
        <time>2014-06-14T13:50:41Z</time>
      </trkpt>
      <trkpt lat="43.42844" lon="6.12167">
        <ele>214.34480285644</ele>
        <time>2014-06-14T13:50:43Z</time>
      </trkpt>
      <trkpt lat="43.42848" lon="6.12167">
        <ele>213.32064819336</ele>
        <time>2014-06-14T13:50:44Z</time>
      </trkpt>
      <trkpt lat="43.42852" lon="6.12167">
        <ele>212.15701293945</ele>
        <time>2014-06-14T13:50:45Z</time>
      </trkpt>
      <trkpt lat="43.42865" lon="6.1217">
        <ele>209.42437744141</ele>
        <time>2014-06-14T13:50:49Z</time>
      </trkpt>
      <trkpt lat="43.4287" lon="6.12168">
        <ele>208.91404724121</ele>
        <time>2014-06-14T13:50:51Z</time>
      </trkpt>
      <trkpt lat="43.42879" lon="6.12166">
        <ele>208.05839538574</ele>
        <time>2014-06-14T13:50:53Z</time>
      </trkpt>
      <trkpt lat="43.42902" lon="6.12159">
        <ele>207.52697753906</ele>
        <time>2014-06-14T13:50:58Z</time>
      </trkpt>
      <trkpt lat="43.42909" lon="6.12147">
        <ele>208.41275024414</ele>
        <time>2014-06-14T13:51:01Z</time>
      </trkpt>
      <trkpt lat="43.42911" lon="6.12143">
        <ele>208.70457458496</ele>
        <time>2014-06-14T13:51:02Z</time>
      </trkpt>
      <trkpt lat="43.42912" lon="6.12133">
        <ele>209.17202758789</ele>
        <time>2014-06-14T13:51:04Z</time>
      </trkpt>
      <trkpt lat="43.4291" lon="6.1212">
        <ele>209.52970886231</ele>
        <time>2014-06-14T13:51:07Z</time>
      </trkpt>
      <trkpt lat="43.4291" lon="6.1211">
        <ele>209.82698059082</ele>
        <time>2014-06-14T13:51:09Z</time>
      </trkpt>
      <trkpt lat="43.42908" lon="6.12093">
        <ele>210.5594329834</ele>
        <time>2014-06-14T13:51:12Z</time>
      </trkpt>
      <trkpt lat="43.42907" lon="6.1207">
        <ele>211.77085876465</ele>
        <time>2014-06-14T13:51:16Z</time>
      </trkpt>
      <trkpt lat="43.42906" lon="6.12065">
        <ele>212.06935119629</ele>
        <time>2014-06-14T13:51:17Z</time>
      </trkpt>
      <trkpt lat="43.42902" lon="6.12049">
        <ele>212.67657470703</ele>
        <time>2014-06-14T13:51:20Z</time>
      </trkpt>
      <trkpt lat="43.429" lon="6.12044">
        <ele>212.84823608398</ele>
        <time>2014-06-14T13:51:21Z</time>
      </trkpt>
      <trkpt lat="43.42899" lon="6.12026">
        <ele>213.42501831055</ele>
        <time>2014-06-14T13:51:24Z</time>
      </trkpt>
      <trkpt lat="43.42898" lon="6.12015">
        <ele>213.79064941406</ele>
        <time>2014-06-14T13:51:26Z</time>
      </trkpt>
      <trkpt lat="43.42896" lon="6.1201">
        <ele>213.91940307617</ele>
        <time>2014-06-14T13:51:27Z</time>
      </trkpt>
      <trkpt lat="43.42893" lon="6.12">
        <ele>214.15629577637</ele>
        <time>2014-06-14T13:51:29Z</time>
      </trkpt>
      <trkpt lat="43.42891" lon="6.11995">
        <ele>214.27989196777</ele>
        <time>2014-06-14T13:51:30Z</time>
      </trkpt>
      <trkpt lat="43.42889" lon="6.1199">
        <ele>214.38624572754</ele>
        <time>2014-06-14T13:51:31Z</time>
      </trkpt>
      <trkpt lat="43.42886" lon="6.11987">
        <ele>214.83943176269</ele>
        <time>2014-06-14T13:51:32Z</time>
      </trkpt>
      <trkpt lat="43.42885" lon="6.11984">
        <ele>215.15014648438</ele>
        <time>2014-06-14T13:51:33Z</time>
      </trkpt>
      <trkpt lat="43.42884" lon="6.11983">
        <ele>215.29089355469</ele>
        <time>2014-06-14T13:51:34Z</time>
      </trkpt>
      <trkpt lat="43.42884" lon="6.11983">
        <ele>215.29089355469</ele>
        <time>2014-06-14T13:51:36Z</time>
      </trkpt>
      <trkpt lat="43.42884" lon="6.11983">
        <ele>215.28918457031</ele>
        <time>2014-06-14T13:51:39Z</time>
      </trkpt>
      <trkpt lat="43.42885" lon="6.11984">
        <ele>215.15701293945</ele>
        <time>2014-06-14T13:51:40Z</time>
      </trkpt>
      <trkpt lat="43.42889" lon="6.1199">
        <ele>214.36743164062</ele>
        <time>2014-06-14T13:51:45Z</time>
      </trkpt>
      <trkpt lat="43.42893" lon="6.11996">
        <ele>214.30563354492</ele>
        <time>2014-06-14T13:51:48Z</time>
      </trkpt>
      <trkpt lat="43.42892" lon="6.11996">
        <ele>214.26272583008</ele>
        <time>2014-06-14T13:51:52Z</time>
      </trkpt>
      <trkpt lat="43.42892" lon="6.11996">
        <ele>214.27474975586</ele>
        <time>2014-06-14T13:51:54Z</time>
      </trkpt>
      <trkpt lat="43.42892" lon="6.11996">
        <ele>214.27474975586</ele>
        <time>2014-06-14T13:51:56Z</time>
      </trkpt>
      <trkpt lat="43.4289" lon="6.11993">
        <ele>214.30908203125</ele>
        <time>2014-06-14T13:51:59Z</time>
      </trkpt>
      <trkpt lat="43.42885" lon="6.11984">
        <ele>215.16902160644</ele>
        <time>2014-06-14T13:52:03Z</time>
      </trkpt>
      <trkpt lat="43.42884" lon="6.11981">
        <ele>215.3801574707</ele>
        <time>2014-06-14T13:52:04Z</time>
      </trkpt>
      <trkpt lat="43.42881" lon="6.11967">
        <ele>216.39468383789</ele>
        <time>2014-06-14T13:52:09Z</time>
      </trkpt>
      <trkpt lat="43.42878" lon="6.11944">
        <ele>217.64933776856</ele>
        <time>2014-06-14T13:52:15Z</time>
      </trkpt>
      <trkpt lat="43.42877" lon="6.1194">
        <ele>217.84892272949</ele>
        <time>2014-06-14T13:52:16Z</time>
      </trkpt>
      <trkpt lat="43.42877" lon="6.11936">
        <ele>218.09014892578</ele>
        <time>2014-06-14T13:52:17Z</time>
      </trkpt>
      <trkpt lat="43.42876" lon="6.11927">
        <ele>218.57124328613</ele>
        <time>2014-06-14T13:52:19Z</time>
      </trkpt>
      <trkpt lat="43.42877" lon="6.11917">
        <ele>218.84716796875</ele>
        <time>2014-06-14T13:52:21Z</time>
      </trkpt>
      <trkpt lat="43.42877" lon="6.11912">
        <ele>218.97418212891</ele>
        <time>2014-06-14T13:52:22Z</time>
      </trkpt>
      <trkpt lat="43.42877" lon="6.11908">
        <ele>219.1114654541</ele>
        <time>2014-06-14T13:52:23Z</time>
      </trkpt>
      <trkpt lat="43.42876" lon="6.11899">
        <ele>219.49789428711</ele>
        <time>2014-06-14T13:52:25Z</time>
      </trkpt>
      <trkpt lat="43.42875" lon="6.11892">
        <ele>219.93688964844</ele>
        <time>2014-06-14T13:52:27Z</time>
      </trkpt>
      <trkpt lat="43.42873" lon="6.1189">
        <ele>220.25067138672</ele>
        <time>2014-06-14T13:52:28Z</time>
      </trkpt>
      <trkpt lat="43.42872" lon="6.11884">
        <ele>220.78590393066</ele>
        <time>2014-06-14T13:52:31Z</time>
      </trkpt>
      <trkpt lat="43.42871" lon="6.11883">
        <ele>220.95756530762</ele>
        <time>2014-06-14T13:52:32Z</time>
      </trkpt>
      <trkpt lat="43.42871" lon="6.11881">
        <ele>221.10176086426</ele>
        <time>2014-06-14T13:52:34Z</time>
      </trkpt>
      <trkpt lat="43.42872" lon="6.11879">
        <ele>221.13609313965</ele>
        <time>2014-06-14T13:52:35Z</time>
      </trkpt>
      <trkpt lat="43.42872" lon="6.11877">
        <ele>221.25968933106</ele>
        <time>2014-06-14T13:52:36Z</time>
      </trkpt>
      <trkpt lat="43.42874" lon="6.11872">
        <ele>221.32148742676</ele>
        <time>2014-06-14T13:52:38Z</time>
      </trkpt>
      <trkpt lat="43.42874" lon="6.11863">
        <ele>221.95663452148</ele>
        <time>2014-06-14T13:52:41Z</time>
      </trkpt>
      <trkpt lat="43.42873" lon="6.1186">
        <ele>222.25450134277</ele>
        <time>2014-06-14T13:52:42Z</time>
      </trkpt>
      <trkpt lat="43.42871" lon="6.11855">
        <ele>222.77191162109</ele>
        <time>2014-06-14T13:52:44Z</time>
      </trkpt>
      <trkpt lat="43.42868" lon="6.1185">
        <ele>223.24363708496</ele>
        <time>2014-06-14T13:52:46Z</time>
      </trkpt>
      <trkpt lat="43.42868" lon="6.11847">
        <ele>223.3132019043</ele>
        <time>2014-06-14T13:52:47Z</time>
      </trkpt>
      <trkpt lat="43.42869" lon="6.11839">
        <ele>223.38935852051</ele>
        <time>2014-06-14T13:52:49Z</time>
      </trkpt>
      <trkpt lat="43.4287" lon="6.11827">
        <ele>224.66883850098</ele>
        <time>2014-06-14T13:52:52Z</time>
      </trkpt>
      <trkpt lat="43.42871" lon="6.11822">
        <ele>225.34660339356</ele>
        <time>2014-06-14T13:52:53Z</time>
      </trkpt>
      <trkpt lat="43.42872" lon="6.11816">
        <ele>226.33915710449</ele>
        <time>2014-06-14T13:52:54Z</time>
      </trkpt>
      <trkpt lat="43.42872" lon="6.11811">
        <ele>227.38204956055</ele>
        <time>2014-06-14T13:52:55Z</time>
      </trkpt>
      <trkpt lat="43.42873" lon="6.11806">
        <ele>228.20903015137</ele>
        <time>2014-06-14T13:52:56Z</time>
      </trkpt>
      <trkpt lat="43.42874" lon="6.11801">
        <ele>229.21629333496</ele>
        <time>2014-06-14T13:52:57Z</time>
      </trkpt>
      <trkpt lat="43.42875" lon="6.11796">
        <ele>230.22091674805</ele>
        <time>2014-06-14T13:52:58Z</time>
      </trkpt>
      <trkpt lat="43.42875" lon="6.11792">
        <ele>231.28576660156</ele>
        <time>2014-06-14T13:52:59Z</time>
      </trkpt>
      <trkpt lat="43.42875" lon="6.11787">
        <ele>232.40100097656</ele>
        <time>2014-06-14T13:53:00Z</time>
      </trkpt>
      <trkpt lat="43.42875" lon="6.11783">
        <ele>233.40373229981</ele>
        <time>2014-06-14T13:53:01Z</time>
      </trkpt>
      <trkpt lat="43.42874" lon="6.11779">
        <ele>234.3024597168</ele>
        <time>2014-06-14T13:53:02Z</time>
      </trkpt>
      <trkpt lat="43.42874" lon="6.11776">
        <ele>234.62200927734</ele>
        <time>2014-06-14T13:53:03Z</time>
      </trkpt>
      <trkpt lat="43.42874" lon="6.11774">
        <ele>234.65664672852</ele>
        <time>2014-06-14T13:53:04Z</time>
      </trkpt>
      <trkpt lat="43.42874" lon="6.11773">
        <ele>234.67839050293</ele>
        <time>2014-06-14T13:53:05Z</time>
      </trkpt>
      <trkpt lat="43.42874" lon="6.11773">
        <ele>234.67839050293</ele>
        <time>2014-06-14T13:53:10Z</time>
      </trkpt>
      <trkpt lat="43.42875" lon="6.11772">
        <ele>234.65629577637</ele>
        <time>2014-06-14T13:53:19Z</time>
      </trkpt>
      <trkpt lat="43.42875" lon="6.1177">
        <ele>234.64793395996</ele>
        <time>2014-06-14T13:53:21Z</time>
      </trkpt>
      <trkpt lat="43.42877" lon="6.11768">
        <ele>234.46937561035</ele>
        <time>2014-06-14T13:53:26Z</time>
      </trkpt>
      <trkpt lat="43.42877" lon="6.11768">
        <ele>234.46937561035</ele>
        <time>2014-06-14T13:53:28Z</time>
      </trkpt>
      <trkpt lat="43.42878" lon="6.11768">
        <ele>234.43612670898</ele>
        <time>2014-06-14T13:53:30Z</time>
      </trkpt>
      <trkpt lat="43.42878" lon="6.11768">
        <ele>234.43612670898</ele>
        <time>2014-06-14T13:53:38Z</time>
      </trkpt>
      <trkpt lat="43.42878" lon="6.11767">
        <ele>234.45748901367</ele>
        <time>2014-06-14T13:53:47Z</time>
      </trkpt>
      <trkpt lat="43.42878" lon="6.11768">
        <ele>234.38323974609</ele>
        <time>2014-06-14T13:53:55Z</time>
      </trkpt>
      <trkpt lat="43.42879" lon="6.1177">
        <ele>234.20843505859</ele>
        <time>2014-06-14T13:54:00Z</time>
      </trkpt>
      <trkpt lat="43.42882" lon="6.11771">
        <ele>233.90646362305</ele>
        <time>2014-06-14T13:54:06Z</time>
      </trkpt>
      <trkpt lat="43.42885" lon="6.11773">
        <ele>233.57487487793</ele>
        <time>2014-06-14T13:54:12Z</time>
      </trkpt>
      <trkpt lat="43.42887" lon="6.11775">
        <ele>233.26850891113</ele>
        <time>2014-06-14T13:54:17Z</time>
      </trkpt>
      <trkpt lat="43.42887" lon="6.11775">
        <ele>233.26850891113</ele>
        <time>2014-06-14T13:54:35Z</time>
      </trkpt>
      <trkpt lat="43.42887" lon="6.11776">
        <ele>233.2604675293</ele>
        <time>2014-06-14T13:54:38Z</time>
      </trkpt>
      <trkpt lat="43.42887" lon="6.11776">
        <ele>233.2604675293</ele>
        <time>2014-06-14T13:54:59Z</time>
      </trkpt>
      <trkpt lat="43.42887" lon="6.11777">
        <ele>233.18115234375</ele>
        <time>2014-06-14T13:55:00Z</time>
      </trkpt>
      <trkpt lat="43.42889" lon="6.11779">
        <ele>232.72554016113</ele>
        <time>2014-06-14T13:55:01Z</time>
      </trkpt>
      <trkpt lat="43.42891" lon="6.11782">
        <ele>231.81285095215</ele>
        <time>2014-06-14T13:55:02Z</time>
      </trkpt>
      <trkpt lat="43.42894" lon="6.1179">
        <ele>229.52833557129</ele>
        <time>2014-06-14T13:55:04Z</time>
      </trkpt>
      <trkpt lat="43.42897" lon="6.118">
        <ele>226.65414428711</ele>
        <time>2014-06-14T13:55:06Z</time>
      </trkpt>
      <trkpt lat="43.42897" lon="6.11805">
        <ele>225.24209594727</ele>
        <time>2014-06-14T13:55:07Z</time>
      </trkpt>
      <trkpt lat="43.42896" lon="6.11811">
        <ele>224.35633850098</ele>
        <time>2014-06-14T13:55:08Z</time>
      </trkpt>
      <trkpt lat="43.42895" lon="6.1182">
        <ele>222.8434753418</ele>
        <time>2014-06-14T13:55:10Z</time>
      </trkpt>
      <trkpt lat="43.42895" lon="6.11823">
        <ele>222.19598388672</ele>
        <time>2014-06-14T13:55:11Z</time>
      </trkpt>
      <trkpt lat="43.42895" lon="6.11828">
        <ele>221.43185424805</ele>
        <time>2014-06-14T13:55:12Z</time>
      </trkpt>
      <trkpt lat="43.429" lon="6.11862">
        <ele>220.32249450684</ele>
        <time>2014-06-14T13:55:19Z</time>
      </trkpt>
      <trkpt lat="43.42905" lon="6.11878">
        <ele>219.3440246582</ele>
        <time>2014-06-14T13:55:22Z</time>
      </trkpt>
      <trkpt lat="43.42907" lon="6.11884">
        <ele>219.01443481445</ele>
        <time>2014-06-14T13:55:23Z</time>
      </trkpt>
      <trkpt lat="43.42909" lon="6.1189">
        <ele>218.73266601562</ele>
        <time>2014-06-14T13:55:24Z</time>
      </trkpt>
      <trkpt lat="43.42914" lon="6.119">
        <ele>218.8974609375</ele>
        <time>2014-06-14T13:55:26Z</time>
      </trkpt>
      <trkpt lat="43.42918" lon="6.11919">
        <ele>218.90986633301</ele>
        <time>2014-06-14T13:55:30Z</time>
      </trkpt>
      <trkpt lat="43.4292" lon="6.11927">
        <ele>218.36054992676</ele>
        <time>2014-06-14T13:55:33Z</time>
      </trkpt>
      <trkpt lat="43.4292" lon="6.1193">
        <ele>218.11679077148</ele>
        <time>2014-06-14T13:55:34Z</time>
      </trkpt>
      <trkpt lat="43.42923" lon="6.11941">
        <ele>217.4850769043</ele>
        <time>2014-06-14T13:55:37Z</time>
      </trkpt>
      <trkpt lat="43.42929" lon="6.11956">
        <ele>217.05221557617</ele>
        <time>2014-06-14T13:55:41Z</time>
      </trkpt>
      <trkpt lat="43.42933" lon="6.11967">
        <ele>216.76727294922</ele>
        <time>2014-06-14T13:55:43Z</time>
      </trkpt>
      <trkpt lat="43.42937" lon="6.11985">
        <ele>216.28146362305</ele>
        <time>2014-06-14T13:55:46Z</time>
      </trkpt>
      <trkpt lat="43.42941" lon="6.12007">
        <ele>215.39367675781</ele>
        <time>2014-06-14T13:55:50Z</time>
      </trkpt>
      <trkpt lat="43.42947" lon="6.12016">
        <ele>214.77220153809</ele>
        <time>2014-06-14T13:55:52Z</time>
      </trkpt>
      <trkpt lat="43.42953" lon="6.12032">
        <ele>213.5451965332</ele>
        <time>2014-06-14T13:55:55Z</time>
      </trkpt>
      <trkpt lat="43.42965" lon="6.1208">
        <ele>210.50219726562</ele>
        <time>2014-06-14T13:56:03Z</time>
      </trkpt>
      <trkpt lat="43.42974" lon="6.12113">
        <ele>207.84761047363</ele>
        <time>2014-06-14T13:56:08Z</time>
      </trkpt>
      <trkpt lat="43.42978" lon="6.12127">
        <ele>207.24850463867</ele>
        <time>2014-06-14T13:56:10Z</time>
      </trkpt>
      <trkpt lat="43.42988" lon="6.12166">
        <ele>204.89926147461</ele>
        <time>2014-06-14T13:56:16Z</time>
      </trkpt>
      <trkpt lat="43.4299" lon="6.12173">
        <ele>204.44664001465</ele>
        <time>2014-06-14T13:56:17Z</time>
      </trkpt>
      <trkpt lat="43.42994" lon="6.12185">
        <ele>203.64918518066</ele>
        <time>2014-06-14T13:56:19Z</time>
      </trkpt>
      <trkpt lat="43.43" lon="6.12204">
        <ele>202.6522064209</ele>
        <time>2014-06-14T13:56:22Z</time>
      </trkpt>
      <trkpt lat="43.43001" lon="6.12211">
        <ele>202.39581298828</ele>
        <time>2014-06-14T13:56:23Z</time>
      </trkpt>
      <trkpt lat="43.43005" lon="6.12233">
        <ele>201.22950744629</ele>
        <time>2014-06-14T13:56:28Z</time>
      </trkpt>
      <trkpt lat="43.43009" lon="6.12245">
        <ele>200.34373474121</ele>
        <time>2014-06-14T13:56:31Z</time>
      </trkpt>
      <trkpt lat="43.43013" lon="6.12255">
        <ele>199.80279541016</ele>
        <time>2014-06-14T13:56:33Z</time>
      </trkpt>
      <trkpt lat="43.43017" lon="6.12271">
        <ele>199.25691223144</ele>
        <time>2014-06-14T13:56:36Z</time>
      </trkpt>
      <trkpt lat="43.43019" lon="6.12282">
        <ele>198.95747375488</ele>
        <time>2014-06-14T13:56:38Z</time>
      </trkpt>
      <trkpt lat="43.43021" lon="6.12295">
        <ele>198.8434753418</ele>
        <time>2014-06-14T13:56:41Z</time>
      </trkpt>
      <trkpt lat="43.4302" lon="6.12311">
        <ele>198.37721252441</ele>
        <time>2014-06-14T13:56:45Z</time>
      </trkpt>
      <trkpt lat="43.4302" lon="6.1232">
        <ele>197.84806823731</ele>
        <time>2014-06-14T13:56:47Z</time>
      </trkpt>
      <trkpt lat="43.43022" lon="6.12331">
        <ele>197.11865234375</ele>
        <time>2014-06-14T13:56:49Z</time>
      </trkpt>
      <trkpt lat="43.43024" lon="6.12344">
        <ele>196.58038330078</ele>
        <time>2014-06-14T13:56:51Z</time>
      </trkpt>
      <trkpt lat="43.43028" lon="6.12364">
        <ele>195.89422607422</ele>
        <time>2014-06-14T13:56:55Z</time>
      </trkpt>
      <trkpt lat="43.43029" lon="6.12371">
        <ele>195.70196533203</ele>
        <time>2014-06-14T13:56:57Z</time>
      </trkpt>
      <trkpt lat="43.43027" lon="6.12377">
        <ele>195.42388916016</ele>
        <time>2014-06-14T13:56:59Z</time>
      </trkpt>
      <trkpt lat="43.43026" lon="6.12378">
        <ele>195.32946777344</ele>
        <time>2014-06-14T13:57:00Z</time>
      </trkpt>
      <trkpt lat="43.43021" lon="6.12381">
        <ele>195.07025146484</ele>
        <time>2014-06-14T13:57:03Z</time>
      </trkpt>
      <trkpt lat="43.43015" lon="6.1238">
        <ele>194.86254882812</ele>
        <time>2014-06-14T13:57:06Z</time>
      </trkpt>
      <trkpt lat="43.43013" lon="6.12379">
        <ele>194.84710693359</ele>
        <time>2014-06-14T13:57:07Z</time>
      </trkpt>
      <trkpt lat="43.43007" lon="6.12369">
        <ele>194.94665527344</ele>
        <time>2014-06-14T13:57:12Z</time>
      </trkpt>
      <trkpt lat="43.43001" lon="6.1236">
        <ele>195.09722900391</ele>
        <time>2014-06-14T13:57:17Z</time>
      </trkpt>
      <trkpt lat="43.43" lon="6.12357">
        <ele>195.3074798584</ele>
        <time>2014-06-14T13:57:18Z</time>
      </trkpt>
      <trkpt lat="43.42993" lon="6.12338">
        <ele>196.65237426758</ele>
        <time>2014-06-14T13:57:24Z</time>
      </trkpt>
      <trkpt lat="43.4299" lon="6.12332">
        <ele>197.0510559082</ele>
        <time>2014-06-14T13:57:26Z</time>
      </trkpt>
      <trkpt lat="43.42982" lon="6.12314">
        <ele>197.70852661133</ele>
        <time>2014-06-14T13:57:31Z</time>
      </trkpt>
      <trkpt lat="43.4298" lon="6.1231">
        <ele>197.84414672852</ele>
        <time>2014-06-14T13:57:32Z</time>
      </trkpt>
      <trkpt lat="43.42971" lon="6.12297">
        <ele>198.36880493164</ele>
        <time>2014-06-14T13:57:36Z</time>
      </trkpt>
      <trkpt lat="43.42966" lon="6.12295">
        <ele>198.83227539062</ele>
        <time>2014-06-14T13:57:38Z</time>
      </trkpt>
      <trkpt lat="43.4296" lon="6.12299">
        <ele>199.09320068359</ele>
        <time>2014-06-14T13:57:40Z</time>
      </trkpt>
      <trkpt lat="43.42948" lon="6.12303">
        <ele>199.80903625488</ele>
        <time>2014-06-14T13:57:44Z</time>
      </trkpt>
      <trkpt lat="43.42939" lon="6.12303">
        <ele>200.30123901367</ele>
        <time>2014-06-14T13:57:47Z</time>
      </trkpt>
      <trkpt lat="43.42929" lon="6.12298">
        <ele>200.82479858398</ele>
        <time>2014-06-14T13:57:51Z</time>
      </trkpt>
      <trkpt lat="43.4292" lon="6.12292">
        <ele>201.39128112793</ele>
        <time>2014-06-14T13:57:55Z</time>
      </trkpt>
      <trkpt lat="43.42904" lon="6.12292">
        <ele>201.94403076172</ele>
        <time>2014-06-14T13:58:00Z</time>
      </trkpt>
      <trkpt lat="43.42899" lon="6.12296">
        <ele>202.00239562988</ele>
        <time>2014-06-14T13:58:02Z</time>
      </trkpt>
      <trkpt lat="43.42886" lon="6.12312">
        <ele>201.65118408203</ele>
        <time>2014-06-14T13:58:08Z</time>
      </trkpt>
      <trkpt lat="43.42883" lon="6.12315">
        <ele>201.56260681152</ele>
        <time>2014-06-14T13:58:09Z</time>
      </trkpt>
      <trkpt lat="43.42872" lon="6.12327">
        <ele>201.5233001709</ele>
        <time>2014-06-14T13:58:14Z</time>
      </trkpt>
      <trkpt lat="43.42868" lon="6.12335">
        <ele>201.4034576416</ele>
        <time>2014-06-14T13:58:16Z</time>
      </trkpt>
      <trkpt lat="43.42863" lon="6.12342">
        <ele>201.14971923828</ele>
        <time>2014-06-14T13:58:18Z</time>
      </trkpt>
      <trkpt lat="43.42858" lon="6.1235">
        <ele>201.01945495606</ele>
        <time>2014-06-14T13:58:20Z</time>
      </trkpt>
      <trkpt lat="43.42852" lon="6.12357">
        <ele>200.94735717773</ele>
        <time>2014-06-14T13:58:22Z</time>
      </trkpt>
      <trkpt lat="43.42848" lon="6.12363">
        <ele>200.71719360352</ele>
        <time>2014-06-14T13:58:24Z</time>
      </trkpt>
      <trkpt lat="43.42846" lon="6.12367">
        <ele>200.56156921387</ele>
        <time>2014-06-14T13:58:25Z</time>
      </trkpt>
      <trkpt lat="43.42844" lon="6.12372">
        <ele>200.32806396484</ele>
        <time>2014-06-14T13:58:26Z</time>
      </trkpt>
      <trkpt lat="43.42842" lon="6.12376">
        <ele>200.14546203613</ele>
        <time>2014-06-14T13:58:27Z</time>
      </trkpt>
      <trkpt lat="43.42841" lon="6.12379">
        <ele>199.94898986816</ele>
        <time>2014-06-14T13:58:28Z</time>
      </trkpt>
      <trkpt lat="43.4284" lon="6.12383">
        <ele>199.80940246582</ele>
        <time>2014-06-14T13:58:29Z</time>
      </trkpt>
      <trkpt lat="43.42839" lon="6.12385">
        <ele>199.7091217041</ele>
        <time>2014-06-14T13:58:30Z</time>
      </trkpt>
      <trkpt lat="43.42837" lon="6.12391">
        <ele>199.24328613281</ele>
        <time>2014-06-14T13:58:32Z</time>
      </trkpt>
      <trkpt lat="43.42836" lon="6.12394">
        <ele>198.77914428711</ele>
        <time>2014-06-14T13:58:33Z</time>
      </trkpt>
      <trkpt lat="43.42833" lon="6.12399">
        <ele>198.09358215332</ele>
        <time>2014-06-14T13:58:35Z</time>
      </trkpt>
      <trkpt lat="43.42832" lon="6.12401">
        <ele>197.84664916992</ele>
        <time>2014-06-14T13:58:36Z</time>
      </trkpt>
      <trkpt lat="43.42832" lon="6.12402">
        <ele>197.71684265137</ele>
        <time>2014-06-14T13:58:38Z</time>
      </trkpt>
      <trkpt lat="43.42832" lon="6.12402">
        <ele>197.71684265137</ele>
        <time>2014-06-14T13:58:54Z</time>
      </trkpt>
      <trkpt lat="43.42832" lon="6.12402">
        <ele>197.71684265137</ele>
        <time>2014-06-14T13:59:16Z</time>
      </trkpt>
      <trkpt lat="43.42834" lon="6.12403">
        <ele>197.43991088867</ele>
        <time>2014-06-14T13:59:27Z</time>
      </trkpt>
      <trkpt lat="43.42834" lon="6.12403">
        <ele>197.43991088867</ele>
        <time>2014-06-14T13:59:30Z</time>
      </trkpt>
      <trkpt lat="43.42834" lon="6.12402">
        <ele>197.43046569824</ele>
        <time>2014-06-14T13:59:31Z</time>
      </trkpt>
      <trkpt lat="43.42834" lon="6.12403">
        <ele>197.45721435547</ele>
        <time>2014-06-14T13:59:32Z</time>
      </trkpt>
      <trkpt lat="43.42834" lon="6.12403">
        <ele>197.45721435547</ele>
        <time>2014-06-14T14:00:03Z</time>
      </trkpt>
      <trkpt lat="43.42834" lon="6.12403">
        <ele>197.47451782227</ele>
        <time>2014-06-14T14:00:12Z</time>
      </trkpt>
      <trkpt lat="43.42834" lon="6.12403">
        <ele>197.47451782227</ele>
        <time>2014-06-14T14:00:20Z</time>
      </trkpt>
      <trkpt lat="43.42831" lon="6.12409">
        <ele>196.60801696777</ele>
        <time>2014-06-14T14:00:29Z</time>
      </trkpt>
      <trkpt lat="43.42827" lon="6.12415">
        <ele>195.74914550781</ele>
        <time>2014-06-14T14:00:32Z</time>
      </trkpt>
      <trkpt lat="43.42822" lon="6.12422">
        <ele>194.81646728516</ele>
        <time>2014-06-14T14:00:36Z</time>
      </trkpt>
      <trkpt lat="43.42809" lon="6.12437">
        <ele>192.99169921875</ele>
        <time>2014-06-14T14:00:42Z</time>
      </trkpt>
      <trkpt lat="43.42807" lon="6.1244">
        <ele>192.64321899414</ele>
        <time>2014-06-14T14:00:43Z</time>
      </trkpt>
      <trkpt lat="43.42786" lon="6.12459">
        <ele>191.72839355469</ele>
        <time>2014-06-14T14:00:49Z</time>
      </trkpt>
      <trkpt lat="43.42779" lon="6.12464">
        <ele>191.14735412598</ele>
        <time>2014-06-14T14:00:51Z</time>
      </trkpt>
      <trkpt lat="43.42771" lon="6.12467">
        <ele>191.09545898438</ele>
        <time>2014-06-14T14:00:53Z</time>
      </trkpt>
      <trkpt lat="43.42763" lon="6.1247">
        <ele>190.81207275391</ele>
        <time>2014-06-14T14:00:55Z</time>
      </trkpt>
      <trkpt lat="43.42747" lon="6.12474">
        <ele>191.05838012695</ele>
        <time>2014-06-14T14:00:59Z</time>
      </trkpt>
      <trkpt lat="43.42728" lon="6.12475">
        <ele>192.25196838379</ele>
        <time>2014-06-14T14:01:04Z</time>
      </trkpt>
      <trkpt lat="43.42724" lon="6.12474">
        <ele>192.58726501465</ele>
        <time>2014-06-14T14:01:05Z</time>
      </trkpt>
      <trkpt lat="43.42709" lon="6.12475">
        <ele>192.2176361084</ele>
        <time>2014-06-14T14:01:09Z</time>
      </trkpt>
      <trkpt lat="43.42693" lon="6.12475">
        <ele>191.66000366211</ele>
        <time>2014-06-14T14:01:13Z</time>
      </trkpt>
      <trkpt lat="43.42679" lon="6.12475">
        <ele>191.71994018555</ele>
        <time>2014-06-14T14:01:16Z</time>
      </trkpt>
      <trkpt lat="43.42667" lon="6.12474">
        <ele>191.87660217285</ele>
        <time>2014-06-14T14:01:19Z</time>
      </trkpt>
      <trkpt lat="43.42662" lon="6.12473">
        <ele>191.77223205566</ele>
        <time>2014-06-14T14:01:20Z</time>
      </trkpt>
      <trkpt lat="43.42649" lon="6.12468">
        <ele>192.11999511719</ele>
        <time>2014-06-14T14:01:23Z</time>
      </trkpt>
      <trkpt lat="43.42631" lon="6.12452">
        <ele>193.87168884277</ele>
        <time>2014-06-14T14:01:28Z</time>
      </trkpt>
      <trkpt lat="43.42628" lon="6.12448">
        <ele>194.21655273438</ele>
        <time>2014-06-14T14:01:29Z</time>
      </trkpt>
      <trkpt lat="43.42621" lon="6.1244">
        <ele>194.42947387695</ele>
        <time>2014-06-14T14:01:31Z</time>
      </trkpt>
      <trkpt lat="43.42613" lon="6.12427">
        <ele>194.54600524902</ele>
        <time>2014-06-14T14:01:34Z</time>
      </trkpt>
      <trkpt lat="43.42608" lon="6.12417">
        <ele>194.61795043945</ele>
        <time>2014-06-14T14:01:36Z</time>
      </trkpt>
      <trkpt lat="43.42598" lon="6.12404">
        <ele>195.3196105957</ele>
        <time>2014-06-14T14:01:39Z</time>
      </trkpt>
      <trkpt lat="43.4259" lon="6.12396">
        <ele>195.70413208008</ele>
        <time>2014-06-14T14:01:41Z</time>
      </trkpt>
      <trkpt lat="43.42586" lon="6.1239">
        <ele>196.12298583984</ele>
        <time>2014-06-14T14:01:42Z</time>
      </trkpt>
      <trkpt lat="43.4257" lon="6.12362">
        <ele>194.53369140625</ele>
        <time>2014-06-14T14:01:47Z</time>
      </trkpt>
      <trkpt lat="43.42564" lon="6.1235">
        <ele>195.15663146973</ele>
        <time>2014-06-14T14:01:49Z</time>
      </trkpt>
      <trkpt lat="43.42554" lon="6.1233">
        <ele>196.08047485352</ele>
        <time>2014-06-14T14:01:52Z</time>
      </trkpt>
      <trkpt lat="43.42545" lon="6.12309">
        <ele>197.06237792969</ele>
        <time>2014-06-14T14:01:55Z</time>
      </trkpt>
      <trkpt lat="43.42542" lon="6.12303">
        <ele>197.28393554688</ele>
        <time>2014-06-14T14:01:56Z</time>
      </trkpt>
      <trkpt lat="43.4253" lon="6.12275">
        <ele>196.86669921875</ele>
        <time>2014-06-14T14:02:00Z</time>
      </trkpt>
      <trkpt lat="43.4252" lon="6.12247">
        <ele>198.09240722656</ele>
        <time>2014-06-14T14:02:04Z</time>
      </trkpt>
      <trkpt lat="43.42504" lon="6.1221">
        <ele>199.08569335938</ele>
        <time>2014-06-14T14:02:10Z</time>
      </trkpt>
      <trkpt lat="43.42501" lon="6.12205">
        <ele>198.74085998535</ele>
        <time>2014-06-14T14:02:11Z</time>
      </trkpt>
      <trkpt lat="43.42485" lon="6.12171">
        <ele>199.94590759277</ele>
        <time>2014-06-14T14:02:17Z</time>
      </trkpt>
      <trkpt lat="43.42458" lon="6.12132">
        <ele>197.28207397461</ele>
        <time>2014-06-14T14:02:25Z</time>
      </trkpt>
      <trkpt lat="43.4245" lon="6.12114">
        <ele>197.38258361816</ele>
        <time>2014-06-14T14:02:28Z</time>
      </trkpt>
      <trkpt lat="43.42428" lon="6.12085">
        <ele>196.13349914551</ele>
        <time>2014-06-14T14:02:34Z</time>
      </trkpt>
      <trkpt lat="43.42413" lon="6.12057">
        <ele>195.68650817871</ele>
        <time>2014-06-14T14:02:39Z</time>
      </trkpt>
      <trkpt lat="43.424" lon="6.12028">
        <ele>195.82040405273</ele>
        <time>2014-06-14T14:02:44Z</time>
      </trkpt>
      <trkpt lat="43.42395" lon="6.12009">
        <ele>196.08476257324</ele>
        <time>2014-06-14T14:02:47Z</time>
      </trkpt>
      <trkpt lat="43.42381" lon="6.11956">
        <ele>197.29742431641</ele>
        <time>2014-06-14T14:02:55Z</time>
      </trkpt>
      <trkpt lat="43.42377" lon="6.11942">
        <ele>197.67166137695</ele>
        <time>2014-06-14T14:02:57Z</time>
      </trkpt>
      <trkpt lat="43.42371" lon="6.11915">
        <ele>198.39091491699</ele>
        <time>2014-06-14T14:03:01Z</time>
      </trkpt>
      <trkpt lat="43.42362" lon="6.11883">
        <ele>199.25079345703</ele>
        <time>2014-06-14T14:03:06Z</time>
      </trkpt>
      <trkpt lat="43.42357" lon="6.11864">
        <ele>199.75047302246</ele>
        <time>2014-06-14T14:03:09Z</time>
      </trkpt>
      <trkpt lat="43.42355" lon="6.11857">
        <ele>199.81974792481</ele>
        <time>2014-06-14T14:03:10Z</time>
      </trkpt>
      <trkpt lat="43.42353" lon="6.11851">
        <ele>199.81983947754</ele>
        <time>2014-06-14T14:03:11Z</time>
      </trkpt>
      <trkpt lat="43.42349" lon="6.11839">
        <ele>199.92004394531</ele>
        <time>2014-06-14T14:03:13Z</time>
      </trkpt>
      <trkpt lat="43.42337" lon="6.11807">
        <ele>205.03556823731</ele>
        <time>2014-06-14T14:03:18Z</time>
      </trkpt>
      <trkpt lat="43.42334" lon="6.118">
        <ele>206.86126708984</ele>
        <time>2014-06-14T14:03:19Z</time>
      </trkpt>
      <trkpt lat="43.42311" lon="6.11763">
        <ele>216.02947998047</ele>
        <time>2014-06-14T14:03:25Z</time>
      </trkpt>
      <trkpt lat="43.42295" lon="6.11738">
        <ele>220.83093261719</ele>
        <time>2014-06-14T14:03:29Z</time>
      </trkpt>
      <trkpt lat="43.42281" lon="6.11721">
        <ele>221.66735839844</ele>
        <time>2014-06-14T14:03:32Z</time>
      </trkpt>
      <trkpt lat="43.42271" lon="6.1171">
        <ele>222.16133117676</ele>
        <time>2014-06-14T14:03:34Z</time>
      </trkpt>
      <trkpt lat="43.42258" lon="6.11693">
        <ele>223.30513000488</ele>
        <time>2014-06-14T14:03:37Z</time>
      </trkpt>
      <trkpt lat="43.42241" lon="6.1167">
        <ele>221.03233337402</ele>
        <time>2014-06-14T14:03:41Z</time>
      </trkpt>
      <trkpt lat="43.42225" lon="6.11647">
        <ele>216.57830810547</ele>
        <time>2014-06-14T14:03:45Z</time>
      </trkpt>
      <trkpt lat="43.42213" lon="6.11629">
        <ele>214.00012207031</ele>
        <time>2014-06-14T14:03:48Z</time>
      </trkpt>
      <trkpt lat="43.42202" lon="6.1161">
        <ele>212.73385620117</ele>
        <time>2014-06-14T14:03:51Z</time>
      </trkpt>
      <trkpt lat="43.42141" lon="6.1151">
        <ele>201.98721313477</ele>
        <time>2014-06-14T14:04:07Z</time>
      </trkpt>
      <trkpt lat="43.42127" lon="6.11484">
        <ele>202.24468994141</ele>
        <time>2014-06-14T14:04:11Z</time>
      </trkpt>
      <trkpt lat="43.42108" lon="6.11452">
        <ele>201.83930969238</ele>
        <time>2014-06-14T14:04:16Z</time>
      </trkpt>
      <trkpt lat="43.42093" lon="6.11419">
        <ele>201.01089477539</ele>
        <time>2014-06-14T14:04:21Z</time>
      </trkpt>
      <trkpt lat="43.42064" lon="6.11369">
        <ele>198.39854431152</ele>
        <time>2014-06-14T14:04:27Z</time>
      </trkpt>
      <trkpt lat="43.42026" lon="6.11306">
        <ele>195.87626647949</ele>
        <time>2014-06-14T14:04:35Z</time>
      </trkpt>
      <trkpt lat="43.41991" lon="6.11256">
        <ele>194</ele>
        <time>2014-06-14T14:04:42Z</time>
      </trkpt>
      <trkpt lat="43.41977" lon="6.11236">
        <ele>194.15159606934</ele>
        <time>2014-06-14T14:04:45Z</time>
      </trkpt>
      <trkpt lat="43.41953" lon="6.11203">
        <ele>194</ele>
        <time>2014-06-14T14:04:50Z</time>
      </trkpt>
      <trkpt lat="43.41945" lon="6.11189">
        <ele>194.00323486328</ele>
        <time>2014-06-14T14:04:52Z</time>
      </trkpt>
      <trkpt lat="43.41932" lon="6.11161">
        <ele>194</ele>
        <time>2014-06-14T14:04:56Z</time>
      </trkpt>
      <trkpt lat="43.41929" lon="6.11154">
        <ele>194</ele>
        <time>2014-06-14T14:04:57Z</time>
      </trkpt>
      <trkpt lat="43.41919" lon="6.11114">
        <ele>194</ele>
        <time>2014-06-14T14:05:02Z</time>
      </trkpt>
      <trkpt lat="43.41921" lon="6.11074">
        <ele>194.10624694824</ele>
        <time>2014-06-14T14:05:07Z</time>
      </trkpt>
      <trkpt lat="43.41926" lon="6.11012">
        <ele>194.32922363281</ele>
        <time>2014-06-14T14:05:15Z</time>
      </trkpt>
      <trkpt lat="43.41926" lon="6.11004">
        <ele>194.34295654297</ele>
        <time>2014-06-14T14:05:16Z</time>
      </trkpt>
      <trkpt lat="43.41925" lon="6.10983">
        <ele>194.91925048828</ele>
        <time>2014-06-14T14:05:19Z</time>
      </trkpt>
      <trkpt lat="43.41922" lon="6.10962">
        <ele>195.17816162109</ele>
        <time>2014-06-14T14:05:22Z</time>
      </trkpt>
      <trkpt lat="43.41914" lon="6.10927">
        <ele>195</ele>
        <time>2014-06-14T14:05:27Z</time>
      </trkpt>
      <trkpt lat="43.41905" lon="6.10882">
        <ele>195</ele>
        <time>2014-06-14T14:05:33Z</time>
      </trkpt>
      <trkpt lat="43.41908" lon="6.10834">
        <ele>195</ele>
        <time>2014-06-14T14:05:39Z</time>
      </trkpt>
      <trkpt lat="43.41916" lon="6.10766">
        <ele>195.04156494141</ele>
        <time>2014-06-14T14:05:48Z</time>
      </trkpt>
      <trkpt lat="43.41921" lon="6.10732">
        <ele>195.30139160156</ele>
        <time>2014-06-14T14:05:53Z</time>
      </trkpt>
      <trkpt lat="43.41927" lon="6.10709">
        <ele>195.55879211426</ele>
        <time>2014-06-14T14:05:57Z</time>
      </trkpt>
      <trkpt lat="43.41932" lon="6.10696">
        <ele>195.57035827637</ele>
        <time>2014-06-14T14:05:59Z</time>
      </trkpt>
      <trkpt lat="43.4195" lon="6.10645">
        <ele>196.58319091797</ele>
        <time>2014-06-14T14:06:06Z</time>
      </trkpt>
      <trkpt lat="43.41973" lon="6.10579">
        <ele>197.92532348633</ele>
        <time>2014-06-14T14:06:15Z</time>
      </trkpt>
      <trkpt lat="43.41986" lon="6.1053">
        <ele>198.04386901856</ele>
        <time>2014-06-14T14:06:22Z</time>
      </trkpt>
      <trkpt lat="43.41989" lon="6.10459">
        <ele>196.93617248535</ele>
        <time>2014-06-14T14:06:31Z</time>
      </trkpt>
      <trkpt lat="43.41993" lon="6.10414">
        <ele>196.75994873047</ele>
        <time>2014-06-14T14:06:37Z</time>
      </trkpt>
      <trkpt lat="43.42002" lon="6.10358">
        <ele>196.17947387695</ele>
        <time>2014-06-14T14:06:45Z</time>
      </trkpt>
      <trkpt lat="43.42009" lon="6.10306">
        <ele>196.64599609375</ele>
        <time>2014-06-14T14:06:52Z</time>
      </trkpt>
      <trkpt lat="43.42015" lon="6.10256">
        <ele>197.1212310791</ele>
        <time>2014-06-14T14:06:59Z</time>
      </trkpt>
      <trkpt lat="43.4202" lon="6.1023">
        <ele>197</ele>
        <time>2014-06-14T14:07:03Z</time>
      </trkpt>
      <trkpt lat="43.42021" lon="6.10217">
        <ele>197</ele>
        <time>2014-06-14T14:07:05Z</time>
      </trkpt>
      <trkpt lat="43.42026" lon="6.1017">
        <ele>197</ele>
        <time>2014-06-14T14:07:12Z</time>
      </trkpt>
      <trkpt lat="43.42033" lon="6.10115">
        <ele>197.20190429688</ele>
        <time>2014-06-14T14:07:20Z</time>
      </trkpt>
      <trkpt lat="43.42042" lon="6.10054">
        <ele>197</ele>
        <time>2014-06-14T14:07:28Z</time>
      </trkpt>
      <trkpt lat="43.42051" lon="6.10007">
        <ele>197.61352539062</ele>
        <time>2014-06-14T14:07:34Z</time>
      </trkpt>
      <trkpt lat="43.42063" lon="6.09954">
        <ele>198.51867675781</ele>
        <time>2014-06-14T14:07:41Z</time>
      </trkpt>
      <trkpt lat="43.42078" lon="6.09908">
        <ele>199.875</ele>
        <time>2014-06-14T14:07:47Z</time>
      </trkpt>
      <trkpt lat="43.42084" lon="6.09894">
        <ele>200</ele>
        <time>2014-06-14T14:07:49Z</time>
      </trkpt>
      <trkpt lat="43.42092" lon="6.09856">
        <ele>200</ele>
        <time>2014-06-14T14:07:54Z</time>
      </trkpt>
      <trkpt lat="43.42093" lon="6.09848">
        <ele>200</ele>
        <time>2014-06-14T14:07:55Z</time>
      </trkpt>
      <trkpt lat="43.42093" lon="6.09825">
        <ele>200</ele>
        <time>2014-06-14T14:07:58Z</time>
      </trkpt>
      <trkpt lat="43.42085" lon="6.09768">
        <ele>202.49113464356</ele>
        <time>2014-06-14T14:08:05Z</time>
      </trkpt>
      <trkpt lat="43.4207" lon="6.09723">
        <ele>209.19290161133</ele>
        <time>2014-06-14T14:08:11Z</time>
      </trkpt>
      <trkpt lat="43.42055" lon="6.09698">
        <ele>206.69049072266</ele>
        <time>2014-06-14T14:08:15Z</time>
      </trkpt>
      <trkpt lat="43.42046" lon="6.09688">
        <ele>206.57353210449</ele>
        <time>2014-06-14T14:08:17Z</time>
      </trkpt>
      <trkpt lat="43.42008" lon="6.09664">
        <ele>205.46957397461</ele>
        <time>2014-06-14T14:08:24Z</time>
      </trkpt>
      <trkpt lat="43.41975" lon="6.09658">
        <ele>207.15223693848</ele>
        <time>2014-06-14T14:08:29Z</time>
      </trkpt>
      <trkpt lat="43.41919" lon="6.0965">
        <ele>206.73152160644</ele>
        <time>2014-06-14T14:08:38Z</time>
      </trkpt>
      <trkpt lat="43.41878" lon="6.09647">
        <ele>202.21577453613</ele>
        <time>2014-06-14T14:08:45Z</time>
      </trkpt>
      <trkpt lat="43.41842" lon="6.09642">
        <ele>200.26351928711</ele>
        <time>2014-06-14T14:08:51Z</time>
      </trkpt>
      <trkpt lat="43.41835" lon="6.09639">
        <ele>200.07403564453</ele>
        <time>2014-06-14T14:08:52Z</time>
      </trkpt>
      <trkpt lat="43.41814" lon="6.09619">
        <ele>200</ele>
        <time>2014-06-14T14:08:56Z</time>
      </trkpt>
      <trkpt lat="43.41807" lon="6.09605">
        <ele>200</ele>
        <time>2014-06-14T14:08:58Z</time>
      </trkpt>
      <trkpt lat="43.41796" lon="6.09582">
        <ele>200</ele>
        <time>2014-06-14T14:09:01Z</time>
      </trkpt>
      <trkpt lat="43.41771" lon="6.09528">
        <ele>199.76739501953</ele>
        <time>2014-06-14T14:09:08Z</time>
      </trkpt>
      <trkpt lat="43.41757" lon="6.0948">
        <ele>200</ele>
        <time>2014-06-14T14:09:14Z</time>
      </trkpt>
      <trkpt lat="43.41742" lon="6.09417">
        <ele>200.44467163086</ele>
        <time>2014-06-14T14:09:22Z</time>
      </trkpt>
      <trkpt lat="43.4173" lon="6.09363">
        <ele>202.96492004394</ele>
        <time>2014-06-14T14:09:29Z</time>
      </trkpt>
      <trkpt lat="43.41725" lon="6.09331">
        <ele>203.63816833496</ele>
        <time>2014-06-14T14:09:33Z</time>
      </trkpt>
      <trkpt lat="43.41722" lon="6.09231">
        <ele>204.30490112305</ele>
        <time>2014-06-14T14:09:45Z</time>
      </trkpt>
      <trkpt lat="43.41722" lon="6.09222">
        <ele>203.97082519531</ele>
        <time>2014-06-14T14:09:46Z</time>
      </trkpt>
      <trkpt lat="43.41721" lon="6.09148">
        <ele>204.81860351562</ele>
        <time>2014-06-14T14:09:55Z</time>
      </trkpt>
      <trkpt lat="43.41721" lon="6.09083">
        <ele>204.90515136719</ele>
        <time>2014-06-14T14:10:03Z</time>
      </trkpt>
      <trkpt lat="43.41723" lon="6.0904">
        <ele>205.05946350098</ele>
        <time>2014-06-14T14:10:08Z</time>
      </trkpt>
      <trkpt lat="43.41725" lon="6.09023">
        <ele>205.27593994141</ele>
        <time>2014-06-14T14:10:10Z</time>
      </trkpt>
      <trkpt lat="43.41733" lon="6.08966">
        <ele>206.22021484375</ele>
        <time>2014-06-14T14:10:17Z</time>
      </trkpt>
      <trkpt lat="43.41736" lon="6.08919">
        <ele>207.01586914062</ele>
        <time>2014-06-14T14:10:23Z</time>
      </trkpt>
      <trkpt lat="43.41731" lon="6.08877">
        <ele>207.12405395508</ele>
        <time>2014-06-14T14:10:28Z</time>
      </trkpt>
      <trkpt lat="43.41729" lon="6.0887">
        <ele>207.34378051758</ele>
        <time>2014-06-14T14:10:29Z</time>
      </trkpt>
      <trkpt lat="43.41711" lon="6.08834">
        <ele>206.833984375</ele>
        <time>2014-06-14T14:10:34Z</time>
      </trkpt>
      <trkpt lat="43.41685" lon="6.0879">
        <ele>207.11654663086</ele>
        <time>2014-06-14T14:10:41Z</time>
      </trkpt>
      <trkpt lat="43.41661" lon="6.08745">
        <ele>207.78553771973</ele>
        <time>2014-06-14T14:10:49Z</time>
      </trkpt>
      <trkpt lat="43.4164" lon="6.08704">
        <ele>207.77435302734</ele>
        <time>2014-06-14T14:10:56Z</time>
      </trkpt>
      <trkpt lat="43.41615" lon="6.08655">
        <ele>205.03198242188</ele>
        <time>2014-06-14T14:11:04Z</time>
      </trkpt>
      <trkpt lat="43.41608" lon="6.08634">
        <ele>205.03881835938</ele>
        <time>2014-06-14T14:11:07Z</time>
      </trkpt>
      <trkpt lat="43.41602" lon="6.08607">
        <ele>205.50491333008</ele>
        <time>2014-06-14T14:11:11Z</time>
      </trkpt>
      <trkpt lat="43.41594" lon="6.08547">
        <ele>206.73571777344</ele>
        <time>2014-06-14T14:11:19Z</time>
      </trkpt>
      <trkpt lat="43.41584" lon="6.08474">
        <ele>207.98963928223</ele>
        <time>2014-06-14T14:11:28Z</time>
      </trkpt>
      <trkpt lat="43.41571" lon="6.08393">
        <ele>208.08364868164</ele>
        <time>2014-06-14T14:11:38Z</time>
      </trkpt>
      <trkpt lat="43.41563" lon="6.08352">
        <ele>207.84887695312</ele>
        <time>2014-06-14T14:11:43Z</time>
      </trkpt>
      <trkpt lat="43.41551" lon="6.08285">
        <ele>207.31909179688</ele>
        <time>2014-06-14T14:11:51Z</time>
      </trkpt>
      <trkpt lat="43.41537" lon="6.08241">
        <ele>206.56065368652</ele>
        <time>2014-06-14T14:11:57Z</time>
      </trkpt>
      <trkpt lat="43.41516" lon="6.08199">
        <ele>205.12623596191</ele>
        <time>2014-06-14T14:12:04Z</time>
      </trkpt>
      <trkpt lat="43.41508" lon="6.08182">
        <ele>204.99356079102</ele>
        <time>2014-06-14T14:12:07Z</time>
      </trkpt>
      <trkpt lat="43.41502" lon="6.08172">
        <ele>204.98327636719</ele>
        <time>2014-06-14T14:12:09Z</time>
      </trkpt>
      <trkpt lat="43.41495" lon="6.08161">
        <ele>204.64953613281</ele>
        <time>2014-06-14T14:12:11Z</time>
      </trkpt>
      <trkpt lat="43.41488" lon="6.0815">
        <ele>204.10021972656</ele>
        <time>2014-06-14T14:12:13Z</time>
      </trkpt>
      <trkpt lat="43.4146" lon="6.08108">
        <ele>204.19706726074</ele>
        <time>2014-06-14T14:12:20Z</time>
      </trkpt>
      <trkpt lat="43.41438" lon="6.08071">
        <ele>204.11247253418</ele>
        <time>2014-06-14T14:12:26Z</time>
      </trkpt>
      <trkpt lat="43.4141" lon="6.08021">
        <ele>204.58532714844</ele>
        <time>2014-06-14T14:12:34Z</time>
      </trkpt>
      <trkpt lat="43.41378" lon="6.07966">
        <ele>204.71296691894</ele>
        <time>2014-06-14T14:12:43Z</time>
      </trkpt>
      <trkpt lat="43.41356" lon="6.07935">
        <ele>205.13854980469</ele>
        <time>2014-06-14T14:12:49Z</time>
      </trkpt>
      <trkpt lat="43.41339" lon="6.07918">
        <ele>205.16256713867</ele>
        <time>2014-06-14T14:12:53Z</time>
      </trkpt>
      <trkpt lat="43.41334" lon="6.07906">
        <ele>205.01574707031</ele>
        <time>2014-06-14T14:12:55Z</time>
      </trkpt>
      <trkpt lat="43.41328" lon="6.07879">
        <ele>205.56788635254</ele>
        <time>2014-06-14T14:12:59Z</time>
      </trkpt>
      <trkpt lat="43.41325" lon="6.07872">
        <ele>205.90434265137</ele>
        <time>2014-06-14T14:13:00Z</time>
      </trkpt>
      <trkpt lat="43.41307" lon="6.07811">
        <ele>207.74487304688</ele>
        <time>2014-06-14T14:13:08Z</time>
      </trkpt>
      <trkpt lat="43.41304" lon="6.07797">
        <ele>207.96192932129</ele>
        <time>2014-06-14T14:13:10Z</time>
      </trkpt>
      <trkpt lat="43.41296" lon="6.07764">
        <ele>208</ele>
        <time>2014-06-14T14:13:15Z</time>
      </trkpt>
      <trkpt lat="43.41291" lon="6.07731">
        <ele>208.32739257812</ele>
        <time>2014-06-14T14:13:20Z</time>
      </trkpt>
      <trkpt lat="43.41291" lon="6.07717">
        <ele>208.58633422852</ele>
        <time>2014-06-14T14:13:22Z</time>
      </trkpt>
      <trkpt lat="43.41296" lon="6.07676">
        <ele>209.42826843262</ele>
        <time>2014-06-14T14:13:28Z</time>
      </trkpt>
      <trkpt lat="43.41313" lon="6.07623">
        <ele>210.57525634766</ele>
        <time>2014-06-14T14:13:36Z</time>
      </trkpt>
      <trkpt lat="43.41329" lon="6.07566">
        <ele>211.61288452148</ele>
        <time>2014-06-14T14:13:44Z</time>
      </trkpt>
      <trkpt lat="43.41342" lon="6.07511">
        <ele>212.30413818359</ele>
        <time>2014-06-14T14:13:52Z</time>
      </trkpt>
      <trkpt lat="43.41354" lon="6.07451">
        <ele>213</ele>
        <time>2014-06-14T14:14:00Z</time>
      </trkpt>
      <trkpt lat="43.41364" lon="6.07393">
        <ele>213</ele>
        <time>2014-06-14T14:14:08Z</time>
      </trkpt>
      <trkpt lat="43.41374" lon="6.07347">
        <ele>213</ele>
        <time>2014-06-14T14:14:16Z</time>
      </trkpt>
      <trkpt lat="43.41376" lon="6.0734">
        <ele>213</ele>
        <time>2014-06-14T14:14:17Z</time>
      </trkpt>
      <trkpt lat="43.41377" lon="6.07333">
        <ele>213</ele>
        <time>2014-06-14T14:14:18Z</time>
      </trkpt>
      <trkpt lat="43.41389" lon="6.07287">
        <ele>213.02075195312</ele>
        <time>2014-06-14T14:14:25Z</time>
      </trkpt>
      <trkpt lat="43.41424" lon="6.07181">
        <ele>214.25671386719</ele>
        <time>2014-06-14T14:14:41Z</time>
      </trkpt>
      <trkpt lat="43.41428" lon="6.07167">
        <ele>214.40777587891</ele>
        <time>2014-06-14T14:14:43Z</time>
      </trkpt>
      <trkpt lat="43.41433" lon="6.07153">
        <ele>214.57257080078</ele>
        <time>2014-06-14T14:14:45Z</time>
      </trkpt>
      <trkpt lat="43.41442" lon="6.07127">
        <ele>214.90216064453</ele>
        <time>2014-06-14T14:14:49Z</time>
      </trkpt>
      <trkpt lat="43.41455" lon="6.07091">
        <ele>215</ele>
        <time>2014-06-14T14:14:55Z</time>
      </trkpt>
      <trkpt lat="43.41461" lon="6.07079">
        <ele>215.173828125</ele>
        <time>2014-06-14T14:14:58Z</time>
      </trkpt>
      <trkpt lat="43.41463" lon="6.07077">
        <ele>215.2356262207</ele>
        <time>2014-06-14T14:14:59Z</time>
      </trkpt>
      <trkpt lat="43.41465" lon="6.07075">
        <ele>215.30601501465</ele>
        <time>2014-06-14T14:15:03Z</time>
      </trkpt>
      <trkpt lat="43.41465" lon="6.07075">
        <ele>215.30601501465</ele>
        <time>2014-06-14T14:15:23Z</time>
      </trkpt>
      <trkpt lat="43.41465" lon="6.07075">
        <ele>215.30601501465</ele>
        <time>2014-06-14T14:15:39Z</time>
      </trkpt>
      <trkpt lat="43.41465" lon="6.07075">
        <ele>215.29228210449</ele>
        <time>2014-06-14T14:16:15Z</time>
      </trkpt>
      <trkpt lat="43.41465" lon="6.07075">
        <ele>215.29228210449</ele>
        <time>2014-06-14T14:16:35Z</time>
      </trkpt>
      <trkpt lat="43.41465" lon="6.07075">
        <ele>215.30944824219</ele>
        <time>2014-06-14T14:16:52Z</time>
      </trkpt>
      <trkpt lat="43.41465" lon="6.07075">
        <ele>215.30944824219</ele>
        <time>2014-06-14T14:17:17Z</time>
      </trkpt>
      <trkpt lat="43.41465" lon="6.07075">
        <ele>215.30944824219</ele>
        <time>2014-06-14T14:17:31Z</time>
      </trkpt>
      <trkpt lat="43.41465" lon="6.07075">
        <ele>215.31115722656</ele>
        <time>2014-06-14T14:17:36Z</time>
      </trkpt>
      <trkpt lat="43.41465" lon="6.07075">
        <ele>215.31115722656</ele>
        <time>2014-06-14T14:17:45Z</time>
      </trkpt>
      <trkpt lat="43.41465" lon="6.07075">
        <ele>215.31115722656</ele>
        <time>2014-06-14T14:18:11Z</time>
      </trkpt>
      <trkpt lat="43.41465" lon="6.07075">
        <ele>215.29914855957</ele>
        <time>2014-06-14T14:18:12Z</time>
      </trkpt>
      <trkpt lat="43.41465" lon="6.07075">
        <ele>215.29914855957</ele>
        <time>2014-06-14T14:18:41Z</time>
      </trkpt>
      <trkpt lat="43.41467" lon="6.07074">
        <ele>215.32147216797</ele>
        <time>2014-06-14T14:19:43Z</time>
      </trkpt>
      <trkpt lat="43.41467" lon="6.07074">
        <ele>215.32147216797</ele>
        <time>2014-06-14T14:20:02Z</time>
      </trkpt>
      <trkpt lat="43.41467" lon="6.07075">
        <ele>215.29914855957</ele>
        <time>2014-06-14T14:20:16Z</time>
      </trkpt>
      <trkpt lat="43.41467" lon="6.07075">
        <ele>215.29914855957</ele>
        <time>2014-06-14T14:20:39Z</time>
      </trkpt>
      <trkpt lat="43.41467" lon="6.07075">
        <ele>215.28713989258</ele>
        <time>2014-06-14T14:21:40Z</time>
      </trkpt>
      <trkpt lat="43.41467" lon="6.07075">
        <ele>215.29914855957</ele>
        <time>2014-06-14T14:22:59Z</time>
      </trkpt>
      <trkpt lat="43.41467" lon="6.07075">
        <ele>215.29914855957</ele>
        <time>2014-06-14T14:23:28Z</time>
      </trkpt>
      <trkpt lat="43.41466" lon="6.07075">
        <ele>215.29742431641</ele>
        <time>2014-06-14T14:23:44Z</time>
      </trkpt>
      <trkpt lat="43.41466" lon="6.07075">
        <ele>215.29742431641</ele>
        <time>2014-06-14T14:24:11Z</time>
      </trkpt>
      <trkpt lat="43.41467" lon="6.07072">
        <ele>215.41931152344</ele>
        <time>2014-06-14T14:24:16Z</time>
      </trkpt>
      <trkpt lat="43.41466" lon="6.0707">
        <ele>215.4776763916</ele>
        <time>2014-06-14T14:24:17Z</time>
      </trkpt>
      <trkpt lat="43.4147" lon="6.07059">
        <ele>215.8776550293</ele>
        <time>2014-06-14T14:24:21Z</time>
      </trkpt>
      <trkpt lat="43.41472" lon="6.07053">
        <ele>216</ele>
        <time>2014-06-14T14:24:23Z</time>
      </trkpt>
      <trkpt lat="43.41478" lon="6.07043">
        <ele>216.20678710938</ele>
        <time>2014-06-14T14:24:27Z</time>
      </trkpt>
      <trkpt lat="43.41486" lon="6.07023">
        <ele>216.59927368164</ele>
        <time>2014-06-14T14:24:33Z</time>
      </trkpt>
      <trkpt lat="43.41494" lon="6.06991">
        <ele>217</ele>
        <time>2014-06-14T14:24:41Z</time>
      </trkpt>
      <trkpt lat="43.41493" lon="6.06973">
        <ele>217</ele>
        <time>2014-06-14T14:24:46Z</time>
      </trkpt>
      <trkpt lat="43.41498" lon="6.0696">
        <ele>217.02839660644</ele>
        <time>2014-06-14T14:24:50Z</time>
      </trkpt>
      <trkpt lat="43.41502" lon="6.06949">
        <ele>217.08569335938</ele>
        <time>2014-06-14T14:24:53Z</time>
      </trkpt>
      <trkpt lat="43.41505" lon="6.06931">
        <ele>217.16809082031</ele>
        <time>2014-06-14T14:24:58Z</time>
      </trkpt>
      <trkpt lat="43.41506" lon="6.06924">
        <ele>217.20928955078</ele>
        <time>2014-06-14T14:25:00Z</time>
      </trkpt>
      <trkpt lat="43.41506" lon="6.06921">
        <ele>217.22302246094</ele>
        <time>2014-06-14T14:25:01Z</time>
      </trkpt>
      <trkpt lat="43.4151" lon="6.06913">
        <ele>217.44084167481</ele>
        <time>2014-06-14T14:25:04Z</time>
      </trkpt>
      <trkpt lat="43.41512" lon="6.06907">
        <ele>217.61303710938</ele>
        <time>2014-06-14T14:25:08Z</time>
      </trkpt>
      <trkpt lat="43.41512" lon="6.06907">
        <ele>217.62005615234</ele>
        <time>2014-06-14T14:25:15Z</time>
      </trkpt>
      <trkpt lat="43.41512" lon="6.06905">
        <ele>217.65116882324</ele>
        <time>2014-06-14T14:25:21Z</time>
      </trkpt>
      <trkpt lat="43.41512" lon="6.06905">
        <ele>217.65116882324</ele>
        <time>2014-06-14T14:25:22Z</time>
      </trkpt>
      <trkpt lat="43.41512" lon="6.06904">
        <ele>217.68092346191</ele>
        <time>2014-06-14T14:25:24Z</time>
      </trkpt>
      <trkpt lat="43.41512" lon="6.06904">
        <ele>217.69146728516</ele>
        <time>2014-06-14T14:25:26Z</time>
      </trkpt>
      <trkpt lat="43.41512" lon="6.06904">
        <ele>217.69146728516</ele>
        <time>2014-06-14T14:25:33Z</time>
      </trkpt>
      <trkpt lat="43.41513" lon="6.06904">
        <ele>217.71427917481</ele>
        <time>2014-06-14T14:25:35Z</time>
      </trkpt>
      <trkpt lat="43.41518" lon="6.06905">
        <ele>217.78601074219</ele>
        <time>2014-06-14T14:25:37Z</time>
      </trkpt>
      <trkpt lat="43.41528" lon="6.0691">
        <ele>218</ele>
        <time>2014-06-14T14:25:41Z</time>
      </trkpt>
      <trkpt lat="43.41531" lon="6.06912">
        <ele>218</ele>
        <time>2014-06-14T14:25:42Z</time>
      </trkpt>
      <trkpt lat="43.41551" lon="6.06922">
        <ele>218</ele>
        <time>2014-06-14T14:25:49Z</time>
      </trkpt>
      <trkpt lat="43.41567" lon="6.06932">
        <ele>218.42028808594</ele>
        <time>2014-06-14T14:25:55Z</time>
      </trkpt>
      <trkpt lat="43.41587" lon="6.06941">
        <ele>219.14813232422</ele>
        <time>2014-06-14T14:26:02Z</time>
      </trkpt>
      <trkpt lat="43.41592" lon="6.06944">
        <ele>219.31292724609</ele>
        <time>2014-06-14T14:26:04Z</time>
      </trkpt>
      <trkpt lat="43.4161" lon="6.06953">
        <ele>219.95837402344</ele>
        <time>2014-06-14T14:26:11Z</time>
      </trkpt>
      <trkpt lat="43.41632" lon="6.06963">
        <ele>220.24685668945</ele>
        <time>2014-06-14T14:26:19Z</time>
      </trkpt>
      <trkpt lat="43.41646" lon="6.0697">
        <ele>220.56953430176</ele>
        <time>2014-06-14T14:26:24Z</time>
      </trkpt>
      <trkpt lat="43.41668" lon="6.0698">
        <ele>221.73867797852</ele>
        <time>2014-06-14T14:26:32Z</time>
      </trkpt>
      <trkpt lat="43.41677" lon="6.06985">
        <ele>221.93780517578</ele>
        <time>2014-06-14T14:26:36Z</time>
      </trkpt>
      <trkpt lat="43.41682" lon="6.06987">
        <ele>222.02020263672</ele>
        <time>2014-06-14T14:26:38Z</time>
      </trkpt>
      <trkpt lat="43.41687" lon="6.0699">
        <ele>222.10430908203</ele>
        <time>2014-06-14T14:26:40Z</time>
      </trkpt>
      <trkpt lat="43.41691" lon="6.06995">
        <ele>222.04251098633</ele>
        <time>2014-06-14T14:26:42Z</time>
      </trkpt>
      <trkpt lat="43.41698" lon="6.07024">
        <ele>222.01838684082</ele>
        <time>2014-06-14T14:26:49Z</time>
      </trkpt>
      <trkpt lat="43.41706" lon="6.07055">
        <ele>221.43873596191</ele>
        <time>2014-06-14T14:26:56Z</time>
      </trkpt>
      <trkpt lat="43.41718" lon="6.07082">
        <ele>220.89501953125</ele>
        <time>2014-06-14T14:27:02Z</time>
      </trkpt>
      <trkpt lat="43.4173" lon="6.07092">
        <ele>220.98944091797</ele>
        <time>2014-06-14T14:27:06Z</time>
      </trkpt>
      <trkpt lat="43.41754" lon="6.07096">
        <ele>221.69325256348</ele>
        <time>2014-06-14T14:27:12Z</time>
      </trkpt>
      <trkpt lat="43.41775" lon="6.071">
        <ele>222.29406738281</ele>
        <time>2014-06-14T14:27:18Z</time>
      </trkpt>
      <trkpt lat="43.41802" lon="6.07104">
        <ele>223.11804199219</ele>
        <time>2014-06-14T14:27:26Z</time>
      </trkpt>
      <trkpt lat="43.41822" lon="6.07119">
        <ele>223.30000305176</ele>
        <time>2014-06-14T14:27:33Z</time>
      </trkpt>
      <trkpt lat="43.4184" lon="6.07133">
        <ele>223.97262573242</ele>
        <time>2014-06-14T14:27:40Z</time>
      </trkpt>
      <trkpt lat="43.41846" lon="6.07145">
        <ele>224.32122802734</ele>
        <time>2014-06-14T14:27:45Z</time>
      </trkpt>
      <trkpt lat="43.41846" lon="6.07156">
        <ele>224.0556640625</ele>
        <time>2014-06-14T14:27:49Z</time>
      </trkpt>
      <trkpt lat="43.41845" lon="6.07162">
        <ele>223.90734863281</ele>
        <time>2014-06-14T14:27:51Z</time>
      </trkpt>
      <trkpt lat="43.41845" lon="6.07167">
        <ele>223.82348632812</ele>
        <time>2014-06-14T14:27:53Z</time>
      </trkpt>
      <trkpt lat="43.41843" lon="6.07174">
        <ele>223.44583129883</ele>
        <time>2014-06-14T14:27:56Z</time>
      </trkpt>
      <trkpt lat="43.41842" lon="6.07183">
        <ele>222.98577880859</ele>
        <time>2014-06-14T14:28:00Z</time>
      </trkpt>
      <trkpt lat="43.4184" lon="6.07191">
        <ele>222.58924865723</ele>
        <time>2014-06-14T14:28:03Z</time>
      </trkpt>
      <trkpt lat="43.41843" lon="6.072">
        <ele>222.52401733398</ele>
        <time>2014-06-14T14:28:07Z</time>
      </trkpt>
      <trkpt lat="43.41846" lon="6.07201">
        <ele>222.66134643555</ele>
        <time>2014-06-14T14:28:08Z</time>
      </trkpt>
      <trkpt lat="43.41858" lon="6.07205">
        <ele>223.35656738281</ele>
        <time>2014-06-14T14:28:14Z</time>
      </trkpt>
      <trkpt lat="43.41865" lon="6.07212">
        <ele>223.52159118652</ele>
        <time>2014-06-14T14:28:20Z</time>
      </trkpt>
      <trkpt lat="43.41866" lon="6.07213">
        <ele>223.48725891113</ele>
        <time>2014-06-14T14:28:21Z</time>
      </trkpt>
      <trkpt lat="43.41866" lon="6.07223">
        <ele>223.19723510742</ele>
        <time>2014-06-14T14:28:25Z</time>
      </trkpt>
      <trkpt lat="43.41863" lon="6.07249">
        <ele>224.02462768555</ele>
        <time>2014-06-14T14:28:34Z</time>
      </trkpt>
      <trkpt lat="43.41863" lon="6.07266">
        <ele>224.62716674805</ele>
        <time>2014-06-14T14:28:41Z</time>
      </trkpt>
      <trkpt lat="43.41863" lon="6.07267">
        <ele>224.70098876953</ele>
        <time>2014-06-14T14:28:46Z</time>
      </trkpt>
      <trkpt lat="43.41863" lon="6.07267">
        <ele>224.70098876953</ele>
        <time>2014-06-14T14:28:51Z</time>
      </trkpt>
    </trkseg>
  </trk>
</gpx>